[[{"header":{"parameterUnit":"m.s-1","parameterCategory":1,"la1":30.6,"la2":29.2853,"lo1":-89.7004,"lo2":-87.6739,"dy":0.0162,"dx":0.0183,"nx":112,"ny":82,"refTime":"2026-02-28T00:00:00:Z","depth":0,"parameterNumber":2,"parameterNumberName":"U-component_of_WINDS"},"data":[0.0,0.0,0.0,0.0,0.0,0.0,0.0,0.0,0.0,0.0,0.0,0.0,0.0,0.0,0.0,0.0,0.0,0.0,0.0,0.0,0.0,0.0,0.0,0.0,0.0,0.0,0.0,0.0,0.0,0.0,0.0,0.0,0.0,0.0,0.0,0.0,0.0,0.0,0.0,0.0,0.0,0.0,0.0,0.0,0.0,0.0,0.0,0.0,0.0,0.0,0.0,0.0,0.0,0.0,0.0,0.0,0.0,0.0,0.0,0.0,0.0,0.0,0.0,0.0,0.0,0.0,0.0,0.0,0.0,0.0,0.0,0.0,0.0,0.0,0.0,0.0,0.0,0.0,0.0,0.0,0.0,0.0,0.0,0.0,0.0,0.0,0.0,0.0,0.0,0.0,-4.1724,-4.228,-4.4767,-4.6932,-4.8291,-4.7139,-4.5781,-4.4452,0.0,0.0,0.0,0.0,0.0,0.0,0.0,0.0,0.0,0.0,0.0,0.0,0.0,0.0,0.0,0.0,0.0,0.0,0.0,0.0,0.0,0.0,0.0,0.0,0.0,0.0,0.0,0.0,0.0,0.0,0.0,0.0,0.0,0.0,0.0,0.0,0.0,0.0,0.0,0.0,0.0,0.0,0.0,0.0,0.0,0.0,0.0,0.0,0.0,0.0,0.0,0.0,0.0,0.0,0.0,0.0,0.0,0.0,0.0,0.0,0.0,0.0,0.0,0.0,0.0,0.0,0.0,0.0,0.0,0.0,0.0,0.0,0.0,0.0,0.0,0.0,0.0,0.0,0.0,0.0,0.0,0.0,0.0,0.0,0.0,0.0,0.0,0.0,0.0,0.0,0.0,0.0,0.0,0.0,0.0,0.0,0.0,0.0,0.0,0.0,0.0,0.0,0.0,0.0,-4.0163,-4.2687,-4.3879,-4.4866,-4.5708,-4.5522,-4.4984,-4.4198,0.0,0.0,0.0,0.0,0.0,0.0,0.0,0.0,0.0,0.0,0.0,0.0,0.0,0.0,0.0,0.0,0.0,0.0,0.0,0.0,0.0,0.0,0.0,0.0,0.0,0.0,0.0,0.0,0.0,0.0,0.0,0.0,0.0,0.0,0.0,0.0,0.0,0.0,0.0,0.0,0.0,0.0,0.0,0.0,0.0,0.0,0.0,0.0,0.0,0.0,0.0,0.0,0.0,0.0,0.0,0.0,0.0,0.0,0.0,0.0,0.0,0.0,0.0,0.0,0.0,0.0,0.0,0.0,0.0,0.0,0.0,0.0,0.0,0.0,0.0,0.0,0.0,0.0,0.0,0.0,0.0,0.0,0.0,0.0,0.0,0.0,0.0,0.0,0.0,0.0,0.0,0.0,0.0,0.0,0.0,0.0,0.0,0.0,0.0,0.0,0.0,0.0,0.0,-3.8921,-4.0037,-4.2163,-4.3409,-4.4381,-4.5138,-4.4732,-4.413,-4.3438,-4.1333,0.0,0.0,0.0,0.0,0.0,0.0,0.0,0.0,0.0,0.0,0.0,0.0,0.0,0.0,0.0,0.0,0.0,0.0,0.0,0.0,0.0,0.0,0.0,0.0,0.0,0.0,0.0,0.0,0.0,0.0,0.0,0.0,0.0,0.0,0.0,0.0,0.0,0.0,0.0,0.0,0.0,0.0,0.0,0.0,0.0,0.0,0.0,0.0,0.0,0.0,0.0,0.0,0.0,0.0,0.0,0.0,0.0,0.0,0.0,0.0,0.0,0.0,0.0,0.0,0.0,0.0,0.0,0.0,0.0,0.0,0.0,0.0,0.0,0.0,0.0,0.0,0.0,0.0,0.0,0.0,0.0,0.0,0.0,0.0,0.0,0.0,0.0,0.0,0.0,0.0,0.0,0.0,0.0,0.0,0.0,0.0,0.0,0.0,0.0,0.0,0.0,0.0,-3.9154,-4.0274,-4.134,-4.2825,-4.3917,-4.4508,-4.3889,-4.3187,-4.2509,-4.0071,0.0,0.0,0.0,0.0,0.0,0.0,0.0,0.0,0.0,0.0,0.0,0.0,0.0,0.0,0.0,0.0,0.0,0.0,0.0,0.0,0.0,0.0,0.0,0.0,0.0,0.0,0.0,0.0,0.0,0.0,0.0,0.0,0.0,0.0,0.0,0.0,0.0,0.0,0.0,0.0,0.0,0.0,0.0,0.0,0.0,0.0,0.0,0.0,0.0,0.0,0.0,0.0,0.0,0.0,0.0,0.0,0.0,0.0,0.0,0.0,0.0,0.0,0.0,0.0,0.0,0.0,0.0,0.0,0.0,0.0,0.0,0.0,0.0,0.0,0.0,0.0,0.0,0.0,0.0,0.0,0.0,0.0,0.0,0.0,0.0,0.0,0.0,0.0,0.0,0.0,0.0,0.0,0.0,0.0,0.0,0.0,0.0,0.0,0.0,0.0,0.0,0.0,-3.9167,-4.0402,-4.0492,-4.1708,-4.2528,-4.2612,-4.255,-4.2226,-4.1528,-4.0134,0.0,0.0,0.0,0.0,0.0,0.0,0.0,0.0,0.0,0.0,0.0,0.0,0.0,0.0,0.0,0.0,0.0,0.0,0.0,0.0,0.0,0.0,0.0,0.0,0.0,0.0,0.0,0.0,0.0,0.0,0.0,0.0,0.0,0.0,0.0,0.0,0.0,0.0,0.0,0.0,0.0,0.0,0.0,0.0,0.0,0.0,0.0,0.0,0.0,0.0,0.0,0.0,0.0,0.0,0.0,0.0,0.0,0.0,0.0,0.0,0.0,0.0,0.0,0.0,0.0,0.0,0.0,0.0,0.0,0.0,0.0,0.0,0.0,0.0,0.0,0.0,0.0,0.0,0.0,0.0,0.0,0.0,0.0,0.0,0.0,0.0,0.0,0.0,0.0,0.0,0.0,0.0,0.0,0.0,0.0,0.0,0.0,0.0,0.0,0.0,0.0,0.0,-3.905,-4.0113,0.0,-4.1856,-4.2396,-4.2396,-4.2396,-4.1946,-4.0846,0.0,0.0,0.0,0.0,0.0,0.0,0.0,0.0,0.0,0.0,0.0,0.0,0.0,0.0,0.0,0.0,0.0,0.0,0.0,0.0,0.0,0.0,0.0,0.0,0.0,0.0,0.0,0.0,0.0,0.0,0.0,0.0,0.0,0.0,0.0,0.0,0.0,0.0,0.0,0.0,0.0,0.0,0.0,0.0,0.0,0.0,0.0,0.0,0.0,0.0,0.0,0.0,0.0,0.0,0.0,0.0,0.0,0.0,0.0,0.0,0.0,0.0,0.0,0.0,0.0,0.0,0.0,0.0,0.0,0.0,0.0,0.0,0.0,0.0,0.0,0.0,0.0,0.0,0.0,0.0,0.0,0.0,0.0,0.0,0.0,0.0,0.0,0.0,0.0,0.0,0.0,0.0,0.0,0.0,0.0,0.0,0.0,0.0,0.0,0.0,0.0,0.0,-3.8242,-3.9349,-4.0472,0.0,-4.2126,-4.2396,-4.2396,-4.2021,-4.1265,-4.0157,0.0,0.0,0.0,0.0,0.0,0.0,0.0,0.0,0.0,0.0,0.0,0.0,0.0,0.0,0.0,0.0,0.0,0.0,0.0,0.0,0.0,0.0,0.0,0.0,0.0,0.0,0.0,0.0,0.0,0.0,0.0,0.0,0.0,0.0,0.0,0.0,0.0,0.0,0.0,0.0,0.0,0.0,0.0,0.0,0.0,0.0,0.0,0.0,0.0,0.0,0.0,0.0,0.0,0.0,0.0,0.0,0.0,0.0,0.0,0.0,0.0,0.0,0.0,0.0,0.0,0.0,0.0,0.0,0.0,0.0,0.0,0.0,0.0,0.0,0.0,0.0,0.0,0.0,0.0,0.0,0.0,0.0,0.0,0.0,0.0,0.0,0.0,0.0,0.0,0.0,0.0,0.0,0.0,0.0,0.0,0.0,0.0,0.0,0.0,0.0,0.0,0.0,-3.8282,-4.0142,-4.1639,-4.2297,-4.2357,-4.2357,-4.2357,-4.1145,-4.0076,0.0,0.0,0.0,0.0,0.0,0.0,0.0,0.0,0.0,0.0,0.0,0.0,0.0,0.0,0.0,0.0,0.0,0.0,0.0,0.0,0.0,0.0,0.0,0.0,0.0,0.0,0.0,0.0,0.0,0.0,0.0,0.0,0.0,0.0,0.0,0.0,0.0,0.0,0.0,0.0,0.0,0.0,0.0,0.0,0.0,0.0,0.0,0.0,0.0,0.0,0.0,0.0,0.0,0.0,0.0,0.0,0.0,0.0,0.0,0.0,0.0,0.0,0.0,0.0,0.0,0.0,0.0,0.0,0.0,0.0,0.0,0.0,0.0,0.0,0.0,0.0,0.0,0.0,0.0,0.0,0.0,0.0,0.0,0.0,0.0,0.0,0.0,0.0,0.0,0.0,0.0,0.0,0.0,0.0,0.0,0.0,0.0,0.0,0.0,0.0,0.0,0.0,0.0,-3.6679,-3.8113,-3.9415,-4.0533,-4.025,-4.0008,-4.0008,-3.8873,-3.7982,-3.7594,0.0,0.0,0.0,0.0,0.0,0.0,0.0,0.0,0.0,0.0,0.0,0.0,0.0,0.0,0.0,0.0,0.0,0.0,0.0,0.0,0.0,0.0,0.0,0.0,0.0,0.0,0.0,0.0,0.0,0.0,0.0,0.0,0.0,0.0,0.0,0.0,0.0,0.0,0.0,0.0,0.0,0.0,0.0,0.0,0.0,0.0,0.0,0.0,0.0,0.0,0.0,0.0,0.0,0.0,0.0,0.0,0.0,0.0,0.0,0.0,0.0,0.0,0.0,0.0,0.0,0.0,0.0,0.0,0.0,0.0,0.0,0.0,0.0,0.0,0.0,0.0,0.0,0.0,0.0,0.0,0.0,0.0,0.0,0.0,0.0,0.0,0.0,0.0,0.0,0.0,0.0,0.0,0.0,0.0,0.0,0.0,0.0,0.0,0.0,0.0,0.0,0.0,-3.5977,-3.7289,-3.8546,-3.9775,-3.9154,-3.8629,-3.8587,-3.7468,-3.6529,-3.5891,0.0,0.0,0.0,0.0,0.0,0.0,0.0,0.0,0.0,0.0,0.0,0.0,0.0,0.0,0.0,0.0,0.0,0.0,0.0,0.0,0.0,0.0,0.0,0.0,0.0,0.0,0.0,0.0,0.0,0.0,0.0,0.0,0.0,0.0,0.0,0.0,0.0,0.0,0.0,0.0,0.0,0.0,0.0,0.0,0.0,0.0,0.0,0.0,0.0,0.0,0.0,0.0,0.0,0.0,0.0,0.0,0.0,0.0,0.0,0.0,0.0,0.0,0.0,0.0,0.0,0.0,0.0,0.0,0.0,0.0,0.0,0.0,0.0,0.0,0.0,0.0,0.0,0.0,0.0,0.0,0.0,0.0,0.0,0.0,0.0,0.0,0.0,0.0,0.0,0.0,0.0,0.0,0.0,0.0,0.0,0.0,0.0,0.0,0.0,0.0,0.0,0.0,-3.5701,-3.703,-3.8264,-3.947,-3.8497,-3.7757,-3.7715,-3.6592,-3.5441,-3.4403,0.0,0.0,0.0,0.0,0.0,0.0,0.0,0.0,0.0,0.0,0.0,0.0,0.0,0.0,0.0,0.0,0.0,0.0,0.0,0.0,0.0,0.0,0.0,0.0,0.0,0.0,0.0,0.0,0.0,0.0,0.0,0.0,0.0,0.0,0.0,0.0,0.0,0.0,0.0,0.0,0.0,0.0,0.0,0.0,0.0,0.0,0.0,0.0,0.0,0.0,0.0,0.0,0.0,0.0,0.0,0.0,0.0,0.0,0.0,0.0,-3.5656,0.0,0.0,0.0,0.0,0.0,0.0,0.0,0.0,0.0,0.0,0.0,0.0,0.0,0.0,0.0,0.0,0.0,0.0,0.0,0.0,0.0,0.0,0.0,0.0,0.0,0.0,0.0,0.0,0.0,0.0,0.0,0.0,0.0,0.0,0.0,0.0,0.0,0.0,0.0,0.0,0.0,-3.3524,-3.4743,-3.5872,-3.7034,-3.6103,-3.5436,-3.5391,-3.4396,-3.3768,-3.3847,-3.3315,0.0,0.0,0.0,0.0,0.0,0.0,0.0,0.0,0.0,0.0,0.0,0.0,0.0,0.0,0.0,0.0,0.0,0.0,0.0,0.0,0.0,0.0,0.0,0.0,0.0,0.0,0.0,0.0,0.0,0.0,0.0,0.0,0.0,0.0,0.0,0.0,0.0,0.0,0.0,0.0,0.0,0.0,0.0,0.0,0.0,0.0,0.0,0.0,0.0,0.0,0.0,0.0,0.0,0.0,0.0,0.0,0.0,0.0,0.0,0.0,-3.526,0.0,0.0,0.0,0.0,0.0,0.0,0.0,0.0,0.0,0.0,0.0,0.0,0.0,0.0,0.0,0.0,0.0,0.0,0.0,0.0,0.0,0.0,0.0,0.0,0.0,0.0,0.0,0.0,0.0,0.0,0.0,0.0,0.0,0.0,0.0,0.0,0.0,0.0,0.0,0.0,-3.2867,-3.4035,-3.5052,-3.5881,-3.5466,-3.4969,-3.4705,-3.4198,-3.3725,-3.3412,-3.2836,0.0,0.0,0.0,0.0,0.0,0.0,0.0,0.0,0.0,0.0,0.0,0.0,0.0,0.0,0.0,0.0,0.0,0.0,0.0,0.0,0.0,0.0,0.0,0.0,0.0,0.0,0.0,0.0,0.0,0.0,0.0,0.0,0.0,0.0,0.0,0.0,0.0,0.0,0.0,0.0,0.0,0.0,0.0,0.0,0.0,0.0,0.0,0.0,0.0,0.0,0.0,0.0,0.0,-3.0106,-3.0317,-3.0719,-3.0719,-3.0763,-3.0927,-3.2809,-3.3761,-3.3958,-3.3461,0.0,0.0,0.0,0.0,0.0,0.0,0.0,0.0,0.0,0.0,0.0,0.0,0.0,0.0,0.0,0.0,0.0,0.0,0.0,0.0,0.0,0.0,0.0,0.0,-2.8054,-2.8913,-3.0682,0.0,0.0,0.0,0.0,0.0,0.0,0.0,0.0,0.0,0.0,0.0,-3.2598,-3.3815,-3.4788,-3.5295,-3.5357,-3.5169,-3.4718,-3.468,-3.4299,-3.3282,-3.2679,-3.1712,0.0,0.0,0.0,0.0,0.0,0.0,0.0,0.0,0.0,0.0,0.0,0.0,0.0,0.0,0.0,0.0,0.0,0.0,0.0,0.0,0.0,0.0,0.0,0.0,0.0,0.0,0.0,0.0,0.0,0.0,0.0,0.0,-3.4196,-3.4196,0.0,0.0,0.0,0.0,0.0,0.0,0.0,0.0,0.0,0.0,0.0,0.0,0.0,-3.0518,-3.0757,-3.0768,-3.0706,-3.0619,-3.0619,-3.0663,-3.0719,-3.0719,-3.0953,-3.1426,-3.2142,0.0,-3.1213,-3.0702,0.0,0.0,0.0,0.0,0.0,0.0,0.0,0.0,0.0,0.0,0.0,0.0,0.0,0.0,0.0,0.0,0.0,0.0,0.0,0.0,0.0,0.0,-2.7708,-2.7645,-2.7677,-2.8072,0.0,-2.8876,-2.8008,-2.74,-2.7001,0.0,0.0,0.0,0.0,0.0,0.0,0.0,-3.1444,-3.2956,-3.4223,-3.4731,-3.4826,-3.4756,-3.4726,-3.468,-3.4462,-3.3834,-3.3269,-3.2641,-3.1926,-3.0922,0.0,0.0,0.0,0.0,0.0,0.0,0.0,0.0,0.0,0.0,0.0,0.0,0.0,0.0,0.0,0.0,0.0,0.0,0.0,0.0,0.0,0.0,0.0,0.0,0.0,0.0,0.0,0.0,0.0,-3.3091,-3.3159,-3.4234,-3.3007,-3.2257,0.0,0.0,0.0,0.0,0.0,0.0,0.0,0.0,0.0,-3.0384,-3.0396,-3.0171,-2.965,-2.9612,-2.9406,-2.8999,-2.8999,-2.9124,-2.9373,-2.9373,-2.9611,-3.0036,-3.0047,-2.9881,-2.9756,-3.0838,-3.1053,-3.0778,0.0,0.0,0.0,0.0,-2.9764,-2.9658,-2.9226,-2.9047,-2.8993,-2.8629,0.0,0.0,0.0,0.0,0.0,0.0,0.0,0.0,0.0,0.0,-2.6956,-2.6956,-2.6956,-2.7092,-2.7593,-2.7112,-2.6823,0.0,-2.7719,-2.7568,-2.7478,0.0,0.0,0.0,0.0,-2.9933,-3.0179,-3.1132,-3.1908,-3.2144,-3.27,-3.2877,-3.2582,-3.3042,-3.3101,-3.2583,-3.2123,-3.1463,-3.0537,-2.9863,-2.9045,0.0,0.0,0.0,0.0,0.0,0.0,0.0,0.0,0.0,0.0,0.0,0.0,0.0,0.0,0.0,0.0,0.0,0.0,0.0,0.0,0.0,0.0,0.0,0.0,0.0,0.0,0.0,0.0,-3.2245,-3.2323,-3.3728,-3.2064,-3.1027,0.0,0.0,0.0,0.0,0.0,0.0,-2.9664,-2.9686,-2.9773,-2.9931,-2.9942,-2.9512,-2.8695,-2.8655,-2.8389,-2.7822,-2.7822,-2.7988,-2.8291,-2.8291,-2.8467,-2.875,-2.8545,-2.8574,-2.8883,-3.039,-3.0846,-3.0435,-2.9553,-2.923,-2.923,-2.923,-2.923,-2.9139,-2.8531,-2.8356,-2.8265,-2.8,-2.7559,-2.7197,-2.7597,0.0,0.0,0.0,0.0,-2.6897,-2.5965,-2.6064,-2.6357,-2.625,-2.6309,-2.6357,-2.625,-2.5967,-2.6146,0.0,-2.7763,-2.754,-2.7086,0.0,0.0,0.0,0.0,-2.8667,-2.8892,-2.9546,-3.0003,-3.0003,-3.0889,-3.1326,-3.0919,-3.1771,-3.2068,-3.1526,-3.1218,-3.0625,-2.9613,-2.9169,-2.85,-2.75,0.0,0.0,0.0,0.0,0.0,0.0,0.0,0.0,0.0,0.0,0.0,0.0,0.0,0.0,0.0,0.0,0.0,0.0,0.0,0.0,0.0,0.0,0.0,0.0,0.0,0.0,0.0,0.0,0.0,-3.1656,-3.2376,0.0,0.0,0.0,0.0,-3.003,-2.9985,-2.9639,-2.8919,-2.8851,-2.8531,-2.7868,-2.7826,-2.8022,-2.8329,-2.8329,-2.8286,-2.8262,-2.8262,-2.8271,-2.8291,-2.8291,-2.8301,-2.834,-2.8721,-2.8672,-2.8291,-2.8019,-2.7885,-2.7816,-2.7353,-2.7176,-2.7176,-2.7176,-2.7176,-2.7135,-2.7104,-2.7114,-2.7172,-2.7574,-2.7133,-2.6369,-2.5976,-2.5592,0.0,0.0,-2.5486,-2.5781,-2.5742,-2.6064,-2.6279,-2.582,-2.6084,-2.6279,-2.581,-2.5703,-2.5732,0.0,-2.5543,-2.5595,-2.6536,0.0,-2.6285,-2.6658,-2.778,-2.8361,-2.7761,-2.8702,-2.9441,-2.9441,-3.0326,-3.0919,-3.0886,-3.1771,-3.2068,-3.1526,-3.1482,-3.1236,-3.0674,-3.0173,-2.966,-2.9101,-2.8133,0.0,0.0,0.0,0.0,0.0,0.0,0.0,0.0,0.0,0.0,0.0,0.0,0.0,0.0,0.0,0.0,0.0,0.0,0.0,0.0,0.0,0.0,0.0,0.0,0.0,0.0,0.0,0.0,-3.2274,-3.1007,0.0,-3.0477,-2.9249,-2.8304,-2.809,-2.807,-2.8085,-2.8094,-2.8063,-2.8066,-2.811,-2.8066,-2.8135,-2.8291,-2.8291,-2.7843,-2.6888,-2.7843,-2.7789,-2.6943,-2.7843,-2.8437,-2.8691,-2.8564,-2.8584,-2.8662,-2.8242,-2.8066,-2.8027,-2.7607,-2.7432,-2.7432,-2.7432,-2.7432,-2.7471,-2.7744,-2.7842,-2.7822,-2.7705,-2.7513,-2.708,-2.6377,-2.6045,-2.5859,-2.5576,-2.5567,-2.5693,-2.5693,-2.6064,-2.6348,-2.6191,-2.6279,-2.6348,-2.6191,-2.5888,-2.5693,-2.5693,-2.5557,-2.5544,-2.5664,-2.5772,-2.5822,-2.5681,-2.6269,-2.6666,-2.6418,-2.6754,-2.702,-2.702,-2.7623,-2.7994,-2.7994,-2.8818,-2.9271,-2.9055,-2.9044,-2.8973,-2.8768,-2.8049,-2.7577,-2.7413,-2.651,-2.5498,0.0,0.0,0.0,0.0,0.0,0.0,0.0,0.0,0.0,0.0,0.0,0.0,0.0,0.0,0.0,0.0,0.0,0.0,0.0,0.0,0.0,0.0,0.0,0.0,0.0,-2.9411,-2.9859,-3.1454,-3.0025,-2.9129,-2.9606,-2.8277,-2.7383,-2.7246,-2.7236,-2.7422,-2.7851,-2.7429,-2.7279,-2.7546,-2.706,-2.678,-2.678,-2.678,-2.6273,-2.5325,-2.6327,-2.6273,-2.538,-2.6327,-2.6928,-2.716,-2.6891,-2.6928,-2.7151,-2.6891,-2.678,-2.6861,-2.7598,-2.7881,-2.7881,-2.7881,-2.7881,-2.792,-2.8193,-2.8291,-2.8252,-2.7969,-2.7404,-2.6683,-2.6079,-2.5396,-2.4755,-2.4427,-2.4353,-2.4353,-2.4353,-2.4659,-2.5097,-2.5417,-2.5242,-2.5088,-2.5417,-2.522,-2.4913,-2.4461,-2.5069,-2.5644,-2.5352,-2.5537,-2.5586,-2.5342,-2.5547,-2.5693,-2.5693,-2.5693,-2.5693,-2.5693,-2.6133,-2.6387,-2.6387,-2.7041,-2.7441,-2.7441,-2.7441,-2.7441,-2.7441,-2.6768,-2.6387,-2.6387,-2.5518,-2.4717,-2.4004,0.0,0.0,0.0,0.0,0.0,0.0,0.0,0.0,0.0,0.0,0.0,0.0,0.0,0.0,0.0,0.0,0.0,0.0,0.0,0.0,0.0,0.0,0.0,-2.6992,-2.8125,-2.8871,-2.8846,-2.9631,-2.9595,-2.8305,-2.8213,-2.8028,-2.762,-2.7581,-2.7746,-2.8155,-2.6825,-2.6036,-2.6036,-2.4599,-2.3822,-2.3822,-2.3822,-2.3766,-2.371,-2.3766,-2.3766,-2.371,-2.3766,-2.3822,-2.3822,-2.3822,-2.3822,-2.3822,-2.3822,-2.3822,-2.41,-2.7006,-2.8184,-2.8184,-2.8184,-2.8184,-2.8184,-2.8184,-2.8184,-2.8184,-2.8184,-2.6729,-2.4952,-2.4925,-2.3435,-2.1726,-2.1702,-2.1702,-2.1702,-2.1702,-2.1975,-2.2518,-2.3423,-2.2961,-2.2509,-2.3415,-2.3642,-2.3226,-2.1954,-2.3791,-2.5586,-2.5635,-2.5684,-2.5693,-2.5693,-2.5693,0.0,-2.5693,-2.5693,-2.5693,-2.5693,-2.6113,-2.6367,-2.6367,-2.6758,-2.6992,-2.6992,-2.7012,-2.7012,-2.7012,-2.6611,-2.6387,-2.6367,-2.5556,-2.4853,-2.4414,0.0,0.0,0.0,0.0,0.0,0.0,0.0,0.0,0.0,0.0,0.0,0.0,0.0,0.0,0.0,0.0,0.0,0.0,0.0,0.0,0.0,-2.5886,-2.6079,-2.7713,-2.8506,-2.8689,-2.815,-2.8293,-2.7821,-2.6308,-2.5673,-2.5367,-2.5271,-2.5003,-2.4945,-2.5041,-2.4654,-2.4433,-2.4433,-2.4044,-2.3822,-2.3822,-2.3822,-2.3263,-2.2202,-2.3263,-2.3263,-2.2258,-2.3319,-2.3822,-2.3822,-2.3822,-2.3822,-2.3822,-2.3822,-2.3822,-2.3877,-2.471,-2.5049,-2.5049,-2.5049,-2.5049,-2.5049,-2.5049,-2.5049,-2.5049,-2.5049,-2.4628,-2.4027,-2.3493,-2.2917,-2.2336,-2.185,-2.1702,-2.1702,-2.1702,-2.1776,-2.1927,-2.2181,-2.2038,-2.1927,-2.2181,-2.2257,-2.2156,-2.1752,-2.2307,-2.3126,-2.4097,-2.5069,-2.5693,-2.5693,-2.5693,0.0,-2.5693,-2.5693,-2.5693,-2.5693,-2.5801,-2.5869,-2.5869,-2.6318,-2.6562,-2.6562,-2.6846,-2.7012,-2.7012,-2.6611,-2.624,-2.5918,-2.5352,-2.4853,0.0,0.0,0.0,0.0,0.0,0.0,0.0,0.0,0.0,0.0,0.0,0.0,0.0,0.0,0.0,0.0,0.0,0.0,0.0,0.0,0.0,0.0,-2.5245,-2.5127,-2.6807,-2.7209,-2.7242,-2.6815,-2.6957,-2.6568,-2.5388,-2.4861,-2.4474,-2.4326,-2.3972,-2.3822,-2.3822,-2.3207,-2.287,-2.287,-2.2266,-2.1934,-2.1934,-2.1934,-2.1544,-2.0702,-2.1544,-2.1487,-2.0702,-2.1544,-2.1934,-2.1934,-2.1934,-2.1934,-2.1934,-2.1934,-2.1934,0.0,0.0,0.0,0.0,0.0,-2.3822,-2.3822,-2.3822,-2.3822,-2.3822,-2.3822,-2.3334,-2.2609,-2.2053,-2.1317,-2.0613,-2.0126,-1.9973,-1.9973,-1.9973,-1.9973,-2.0128,-2.0692,-2.0385,-2.0128,-2.0684,-2.0845,-2.0633,-2.0076,-2.0888,0.0,-2.1963,-2.3126,-2.4196,-2.4766,-2.4864,-2.5079,-2.5635,-2.5693,-2.5693,-2.5693,-2.5693,-2.5693,-2.5693,-2.5967,0.0,0.0,0.0,-2.6484,-2.6484,-2.625,0.0,0.0,0.0,0.0,0.0,0.0,0.0,0.0,-2.4378,-2.4273,0.0,0.0,0.0,0.0,0.0,0.0,0.0,0.0,0.0,0.0,0.0,0.0,0.0,0.0,0.0,0.0,-2.439,-2.3837,-2.4884,-2.4935,-2.4899,-2.5079,-2.5484,-2.5489,-2.4872,-2.4545,-2.419,-2.3884,-2.3489,-2.3327,-2.3327,0.0,0.0,0.0,0.0,-1.9424,-1.9424,-1.9424,-1.9424,-1.9424,-1.9424,-1.9424,-1.9424,-1.9424,-1.9424,-1.9424,-1.9424,-1.9424,-1.9424,-1.9424,-1.9424,-1.9649,-2.2266,-2.3327,-2.3327,-2.3327,-2.3327,-2.3327,-2.3327,0.0,0.0,-2.3327,-2.2282,-2.0933,-2.0599,-1.9356,-1.8029,-1.7776,-1.7682,-1.7682,-1.7682,-1.7682,-1.7993,-1.9174,-1.8531,-1.7998,-1.9175,-1.9398,-1.9013,-1.7838,-1.9568,-2.0837,-1.9576,-2.0692,-2.2106,-2.3276,-2.3484,-2.389,-2.5118,-2.5274,-2.5274,-2.5274,0.0,0.0,-2.5302,-2.534,-2.535,-2.5302,-2.5254,-2.5274,-2.5274,-2.5274,-2.5245,-2.5302,-2.5302,-2.5321,-2.532,-2.4381,-2.3923,-2.3897,-2.4093,-2.3884,0.0,0.0,0.0,0.0,0.0,0.0,0.0,0.0,0.0,0.0,0.0,0.0,0.0,0.0,0.0,-2.3961,-2.3174,-2.2713,-2.3301,-2.2512,-2.2429,-2.3778,-2.4016,-2.3482,-2.2061,-2.1434,-2.1085,-2.1029,-2.052,-2.0263,-2.0263,-1.9982,-1.9815,-1.9815,-1.954,-1.9424,-1.9424,-1.9424,-1.9424,-1.9424,0.0,0.0,-1.9424,-1.9424,-1.9424,-1.9424,-1.9424,-1.9424,-1.9424,-1.9424,-1.9424,-1.9482,-2.004,-2.0263,-2.0263,-2.0263,-2.0263,-2.0263,-2.0263,-2.0263,-2.0263,-2.0263,-1.9998,-1.9672,-1.9364,-1.9016,0.0,-1.8397,-1.8317,-1.8317,-1.8317,-1.8317,-1.8372,-1.8632,-1.8293,-1.801,-1.8272,-1.8121,-1.7891,-1.7635,-1.8042,-1.8297,-1.8042,-2.0025,-2.1803,-2.2055,-2.2106,-2.2156,-2.2466,-2.2458,-2.2458,-2.2458,-2.2647,-2.2783,-2.2783,-2.3003,-2.3046,-2.28,-2.2587,-2.2458,-2.2458,-2.2458,-2.2561,-2.2783,-2.2783,-2.2876,-2.3121,-2.2925,-2.28,-2.2792,-2.2846,-2.282,0.0,0.0,0.0,0.0,0.0,0.0,0.0,0.0,0.0,0.0,0.0,-2.3216,-2.2901,0.0,-2.2404,-2.3154,-2.2259,-2.1631,-2.1941,-2.1512,-2.1418,-2.2278,-2.2341,-2.2034,-2.1166,-2.0715,-2.0394,-2.018,-1.9826,-1.9519,-1.943,-1.9424,-1.9424,-1.9424,-1.9424,-1.9424,-1.9424,-1.9424,-1.9424,-1.9424,-1.9424,-1.9424,-1.9424,-1.9424,-1.9424,-1.9424,-1.9424,-1.9424,-1.9424,-1.9424,-1.9424,-1.9424,-1.9424,-1.9424,-1.9424,-1.9424,-1.9424,-1.9424,-1.9424,-1.9424,-1.9424,-1.9424,-1.9424,-1.9312,-1.9011,-1.8925,-1.8865,-1.8577,-1.849,-1.849,-1.849,-1.849,-1.849,-1.849,-1.8377,-1.827,-1.827,-1.8029,-1.7816,-1.7816,-1.7689,-1.7582,-1.7582,-1.8753,-1.9878,-2.0538,-2.0641,-2.0888,-2.16,-2.1702,-2.1702,-2.1702,-2.1938,-2.2116,-2.2116,-2.2331,-2.2462,-2.2282,-2.2146,-2.2092,-2.2092,-2.2092,-2.2182,-2.2318,-2.2327,-2.2364,-2.2482,-2.196,-2.1713,-2.1674,-2.1309,-2.1342,0.0,0.0,0.0,0.0,0.0,0.0,0.0,0.0,-2.3618,-2.2262,-2.2172,-2.248,-2.2822,-2.2017,-2.151,-2.2355,-2.1506,-2.0842,-2.1076,-2.1109,-2.1109,-2.1109,-2.1109,-2.1109,-2.1109,-2.0848,-2.0555,-2.0254,-1.996,-1.9673,-1.9379,-1.9424,-1.9424,-1.9424,-1.9424,-1.9424,-1.9424,-1.9424,-1.9424,-1.9424,-1.9424,-1.9424,-1.9424,-1.9424,-1.9424,-1.9424,-1.9424,-1.9424,-1.9424,-1.9424,-1.9424,-1.9424,-1.9424,-1.9424,-1.9424,-1.9424,-1.9424,-1.9424,-1.9424,-1.9424,-1.9424,-1.9424,-1.9424,-1.9325,-1.9085,-1.9011,-1.8958,-1.8731,-1.8664,-1.8664,-1.8664,-1.8664,-1.8664,-1.8664,-1.8617,-1.8577,-1.8577,-1.8343,-1.8062,-1.8002,-1.7842,-1.7655,-1.7595,-1.7582,-1.7989,-1.9065,-1.922,-1.9627,-2.0735,-2.0952,-2.0992,-2.0992,-2.1278,-2.151,-2.1581,-2.1717,-2.1781,-2.1781,-2.1726,-2.1741,-2.1741,-2.1741,-2.1772,-2.1781,-2.1781,-2.1821,-2.1891,-2.1007,-2.0618,-2.069,-2.0086,-2.011,-2.7777,-2.7344,-2.708,-2.7021,-2.6234,-2.5574,0.0,0.0,-2.3252,-2.1759,-2.1683,-2.1532,-2.042,-2.0529,-2.0801,-2.0902,-2.1014,-2.1076,-2.1109,-2.1109,-2.1109,-2.1109,-2.1109,-2.1109,-2.1109,-2.0848,-2.0555,-2.0254,-1.996,-1.9673,-1.9379,-1.9424,-1.9424,-1.9424,-1.9424,-1.9424,-1.9424,-1.9424,-1.9424,-1.9424,-1.9424,-1.9424,-1.9424,-1.9424,-1.9424,-1.9424,-1.9424,-1.9424,-1.9424,-1.9424,-1.9424,-1.9424,-1.9424,-1.9424,-1.9424,-1.9424,-1.9424,-1.9424,-1.9424,-1.9424,-1.9424,-1.9424,-1.9424,-1.9417,-1.9383,-1.9319,-1.9312,-1.9336,-1.933,-1.933,-1.933,-1.933,-1.933,-1.933,-1.9072,-1.8878,-1.8878,-1.8644,-1.8364,-1.8042,-1.7962,-1.7856,-1.7629,-1.7582,-1.7635,-1.7786,-1.7838,-1.7891,-1.8042,-1.8289,-1.8413,-1.8413,-1.8919,-1.9371,-1.9702,-1.9446,-1.9309,-1.9309,-1.9063,-1.8975,-1.8975,-1.8975,-1.9042,-1.9309,-1.9309,-1.9446,-1.977,-1.9639,-1.9672,-1.9929,-1.9826,-1.9819,-2.5928,-2.5255,-2.4952,-2.5121,-2.4748,-2.4242,-2.3763,-2.305,-2.2157,-2.0748,-2.0701,-2.0741,-2.0395,-2.0514,-2.0728,0.0,-2.1029,-2.1109,-2.1109,-2.1109,-2.1049,-2.0882,-2.1002,-2.1109,-2.1109,-2.1002,-2.0735,-2.0267,-2.012,-1.9853,-1.9392,-1.9424,-1.9424,-1.9424,-1.9424,-1.9424,-1.9424,-1.9424,-1.9424,-1.9424,-1.9424,-1.9424,-1.9424,-1.9424,-1.9424,-1.9424,-1.9424,-1.9424,-1.9424,-1.9424,-1.9424,-1.9424,-1.9424,-1.9424,-1.9424,-1.9424,-1.9424,-1.9424,-1.9424,-1.9424,-1.9424,-1.9424,-1.9424,-1.9424,-1.9424,-1.9424,-1.9424,-1.9424,-1.9424,-1.9424,-1.9424,-1.9424,-1.9424,-1.9424,-1.9272,-1.9185,-1.9185,-1.8951,-1.8704,-1.8522,-1.8424,-1.8263,-1.8136,-1.811,-1.811,-1.811,-1.7809,-1.7649,-1.7829,-1.7909,-1.8122,-1.8468,-1.8778,-1.9045,-1.9339,-1.9252,-1.9185,-1.9185,-1.9065,-1.9005,-1.9005,-1.9005,-1.9058,-1.9178,-1.9185,-1.9239,-1.9424,-1.9539,-1.9679,-1.9806,-2.0154,-2.0307,-2.4166,-2.3593,-2.3555,-2.3708,-2.3529,-2.3087,-2.2391,-2.1884,-2.1215,-2.0315,-2.0327,-2.0541,-2.0755,-2.0795,-2.0862,-2.1076,-2.1109,-2.1109,-2.1109,-2.1042,-2.0909,-2.0702,-2.0788,-2.0869,-2.0869,-2.0942,-2.0775,-2.0267,-2.0154,-1.9893,-1.9392,-1.9424,-1.9424,-1.9424,-1.9424,-1.9424,-1.9424,-1.9424,-1.9424,-1.9424,-1.9424,-1.9424,-1.9424,-1.9424,-1.9424,-1.9424,-1.9424,-1.9424,-1.9424,-1.9424,-1.9424,-1.9424,-1.9424,-1.9424,-1.9424,-1.9424,-1.9424,-1.9424,-1.9424,-1.9424,-1.9424,-1.9424,-1.9424,-1.9424,-1.9424,-1.9424,-1.9424,-1.9424,-1.9424,-1.9424,-1.9424,-1.9424,-1.9424,-1.9424,-1.9424,-1.9424,-1.9424,-1.9199,-1.9025,-1.8938,-1.8751,-1.8584,-1.8504,-1.849,-1.849,-1.849,-1.8116,-1.7916,-1.8089,-1.8182,-1.8428,-1.8991,-1.9045,-1.9132,-1.941,-1.9424,-1.9424,-1.9424,-1.9424,-1.9424,-1.9424,-1.9424,-1.9424,-1.9424,-1.9424,-1.9464,-1.9486,-1.97,-1.9887,-2.0054,-2.0481,-2.0722,-2.2972,-2.3223,-2.3758,-2.3654,-2.3056,-2.2595,-2.2794,-2.173,-2.079,-2.1015,-2.1076,-2.1082,-2.1096,-2.1096,-2.1096,-2.1109,-2.1109,-2.1109,-2.1109,-2.0869,-2.0688,-2.0675,-2.0428,-2.0261,0.0,-2.0521,-2.0561,-2.0254,-1.9973,-1.9679,-1.9379,-1.9424,-1.9424,-1.9424,-1.9424,-1.9424,-1.9424,-1.9424,-1.9424,-1.9424,-1.9424,-1.9424,-1.9424,-1.9424,-1.9424,-1.9424,-1.9424,-1.9424,-1.9424,-1.9424,-1.9424,-1.9424,-1.9424,-1.9424,-1.9424,-1.9424,-1.9424,-1.9424,-1.9424,-1.9424,-1.9424,-1.9424,-1.9424,-1.9424,-1.9424,-1.9424,-1.9424,-1.9424,-1.9424,-1.9424,-1.9424,-1.9424,-1.9424,-1.9424,-1.9424,-1.9424,-1.9424,-1.9417,-1.9265,-1.8978,-1.8918,-1.8824,-1.8537,-1.849,-1.849,-1.849,-1.8477,-1.8464,-1.8477,-1.8724,-1.9011,-1.9325,-1.9352,-1.9417,-1.9424,-1.9424,-1.9424,-1.9424,-1.9424,-1.9424,-1.9424,-1.9424,-1.9424,-1.9424,-1.9424,-1.9506,-1.9786,-1.98,-2.0094,-2.0648,-2.0668,-2.0828,-2.0183,-2.0492,-2.0982,-2.1276,-2.1293,-2.1388,-2.1624,-2.1325,-2.0989,-2.1089,-2.0955,-2.0822,-2.0822,-2.0822,-2.0822,-2.0822,-2.0982,-2.1109,-2.1109,-2.1029,-2.0822,-2.0428,-2.0468,0.0,0.0,0.0,0.0,-1.9967,-1.9853,-1.9673,-1.9379,-1.9424,-1.9424,-1.9424,-1.9424,-1.9424,-1.9424,-1.9424,-1.9424,-1.9424,-1.9424,-1.9424,-1.9424,-1.9424,-1.9424,-1.9424,-1.9424,-1.9424,-1.9424,-1.9424,-1.9424,-1.9424,-1.9424,-1.9424,-1.9424,-1.9424,-1.9424,-1.9424,-1.9424,-1.9424,-1.9424,-1.9424,-1.9424,-1.9424,-1.9424,-1.9424,-1.9424,-1.9424,-1.9424,-1.9424,-1.9424,-1.9424,-1.9424,-1.9424,-1.9424,-1.9424,-1.9424,-1.9424,-1.9397,-1.9239,-1.9219,-1.9185,-1.9092,-1.9072,-1.9072,-1.9072,-1.8905,-1.8778,-1.8778,-1.9038,-1.9259,-1.9417,-1.9424,-1.9424,-1.9424,-1.9424,-1.9424,-1.9424,-1.9424,-1.9424,-1.9424,-1.9424,-1.9459,-1.9653,-1.9659,-1.98,-2.0087,-2.0287,-2.0481,-2.0681,-2.0875,-2.1015,-1.8971,-1.9299,-1.9666,-2.0247,-2.0615,-2.0882,-2.1069,-2.1109,-2.1082,-2.0975,-2.0808,-2.0641,-2.0535,-2.0514,-2.0555,-2.0661,-2.0828,-2.0989,-2.1096,-2.0929,-2.0655,-2.0274,-2.0221,-2.006,0.0,0.0,0.0,-1.9806,-1.97,-1.9566,-1.9437,-1.9424,-1.9424,-1.9424,-1.9424,-1.9424,-1.9424,-1.9424,-1.9424,-1.9424,-1.9424,-1.9424,-1.9424,-1.9424,-1.9424,-1.9424,-1.9424,-1.9424,-1.9424,-1.9424,-1.9424,-1.9424,-1.9424,-1.9424,-1.9424,-1.9424,-1.9424,-1.9424,-1.9424,-1.9424,-1.9424,-1.9424,-1.9424,-1.9424,-1.9424,-1.9424,-1.9424,-1.9424,-1.9424,-1.9424,-1.9424,-1.9424,-1.9424,-1.9424,-1.9424,-1.9424,-1.9424,-1.9424,-1.9424,-1.9424,-1.9424,-1.9424,-1.9424,-1.9424,-1.9424,-1.9424,-1.9205,-1.9085,-1.9085,-1.9252,-1.9424,-1.9424,-1.9424,-1.9424,-1.9424,-1.9424,-1.9424,-1.9424,-1.9424,-1.9412,-1.9519,-1.9519,-1.9659,-1.9947,-1.9953,-2.01,-2.0394,-2.0581,-2.0728,-2.0835,-2.1022,-2.1109,-1.9239,-1.9613,-1.998,-2.0555,-2.0909,-2.1109,-2.1109,-2.1096,-2.1009,-2.0735,-2.0655,-2.0541,0.0,0.0,-2.0327,-2.0608,-2.0681,-2.0795,-2.1069,-2.0628,-2.0207,0.0,0.0,0.0,0.0,0.0,0.0,-1.976,0.0,-1.9424,-1.9424,-1.9424,-1.9424,-1.9424,-1.9424,-1.9424,-1.9424,-1.9424,-1.9424,-1.9424,-1.9424,-1.9424,-1.9424,-1.9424,-1.9424,-1.9424,-1.9424,-1.9424,-1.9424,-1.9424,-1.9424,-1.9424,-1.9424,-1.9424,-1.9424,-1.9424,-1.9424,-1.9424,-1.9424,-1.9424,-1.9424,-1.9424,-1.9424,-1.9424,-1.9424,-1.9424,-1.9424,-1.9424,-1.9424,-1.9424,-1.9424,-1.9424,-1.9424,-1.9424,-1.9424,-1.9424,-1.9424,-1.9424,-1.9424,-1.9424,-1.9424,-1.9424,-1.9424,-1.9424,-1.9424,-1.9424,-1.9424,-1.9424,-1.9424,-1.9424,-1.9424,-1.9424,-1.9424,-1.9424,-1.9424,-1.9424,-1.9424,-1.9424,-1.9379,-1.9512,-1.9786,-1.9813,-1.996,-2.0193,-2.0254,-2.0401,-2.0702,-2.0702,-2.0842,-2.1109,-2.1109,-2.1109,-1.9593,-2.0067,-2.0541,-2.0909,-2.1056,-2.1109,-2.1109,-2.0942,-2.0768,-2.0688,-2.0327,-2.0,0.0,0.0,0.0,-2.0334,-2.0715,0.0,-2.1096,-2.0982,0.0,-2.022,0.0,-1.9846,-1.947,-1.9424,0.0,0.0,-1.947,-1.9424,-1.9424,-1.9424,-1.9424,-1.9424,-1.9424,-1.9424,-1.9424,-1.9424,-1.9424,-1.9424,-1.9424,-1.9424,-1.9424,-1.9424,-1.9424,-1.9424,-1.9424,-1.9424,-1.9424,-1.9424,-1.9424,-1.9424,-1.9424,-1.9424,-1.9424,-1.9424,-1.9424,-1.9424,-1.9424,-1.9424,-1.9424,-1.9424,-1.9424,-1.9424,-1.9424,-1.9424,-1.9424,-1.9424,-1.9424,-1.9424,-1.9424,-1.9424,-1.9424,-1.9424,-1.9424,-1.9424,-1.9424,-1.9424,-1.9424,-1.9424,-1.9424,-1.9424,-1.9424,-1.9424,-1.9424,-1.9424,-1.9424,-1.9424,-1.9424,-1.9424,-1.9424,-1.9424,-1.9424,-1.9424,-1.9424,-1.9424,-1.9424,-1.9424,-1.9573,-1.9726,-1.98,-2.0007,-2.0261,-2.0561,-2.0561,-2.0708,-2.0995,-2.0995,-2.1036,-2.1109,-2.1109,-2.1109,-2.0034,-2.0428,-2.0742,-2.1036,-2.1009,-2.0915,-2.0915,-2.0688,-2.0448,-2.0321,-2.0034,-1.972,-1.9466,-1.976,-2.004,0.0,0.0,0.0,-2.1089,-2.1002,-2.0795,0.0,-2.0201,0.0,-1.9586,-1.9446,-1.9424,0.0,-1.9424,-1.9424,-1.9424,-1.9424,-1.9424,-1.9424,-1.9424,-1.9424,-1.9424,-1.9424,-1.9424,-1.9424,-1.9424,-1.9424,-1.9424,-1.9424,-1.9424,-1.9424,0.0,-1.9424,-1.9424,-1.9424,-1.9424,-1.9424,-1.9424,-1.9424,-1.9424,-1.9424,-1.9424,-1.9424,-1.9424,-1.9424,-1.9424,-1.9424,-1.9424,-1.9424,-1.9424,-1.9424,-1.9424,-1.9424,-1.9424,-1.9424,-1.9424,-1.9424,-1.9424,-1.9424,-1.9424,-1.9424,-1.9424,-1.9424,-1.9424,-1.9424,-1.9424,-1.9424,-1.9424,-1.9424,-1.9424,-1.9424,-1.9424,-1.9424,-1.9424,-1.9424,-1.9424,-1.9424,-1.9424,-1.9424,-1.9424,-1.9486,-1.9559,-1.9559,-1.9826,-2.0047,-2.018,-2.0341,-2.0568,-2.0862,-2.0869,-2.0949,-2.1109,-2.1109,-2.1109,-2.1109,-2.1109,-2.1109,-2.0468,-2.0708,-2.0795,-2.1049,-2.0895,-2.0675,-2.0675,-2.0414,-2.0094,-1.9806,0.0,-1.9512,-1.8965,-1.9345,-1.976,-1.9793,0.0,-2.0775,-2.1069,-2.0701,-2.0384,-2.0305,-1.9858,-1.9516,-1.9444,-1.9213,-1.9185,-1.9366,-1.9185,-1.9185,-1.9366,-1.9424,-1.9424,-1.9424,-1.9424,-1.9424,-1.9424,-1.9424,-1.941,-1.9305,-1.941,-1.9403,-1.937,-1.941,-1.9424,-1.9424,-1.9424,-1.9424,-1.9424,-1.9424,-1.9424,-1.9424,-1.9424,-1.9424,-1.9424,-1.9424,-1.9424,-1.9424,-1.9424,-1.9424,-1.9424,-1.9424,-1.9424,-1.9424,-1.9424,-1.9424,-1.9424,-1.9424,-1.9424,-1.9424,-1.9424,-1.9424,-1.9424,-1.9424,-1.9424,-1.9424,-1.9424,-1.9424,-1.9424,-1.9424,-1.9424,-1.9424,-1.9424,-1.9424,-1.9424,-1.9424,-1.9424,-1.9424,-1.9424,-1.9424,-1.9424,-1.9424,-1.9424,-1.9379,-1.9419,-1.9659,-1.982,-1.9853,-2.0127,-2.0408,-2.0668,-2.0715,-2.0855,-2.1109,-2.1109,-2.1109,-2.1109,-2.1109,-2.1109,-2.1109,-2.1109,-2.1129,-2.0635,-2.0855,-2.1049,-2.1096,-2.0895,-2.0675,-2.0675,-2.0261,0.0,0.0,-1.9245,-1.8971,-1.8631,-1.9045,-1.9519,-1.976,-2.0294,-2.0775,-2.1069,-1.9827,-1.8731,0.0,-1.816,-1.7877,-1.7498,-1.7414,0.0,0.0,-1.8163,-1.7987,-1.9307,-1.9424,-1.9424,-1.9424,-1.9424,-1.9424,-1.9424,-1.9424,-1.9245,-1.9005,-1.9252,-1.9239,-1.9011,-1.9259,-1.9424,-1.9424,-1.9424,0.0,-1.9424,-1.9424,-1.9424,-1.9424,-1.9424,-1.9424,-1.9424,-1.9424,-1.9424,-1.9424,-1.9424,-1.9424,-1.9424,-1.9424,-1.9424,-1.9424,-1.9424,-1.9424,-1.9424,-1.9424,-1.9424,-1.9424,-1.9424,-1.9424,-1.9424,-1.9424,-1.9424,-1.9424,-1.9424,-1.9424,-1.9424,-1.9424,-1.9424,-1.9424,-1.9424,-1.9424,-1.9424,-1.9424,-1.9424,-1.9424,-1.9424,-1.9424,-1.9424,-1.9424,-1.9424,-1.9466,-1.9706,-1.9773,-1.99,-2.014,-2.0434,-2.0621,-2.0675,-2.0909,-2.1056,-2.1109,-2.1109,-2.1109,-2.1109,-2.1109,-2.1109,-2.1109,-2.1109,-2.1243,-2.0822,-2.1002,-2.1109,-2.1109,-2.0775,-2.0448,-2.0448,0.0,0.0,0.0,-1.8905,-1.8611,-1.831,-1.8865,0.0,-1.9345,-1.996,-2.0548,-2.0842,-1.9399,-1.8539,-1.9292,-1.7628,-1.6603,0.0,-1.6335,-1.6085,-1.6862,-1.6203,-1.6797,-1.9243,-1.9424,-1.9424,-1.9424,-1.9424,-1.9424,-1.9424,-1.9212,-1.9065,-1.8925,-1.9065,-1.9058,-1.8931,-1.9232,-1.9424,-1.9424,-1.9424,-1.9424,-1.9424,-1.9424,-1.9424,-1.9424,-1.9424,-1.9424,-1.9424,-1.9424,-1.9424,-1.9424,-1.9424,-1.9424,-1.9424,-1.9424,-1.9424,-1.9424,-1.9424,-1.9424,-1.9424,-1.9424,-1.9424,-1.9424,-1.9424,-1.9424,-1.9424,-1.9424,-1.9424,-1.9424,-1.9424,-1.9424,-1.9424,-1.9424,-1.9424,-1.9412,-1.9566,-1.9593,-1.9646,-1.98,-1.982,-1.982,-1.982,-1.982,-1.976,-1.9606,-1.9726,-1.9873,-2.0013,-2.0167,-2.0314,-2.0454,-2.0742,-2.0902,-2.0902,-2.1036,-2.1109,-2.1109,-2.1109,-2.1109,-2.1109,-2.1263,-2.1336,-2.1343,-2.1496,-2.1643,-2.0982,-2.1109,-2.1109,-2.1109,-2.0668,-2.0173,-2.0173,-1.9553,0.0,0.0,-1.8597,-1.8303,-1.7949,-1.8571,-1.9032,0.0,-1.9512,-2.0174,-2.0535,-1.9175,-1.8488,0.0,-1.705,0.0,-1.6205,-1.4934,0.0,-1.4545,-1.4604,-1.5849,-1.8706,-1.8887,-1.9062,-1.9366,-1.9062,-1.9036,-1.9272,-1.9038,-1.8865,-1.8738,-1.8798,-1.8798,-1.8751,-1.9112,-1.9272,-1.9279,-1.9339,-1.9424,-1.9424,-1.9424,-1.9424,-1.9424,-1.9424,-1.9424,-1.9424,-1.9424,-1.9424,-1.9424,-1.9424,-1.9424,-1.9424,-1.9424,-1.9424,-1.9424,-1.9424,-1.9424,-1.9424,-1.9424,-1.9424,-1.9424,-1.9424,-1.9424,-1.9424,-1.9424,-1.9424,-1.9424,-1.9424,-1.9477,-1.9459,-1.9459,-1.9512,-1.9626,-1.9853,-1.9893,-1.9967,-2.0194,-2.0173,-2.0173,-2.0173,-2.0287,-2.0241,-2.0013,-2.0134,-2.0261,-2.0321,-2.0541,-2.0702,-2.0768,-2.0982,-2.1109,-2.1109,-2.1109,-2.1109,-2.1109,-2.1109,-2.1142,-2.1203,-2.1436,-2.1648,-2.1715,-2.1884,-2.2017,-2.1096,-2.1109,-2.1109,-2.1109,-2.0668,-2.0173,-2.0173,0.0,-1.8844,-1.8584,-1.8297,-1.7942,-1.7682,-1.7923,0.0,0.0,0.0,-1.9639,-2.0194,-1.8989,-1.7599,-1.6126,0.0,0.0,-1.2871,-1.2522,-1.3048,-1.4485,-1.4604,-1.537,-1.7144,-1.7202,-1.7864,-1.9366,-1.7981,-1.7805,-1.8908,-1.8938,-1.8601,-1.8075,-1.8404,-1.839,-1.8089,-1.8711,-1.8965,-1.8978,-1.9252,-1.9424,0.0,-1.9424,-1.9424,-1.9424,-1.9424,-1.9424,-1.9424,-1.9424,-1.9424,-1.9424,-1.9424,-1.9424,-1.9424,-1.9424,-1.9424,-1.9424,-1.9424,-1.9424,-1.9424,-1.9424,-1.9424,-1.9424,-1.9424,-1.9424,-1.9424,-1.9424,-1.9424,-1.9424,-1.9424,-1.9573,-1.976,-1.976,-1.9973,-2.016,-2.0187,-2.0133,-2.0201,-2.0227,-2.0173,-2.0173,-2.0173,-2.0468,-2.0621,-2.0601,-2.0381,-2.0341,-2.0615,-2.0661,-2.0788,-2.1049,-2.1096,-2.1109,-2.1109,-2.1109,-2.1109,-2.1109,-2.1109,-2.1243,-2.1574,-2.1601,-2.1755,-2.1944,-2.1977,-2.2124,-2.0802,-2.0975,-2.1109,-2.1109,-2.0668,-2.0173,-2.0173,0.0,-1.8631,-1.8517,-1.8103,-1.7729,-1.7602,-1.7836,-1.8029,-1.8203,-1.8718,0.0,-1.9653,-1.8487,-1.7686,-1.8022,-1.5426,0.0,0.0,0.0,-1.102,-1.1675,-1.2633,-1.3411,-1.3986,-1.4996,-1.5836,-1.6396,-1.6617,-1.6902,-1.7322,-1.8027,-1.8222,-1.7995,-1.8163,-1.8109,-1.8009,-1.8601,-1.8925,-1.8938,-1.9239,-1.9424,0.0,-1.9424,-1.9424,-1.9424,-1.9424,-1.9424,-1.9424,-1.9424,-1.9424,-1.9424,-1.9424,-1.9424,-1.9424,-1.9424,-1.9424,-1.9424,-1.9424,-1.9424,-1.9424,-1.9424,-1.9424,-1.9424,-1.9424,-1.9424,-1.9424,-1.9424,-1.9499,-1.9626,-1.9626,-1.9853,-2.006,-2.006,-2.0154,-2.0287,-2.0468,-2.0501,-2.0561,-2.0735,-2.0762,-2.0762,-2.0762,-2.0862,-2.0935,-2.0935,-2.0835,-2.0808,-2.0929,-2.0935,-2.0989,-2.1102,-2.1109,-2.1109,-2.1109,-2.1109,-2.1109,-2.1109,-2.1289,-2.1501,-2.1614,-2.1904,-2.2131,-2.2251,-2.2432,-2.2579,-2.0718,-2.0889,-2.1109,-2.1109,-2.0668,-2.0173,0.0,-1.9332,-1.849,-1.849,-1.8009,-1.7582,-1.7582,-1.7762,-1.7856,-1.7856,-1.8275,-1.8798,-1.9185,-1.8464,-1.8001,0.0,0.0,-1.3148,0.0,-1.114,-0.9802,-0.9761,-1.0771,-1.1343,-1.1227,-1.2393,-1.3454,-1.428,-1.4855,-1.5427,-1.6186,-1.6965,-1.7551,-1.7856,-1.7856,-1.7856,-1.7876,-1.8524,-1.8798,-1.8818,-1.9199,-1.9424,0.0,-1.9424,-1.9424,-1.9424,-1.9424,-1.9424,-1.9424,-1.9424,-1.9424,-1.9424,-1.9424,-1.9424,-1.9424,-1.9424,-1.9424,-1.9424,-1.9424,-1.9424,-1.9424,-1.9424,-1.9424,-1.9424,-1.9424,-1.9424,-1.9424,-1.9424,-1.9586,-1.98,-1.98,-2.01,-2.0361,-2.0361,-2.0434,-2.0561,-2.0768,-2.0802,-2.0875,-2.1076,-2.1109,-2.1109,-2.1109,-2.1109,-2.1109,-2.1109,-2.1109,-2.1109,-2.1109,-2.1109,-2.1109,-2.1109,-2.1109,-2.1109,-2.1109,-2.1196,-2.1236,-2.1236,-2.153,-2.1789,-2.181,-2.2218,-2.2465,-2.2552,-2.2766,-2.2928,-2.1012,-2.0889,-2.1109,-2.1109,-2.0668,-2.0173,-2.0173,-1.9332,-1.849,-1.849,-1.8009,-1.7582,-1.7582,-1.7589,-1.7589,-1.7589,-1.7849,0.0,-1.8844,-1.9185,-1.8276,0.0,0.0,-1.363,-1.0197,-0.9822,-0.9764,-0.9622,-0.9612,0.0,-0.9449,-0.9442,-1.0866,-1.3978,-1.2632,-1.3154,-1.5865,-1.592,-1.6499,-1.7589,-1.7589,-1.7589,-1.7609,-1.8217,-1.8497,-1.8531,-1.9112,-1.9424,0.0,-1.9424,-1.9424,-1.9424,-1.9424,-1.9424,-1.9424,-1.9424,-1.9424,-1.9424,-1.9424,-1.9424,-1.9424,-1.9424,-1.9424,-1.9424,-1.9424,-1.9424,-1.9424,-1.9424,-1.9424,-1.9424,-1.9424,-1.9424,-1.9424,-1.9424,-1.9586,-1.98,-1.98,-2.0261,-2.0675,-2.0675,-2.0902,-2.1102,-2.1109,-2.1109,-2.1109,-2.1109,-2.1109,-2.1109,-2.1109,-2.1109,-2.1109,-2.1109,-2.1109,-2.1109,-2.1109,-2.1109,-2.1109,-2.1109,-2.1109,-2.1109,-2.1109,-2.139,-2.1614,-2.1614,-2.1837,-2.2124,-2.2412,-2.2412,-2.2572,-2.2859,-2.2928,-2.2928,-2.0405,-2.0287,-2.0508,-2.0508,-2.0221,-1.9887,-1.9686,-1.9045,-1.843,-1.823,-1.7862,-1.7582,-1.7582,-1.7582,-1.7655,-1.7862,-1.815,-1.8484,0.0,0.0,0.0,-1.6482,-1.4461,-1.222,0.0,0.0,-0.9764,-0.9618,-0.9608,-0.9496,-0.9296,-0.9282,-0.9731,-1.0738,-1.2201,-1.3326,-1.4131,-1.6083,-1.7238,-1.7582,-1.7582,-1.7582,-1.7595,-1.8003,-1.8135,-1.8155,-1.8597,-1.8771,-1.8784,-1.8978,-1.9065,-1.9085,-1.9292,-1.9424,-1.9424,-1.9424,-1.9424,-1.9424,-1.9424,-1.9424,-1.9424,-1.9424,-1.9424,-1.9424,-1.9424,-1.9424,-1.9424,-1.9424,-1.9424,-1.9424,-1.9424,-1.9424,-1.9477,-1.9619,-1.9887,-2.0154,-2.0354,-2.0702,-2.0969,-2.0969,-2.1049,-2.1109,-2.1109,-2.1109,-2.1109,-2.1109,-2.1109,-2.1109,-2.1109,-2.1109,-2.1109,-2.1109,-2.1109,-2.1109,-2.1109,-2.1109,-2.1109,-2.1109,-2.1109,-2.1203,-2.1403,-2.1568,-2.1715,-2.1844,-2.2131,-2.2331,-2.2418,-2.2619,-2.2772,-2.2928,-2.2928,-2.2928,-1.9859,-1.976,-2.004,-1.9933,-1.9686,-1.9419,-1.9239,-1.8744,-1.827,-1.8029,-1.7802,-1.7582,-1.7582,-1.7582,-1.7689,-1.7942,-1.8203,-1.8464,0.0,0.0,0.0,-1.5295,0.0,0.0,0.0,-0.9822,-0.9737,-0.9537,-0.9523,-0.9391,-0.9089,-0.9072,-0.9072,-0.9072,-1.0838,-1.2266,-1.327,-1.5097,-1.6499,-1.7582,-1.7582,-1.7582,-1.7595,-1.7903,-1.7995,-1.8009,-1.8364,-1.849,0.0,-1.8804,-1.8925,-1.8951,-1.9252,-1.9424,-1.9424,-1.9424,-1.9424,-1.9424,-1.9424,-1.9424,-1.9424,-1.9424,-1.9424,-1.9424,-1.9424,-1.9424,-1.9424,-1.9424,-1.9424,-1.9424,-1.9424,-1.9424,-1.9497,-1.9733,-2.002,-2.0314,-2.0615,-2.0902,-2.1109,-2.1109,-2.1109,-2.1109,-2.1109,-2.1109,-2.1109,-2.1109,-2.1109,-2.1109,-2.1109,-2.1109,-2.1109,-2.1109,-2.1109,-2.1109,-2.1109,-2.1109,-2.1109,-2.1109,-2.1216,-2.1363,-2.1608,-2.1764,-2.1964,-2.2144,-2.2438,-2.2585,-2.2585,-2.2772,-2.2928,-2.2928,-2.2928,-2.2928,0.0,-1.931,-1.9639,-1.9372,-1.9098,-1.8885,-1.8865,-1.8382,0.0,-1.7962,-1.7782,-1.7582,-1.7582,-1.7582,-1.7689,-1.7942,-1.7995,0.0,0.0,-1.724,0.0,0.0,-1.0721,0.0,-0.9822,-0.9822,-0.9696,-0.9405,-0.9381,-0.9252,-0.8898,-0.8885,-0.8885,-0.8885,-0.8885,-1.0296,-1.3264,-1.3372,-1.4829,-1.7582,-1.7582,-1.7582,-1.7595,-1.7883,-1.7962,0.0,-1.831,-1.8424,-1.845,-1.8744,-1.8871,-1.8918,-1.9219,-1.941,-1.9424,-1.9424,-1.9424,-1.9424,-1.9424,-1.9424,-1.9424,-1.9424,-1.9424,-1.9424,-1.9424,-1.9424,-1.9424,-1.9424,-1.9424,-1.9424,-1.9424,-1.9424,-1.9446,-1.976,-2.004,-2.0321,-2.0641,-2.0915,-2.1109,-2.1109,-2.1109,-2.1109,-2.1109,-2.1109,-2.1109,-2.1109,-2.1109,-2.1109,-2.1109,-2.1109,-2.1109,-2.1109,-2.1129,-2.1142,-2.1142,-2.1122,-2.1116,-2.1136,-2.1403,-2.1635,-2.1681,-2.2131,-2.2432,-2.2452,-2.2719,-2.2928,-2.2928,-2.2928,-2.2928,-2.2928,-2.2928,-2.2928,-1.9903,0.0,-1.8784,-1.8711,-1.8644,-1.8531,0.0,-1.8089,-1.7922,-1.7742,-1.7629,-1.7582,-1.7582,-1.7582,-1.7689,-1.7942,0.0,-1.7799,-1.7149,0.0,0.0,-1.0596,-1.0001,-0.9822,-0.9822,-0.9822,-0.9696,-0.9405,-0.9381,-0.9252,-0.8898,-0.8885,-0.8885,-0.8885,-0.8885,-1.0296,-1.3264,-1.4395,-1.5796,-1.7582,-1.7582,-1.7582,-1.7589,-1.7655,-1.7695,-1.7695,-1.7769,-1.7796,-1.7816,-1.8123,-1.8335,-1.8617,-1.8918,-1.9165,-1.9424,-1.9424,-1.9424,-1.9424,-1.9424,-1.9424,-1.9424,-1.9424,-1.9424,-1.9424,-1.9424,-1.9424,-1.9424,-1.9424,-1.9424,-1.9424,-1.9424,-1.9424,-1.9499,-2.0007,-2.012,-2.0374,-2.0895,-2.1062,-2.1109,-2.1109,-2.1109,-2.1109,-2.1109,-2.1109,-2.1109,-2.1109,-2.1109,-2.1109,-2.1109,-2.1109,-2.1109,-2.1109,-2.1309,-2.145,-2.145,-2.1236,-2.1203,-2.1501,-2.1581,-2.175,-2.2198,-2.2345,-2.2525,-2.2752,-2.2894,-2.2928,-2.2928,-2.2928,-2.2928,-2.2928,-2.2928,-2.2928,-2.0034,-1.9078,-1.8457,-1.8323,-1.839,-1.841,-1.8062,-1.7995,-1.7902,-1.7649,0.0,-1.7582,-1.7582,-1.7582,-1.7689,0.0,-1.7488,0.0,0.0,0.0,-1.1615,-1.0001,-0.9822,-0.9822,0.0,-0.9822,-0.9727,-0.9503,-0.9422,-0.9279,-0.9049,-0.8974,-0.8885,-0.8885,-0.8885,-1.0296,-1.3264,-1.4073,-1.5524,-1.7582,-1.7582,-1.7582,-1.7582,-1.7582,-1.7582,-1.7582,-1.7582,-1.7582,-1.7609,-1.7862,-1.8089,-1.833,-1.8758,-1.9025,-1.9178,-1.9319,-1.9424,-1.9424,-1.9424,-1.9424,-1.9424,-1.9424,-1.9424,-1.9424,-1.9424,-1.9424,-1.9424,-1.9424,-1.9424,-1.9424,-1.9424,-1.9424,-1.9512,-2.0094,-2.0173,-2.0394,-2.0982,-2.1109,-2.1109,-2.1109,-2.1109,-2.1109,-2.1109,-2.1109,-2.1109,-2.1109,-2.1109,-2.1109,-2.1109,-2.1109,-2.1162,-2.1296,-2.1521,-2.1675,-2.1737,-2.1603,-2.1583,-2.1737,-2.1877,-2.2091,-2.2405,-2.2545,-2.2699,-2.2928,-2.2928,-2.2928,-2.2928,-2.2928,-2.2928,-2.2928,-2.2928,-2.2939,-2.0042,-1.9113,-1.8424,-1.8069,-1.8237,-1.8357,-1.8049,0.0,0.0,0.0,0.0,0.0,0.0,-1.7622,0.0,0.0,0.0,0.0,-1.2292,-1.192,-1.1318,-0.994,-0.9822,0.0,-0.9822,-0.9822,-0.9764,-0.9618,-0.9466,-0.9313,-0.9217,-0.9018,-0.8885,-0.8885,-0.9099,-1.0566,-1.3264,-1.3318,-1.4776,-1.7582,-1.7582,-1.7582,-1.7582,-1.7582,-1.7582,-1.7582,0.0,0.0,-1.7609,-1.7862,-1.8015,-1.8115,-1.8655,-1.8951,-1.9025,-1.9279,-1.9424,-1.9424,-1.9424,-1.9424,-1.9424,-1.9424,-1.9424,-1.9424,-1.9424,-1.9424,-1.9424,-1.9424,-1.9424,-1.9424,-1.9424,-1.9457,-1.9573,-2.0107,-2.0267,-2.0448,-2.0995,-2.1109,-2.1109,-2.1109,-2.1109,-2.1109,-2.1109,-2.1109,-2.1109,-2.1109,-2.1109,-2.1122,-2.1169,-2.1176,-2.1289,-2.1655,-2.1722,-2.1784,-2.2031,-2.2098,-2.2118,-2.2118,-2.2305,-2.2438,-2.2485,-2.2732,-2.2928,-2.2928,-2.2928,-2.2928,-2.2928,-2.2928,-2.2886,-2.2933,-2.2933,-2.31,-2.0331,-1.9283,-1.8424,-1.8069,-1.8029,-1.8049,-1.8002,-1.7842,0.0,0.0,0.0,0.0,0.0,-1.7796,-1.7544,0.0,0.0,-1.2279,0.0,0.0,-1.0061,-0.9819,0.0,-0.9822,-0.9822,-0.9822,-0.9764,-0.9618,-0.9466,-0.9313,-0.9217,-0.9018,-0.8885,-0.8885,-1.0131,-1.1592,-1.3264,-1.3318,-1.4776,-1.7582,-1.7582,-1.7582,-1.7582,-1.7582,-1.7582,-1.7582,0.0,-1.7582,-1.7609,-1.7862,-1.8196,-1.8457,-1.8791,-1.9078,-1.9305,-1.941,-1.9424,-1.9424,-1.9424,-1.9424,-1.9424,-1.9424,-1.9424,-1.9424,-1.9424,-1.9424,-1.9424,-1.9424,-1.9424,-1.9424,-1.9424,-1.9553,-1.982,-2.0154,-2.0428,-2.0702,-2.1036,-2.1109,-2.1109,-2.1109,-2.1109,-2.1109,-2.1109,-2.1109,-2.1109,-2.1109,-2.1109,-2.1203,-2.1521,-2.1547,-2.1661,-2.1891,-2.2138,-2.2305,-2.2352,-2.2585,-2.2726,-2.2726,-2.2532,-2.2532,-2.2786,-2.2839,-2.2928,-2.2928,-2.2928,-2.2928,-2.2928,-2.2928,-2.2999,-2.3253,-2.3253,-2.3414,-2.1282,-1.9852,-1.8497,-1.8517,-1.8468,-1.8422,-1.8323,-1.805,-1.7789,0.0,0.0,0.0,0.0,0.0,-1.7261,-1.5105,0.0,-1.1535,-1.0717,-1.0144,-0.9822,0.0,0.0,-0.9822,-0.9822,-0.9822,-0.9795,-0.973,-0.951,-0.9351,-0.9337,-0.9062,-0.8885,-0.8885,-1.0351,-1.181,-1.3264,-1.4073,-1.5524,-1.7582,-1.7582,-1.7582,-1.7582,-1.7582,-1.7582,-1.7582,0.0,-1.7582,-1.7609,-1.7862,-1.8075,-1.8297,-1.8751,-1.9005,-1.9145,-1.9305,-1.9424,-1.9424,-1.9424,-1.9424,-1.9424,-1.9424,-1.9424,-1.9424,-1.9424,-1.9424,-1.9424,-1.9424,-1.9424,-1.9406,-1.9559,-1.97,-1.9913,-2.0361,-2.0575,-2.0755,-2.1049,-2.1109,-2.1109,-2.1109,-2.1109,-2.1109,-2.1109,-2.1109,-2.1109,-2.1109,-2.1243,-2.1396,-2.1601,-2.1755,-2.1897,-2.2191,-2.2338,-2.2485,-2.2645,-2.2786,-2.2928,-2.2928,-2.2732,-2.2719,-2.2921,-2.2928,-2.2928,-2.2928,-2.2928,-2.2928,-2.2928,-2.2928,-2.3026,-2.3327,-2.3327,-2.3567,-2.1238,-1.9793,-1.8457,-1.8751,-1.8824,-1.8784,-1.8631,-1.831,-1.7942,0.0,0.0,0.0,0.0,-1.6832,0.0,-1.3814,-1.2255,-1.0952,-0.9775,-0.9751,-0.9822,-0.9822,-0.9822,-0.9822,-0.9822,-0.9822,-0.9805,-0.9774,-0.953,-0.9364,-0.933,-0.9079,-0.9047,-0.9427,-1.0836,-1.2295,-1.3804,-1.5204,-1.6493,-1.7582,-1.7582,-1.7582,-1.7582,-1.7582,-1.7582,-1.7582,-1.7582,-1.7582,-1.7609,-1.7989,-1.8095,-1.8155,-1.8798,-1.9025,-1.9058,-1.9285,-1.9424,-1.9424,-1.9424,-1.9424,-1.9424,-1.9424,-1.9424,-1.9424,-1.9424,-1.9424,-1.9424,-1.9424,-1.9477,-1.9519,-1.974,-1.99,-2.012,-2.0568,-2.0728,-2.0842,-2.1062,-2.1109,-2.1109,-2.1109,-2.1109,-2.1109,-2.1109,-2.1109,-2.1129,-2.1203,-2.141,-2.1668,-2.1802,-2.1951,-2.2198,-2.2492,-2.2525,-2.2612,-2.2914,-2.2928,-2.2928,-2.2928,-2.2928,-2.2928,-2.2928,-2.2928,-2.2928,-2.2928,-2.2928,-2.2928,-2.2928,-2.2933,-2.3126,-2.3434,-2.35,-2.3808,-1.89,-1.8164,-1.8095,-1.845,-1.8524,-1.8591,-1.8838,-1.8395,-1.8062,-1.8377,0.0,0.0,0.0,-1.3801,-1.2037,-1.2294,-1.0993,-0.9926,-0.9805,0.0,-0.9822,-0.9822,-0.9822,-0.9822,-0.9822,-0.9822,-0.9768,-0.9635,-0.9473,-0.932,-0.9234,-0.9022,-0.9537,-1.0891,-1.2349,-1.3804,-1.5257,-1.6711,-1.7477,-1.7582,-1.7582,-1.7582,-1.7582,-1.7582,-1.7582,-1.7582,-1.7582,-1.7582,-1.7629,-1.8217,-1.8457,-1.8517,-1.9105,-1.9332,-1.9397,-1.9417,-1.9424,-1.9424,-1.9424,-1.9424,-1.9424,-1.9424,-1.9424,-1.9424,-1.9424,-1.9424,-1.9424,-1.9424,-1.9559,-1.9773,-1.9793,-2.0207,-2.0628,-2.0668,-2.0882,-2.1082,-2.1109,-2.1109,-2.1109,-2.1109,-2.1109,-2.1109,-2.1109,-2.1109,-2.1203,-2.1541,-2.1601,-2.175,-2.2291,-2.2372,-2.2498,-2.2799,-2.2826,-2.2839,-2.2928,-2.2928,-2.2928,-2.2928,-2.2928,-2.2928,-2.2928,-2.2928,-2.2928,-2.2928,-2.2928,-2.2928,-2.2928,-2.3153,-2.3447,-2.3748,-2.4015,-2.4309,-1.9721,-1.8669,-1.8062,-1.8417,-1.835,-1.829,-1.8584,-1.8282,-1.8075,-1.843,-1.8404,0.0,0.0,0.0,-1.291,-1.2191,-1.0771,-0.9822,-0.9822,-0.9822,-0.9822,-0.9822,-0.9822,-0.9822,-0.9822,-0.9741,-0.9666,-0.9612,-0.9381,-0.9272,-0.9214,-0.9018,-0.9592,-1.1051,-1.2512,-1.3965,-1.5417,-1.6876,-1.7582,-1.7582,-1.7582,-1.7582,-1.7582,-1.7582,-1.7582,-1.7582,-1.7582,-1.7582,-1.7629,-1.8237,-1.849,-1.8551,-1.9138,-1.9424,-1.9424,-1.9424,-1.9424,-1.9424,-1.9424,-1.9424,-1.9424,-1.9424,-1.9424,-1.9424,-1.9424,-1.9424,-1.9406,-1.9586,-1.9846,-2.0067,-2.0067,-2.0374,-2.0722,-2.0902,-2.1029,-2.1109,-2.1109,-2.1109,-2.1109,-2.1109,-2.1109,-2.1109,-2.1109,-2.1109,-2.1209,-2.1574,-2.171,-2.1964,-2.2365,-2.2579,-2.2739,-2.2921,-2.2928,-2.2928,-2.2928,-2.2928,-2.2928,-2.2928,-2.2928,-2.2928,-2.2928,-2.2928,-2.2928,-2.2928,-2.2928,-2.2959,-2.3153,-2.3267,-2.3574,-2.4042,-2.4155,-2.4356,-1.9747,-1.8624,-1.7949,-1.815,-1.805,-1.8003,-1.8397,-1.833,-1.8297,-1.8691,-1.7941,-1.6704,-1.5068,0.0,0.0,0.0,-1.0437,-0.9822,-0.9822,-0.9822,-0.9822,-0.9822,-0.9822,-0.9802,-0.9758,-0.9666,-0.9568,-0.9473,-0.9326,-0.919,-0.9086,-0.9429,-1.0296,-1.1755,-1.321,-1.4663,-1.6062,-1.7094,-1.7582,-1.7582,-1.7582,-1.7582,-1.7582,-1.7582,-1.7582,-1.7582,-1.7582,-1.7582,-1.7622,-1.8136,-1.8457,-1.8677,-1.9172,-1.9424,-1.9424,-1.9424,-1.9424,-1.9424,-1.9424,-1.9424,-1.9424,-1.9424,-1.9424,-1.9424,-1.9424,-1.9424,-1.9491,-1.972,-2.0007,-2.0193,-2.0347,-2.0595,-2.0862,-2.1062,-2.1109,-2.1109,-2.1109,-2.1109,-2.1109,-2.1109,-2.1109,-2.1109,-2.1109,-2.1109,-2.1243,-2.163,-2.1857,-2.2124,-2.2505,-2.2739,-2.2928,-2.2928,-2.2928,-2.2928,-2.2928,-2.2928,-2.2928,-2.2928,-2.2928,-2.2928,-2.2928,-2.2928,-2.2928,-2.2928,-2.2928,-2.3013,-2.3327,-2.342,-2.3721,-2.4209,-2.4295,-2.4442,-1.8349,-1.7582,-1.7582,-1.7582,-1.7589,-1.7742,-1.835,-1.849,-1.8657,-1.9245,-1.6716,-1.3795,-1.1861,-1.049,0.0,-0.9608,-0.973,-0.9822,-0.9822,-0.9822,-0.9822,-0.9822,-0.9819,-0.9764,-0.9625,-0.9605,-0.9479,-0.9231,-0.9207,-0.9089,-0.8892,-1.0296,-1.1755,-1.3264,-1.4663,-1.6121,-1.7582,-1.7582,-1.7582,-1.7582,-1.7582,-1.7582,-1.7582,-1.7582,-1.7582,-1.7582,-1.7582,-1.7582,-1.7609,-1.7869,-1.8342,-1.8951,-1.9252,-1.9424,-1.9424,-1.9424,-1.9424,-1.9424,-1.9424,-1.9424,-1.9424,-1.9424,-1.9424,-1.9424,-1.9424,-1.9424,-1.9491,-1.972,-2.0013,-2.0301,-2.0601,-2.0895,-2.1109,-2.1109,-2.1109,-2.1109,-2.1109,-2.1109,-2.1109,-2.1109,-2.1109,-2.1109,-2.1109,-2.1109,-2.1309,-2.1897,-2.1984,-2.2198,-2.2854,-2.2928,-2.2928,-2.2928,-2.2928,-2.2928,-2.2928,-2.2928,-2.2928,-2.2928,-2.2928,-2.2928,-2.2928,-2.2928,-2.2928,-2.2928,-2.2928,-2.3013,-2.3333,-2.3627,-2.3921,-2.4215,-2.4502,-2.4636,-1.8349,-1.7582,0.0,-1.7582,0.0,0.0,0.0,-1.849,0.0,0.0,-1.6024,-1.3962,-1.2175,-1.1596,0.0,-0.9804,-0.973,-0.9822,-0.9822,-0.9822,-0.9822,-0.9822,-0.9734,-0.9656,-0.9612,-0.9415,-0.9309,-0.9217,-0.9059,-0.8984,-0.8885,-1.0296,-1.1755,-1.3264,-1.4663,-1.6121,-1.7582,-1.7582,-1.7582,-1.7582,-1.7582,-1.7582,-1.7582,-1.7582,-1.7582,-1.7582,-1.7582,-1.7582,-1.7622,-1.8143,-1.8584,-1.8951,-1.9252,-1.9424,-1.9424,-1.9424,-1.9424,-1.9424,-1.9424,-1.9424,-1.9424,-1.9424,-1.9424,-1.9424,-1.9424,-1.9424,-1.9472,-1.9967,-2.0167,-2.0347,-2.0848,-2.1042,-2.1109,-2.1109,-2.1109,-2.1109,-2.1109,-2.1109,-2.1109,-2.1109,-2.1109,-2.1109,-2.1109,-2.1109,-2.1309,-2.1897,-2.1984,-2.2198,-2.2854,-2.2928,-2.2928,-2.2928,-2.2928,-2.2928,-2.2928,-2.2928,-2.2928,-2.2928,-2.2928,-2.2928,-2.2928,-2.2928,-2.2928,-2.2928,-2.2928,-2.312,-2.3641,-2.3728,-2.4022,-2.4509,-2.4596,-2.4636,-1.8349,-1.7582,0.0,-1.7736,-1.7856,-1.7932,-1.7757,0.0,0.0,0.0,-1.4297,-1.3108,-1.1386,-1.1144,0.0,-0.9728,-0.9642,-0.9717,-0.9656,-0.9646,-0.9646,-0.9646,-0.9571,-0.9496,-0.9435,-0.932,-0.9187,-0.9072,-0.8988,-0.9154,-0.9754,-1.116,-1.262,-1.4073,-1.5524,-1.6717,-1.7582,-1.7582,-1.7582,-1.7582,-1.7582,-1.7582,-1.7582,-1.7582,-1.7582,-1.7582,-1.7582,-1.7582,-1.7629,-1.8237,-1.8597,-1.8791,-1.9205,-1.9424,-1.9424,-1.9424,-1.9424,-1.9424,-1.9424,-1.9424,-1.9424,-1.9424,-1.9424,-1.9424,-1.9424,-1.9424,-1.9492,-2.0067,-2.0173,-2.0368,-2.0955,-2.1109,-2.1109,-2.1109,-2.1109,-2.1109,-2.1109,-2.1109,-2.1109,-2.1109,-2.1109,-2.1109,-2.1109,-2.1109,-2.1309,-2.1897,-2.2184,-2.2458,-2.2819,-2.2928,-2.2928,-2.2928,-2.2928,-2.2928,-2.2928,-2.2928,-2.2928,-2.2928,-2.2928,-2.2928,-2.2928,-2.2928,-2.2928,-2.2928,-2.2928,-2.3229,-2.3774,-2.3774,-2.4068,-2.4636,-2.4636,-2.4636,-1.8349,-1.7582,-1.7655,-1.7916,-1.792,0.0,-1.6561,-1.6442,-1.572,-1.2808,0.0,-1.1511,-0.9888,-0.9734,-0.973,-0.9449,-0.9517,-0.9557,-0.9401,-0.9381,-0.9381,-0.9381,-0.9367,-0.9306,-0.9224,-0.9197,-0.9079,-0.8895,-0.8885,-0.9533,-1.0996,-1.2512,-1.3965,-1.5364,-1.6823,-1.7582,-1.7582,-1.7582,-1.7582,-1.7582,-1.7582,-1.7582,-1.7582,-1.7582,-1.7582,-1.7582,-1.7582,-1.7582,-1.7622,-1.821,-1.8464,-1.8544,-1.9105,-1.9345,-1.9424,-1.9424,-1.9424,-1.9424,-1.9424,-1.9424,-1.9424,-1.9424,-1.9424,-1.9424,-1.9424,-1.9424,-1.9492,-2.0067,-2.0173,-2.0368,-2.0955,-2.1109,-2.1109,-2.1109,-2.1109,-2.1109,-2.1109,-2.1109,-2.1109,-2.1109,-2.1109,-2.1109,-2.1109,-2.1109,-2.1309,-2.1897,-2.2465,-2.2901,-2.2928,-2.2928,-2.2928,-2.2928,-2.2928,-2.2928,-2.2928,-2.2928,-2.2928,-2.2928,-2.2928,-2.2928,-2.2928,-2.2928,-2.2928,-2.2928,-2.2928,-2.3146,-2.3728,-2.3754,-2.4055,-2.4596,-2.4623,-2.4636,-1.8349,-1.7582,0.0,-1.7916,-1.7425,-1.6498,-1.529,-1.4089,-1.3048,-1.2333,-1.1197,-1.0229,-0.9842,-0.9798,-0.9764,-0.9588,-0.9588,-0.9557,-0.9401,-0.9381,-0.9381,-0.9381,-0.9333,-0.9248,-0.9214,-0.9052,-0.8974,-0.8885,-0.8885,-0.9533,-1.0996,-1.2512,-1.3965,-1.5364,-1.6823,-1.7582,-1.7582,-1.7582,-1.7582,-1.7582,-1.7582,-1.7582,-1.7582,-1.7582,-1.7582,-1.7582,-1.7582,-1.7582,-1.7609,-1.7989,-1.8277,-1.8524,-1.8885,-1.9158,-1.9424,-1.9424,-1.9424,-1.9424,-1.9424,-1.9424,-1.9424,-1.9424,-1.9424,-1.9424,-1.9424,-1.9424,-1.9492,-2.0067,-2.0173,-2.0368,-2.0955,-2.1109,-2.1109,-2.1109,-2.1109,-2.1109,-2.1109,-2.1109,-2.1109,-2.1109,-2.1109,-2.1109,-2.1109,-2.1109,-2.1309,-2.1897,-2.2285,-2.2599,-2.2901,-2.2928,-2.2928,-2.2928,-2.2928,-2.2928,-2.2928,-2.2928,-2.2928,-2.2928,-2.2928,-2.2928,-2.2928,-2.2928,-2.2928,-2.2928,-2.2928,-2.3046,-2.342,-2.3654,-2.3955,-2.4302,-2.4529,-2.4636,-1.9117,-1.8094,0.0,-1.8143,0.0,-1.7338,-1.5107,-1.3944,-1.2933,-1.1378,-1.0358,-0.9822,-0.9822,-0.9768,-0.9673,-0.9523,-0.9439,-0.9337,-0.9191,-0.9167,-0.9167,-0.9167,-0.91,-0.9052,-0.9052,-0.8984,-0.8885,-0.8885,-0.9533,-1.0621,-1.2077,-1.3534,-1.499,-1.6393,-1.7199,-1.7582,-1.7582,-1.7582,-1.7582,-1.7582,-1.7582,-1.7582,-1.7582,-1.7582,-1.7582,-1.7582,-1.7582,-1.7582,-1.7609,-1.7862,-1.8082,-1.8317,-1.8758,-1.9018,-1.9172,-1.9319,-1.9424,-1.9424,-1.9424,-1.9424,-1.9424,-1.9424,-1.9424,-1.9424,-1.9424,-1.9424,-1.9492,-2.0067,-2.0173,-2.0368,-2.0955,-2.1109,-2.1109,-2.1109,-2.1109,-2.1109,-2.1109,-2.1109,-2.1109,-2.1109,-2.1109,-2.1109,-2.1109,-2.1229,-2.147,-2.1917,-2.2231,-2.2525,-2.2894,-2.2928,-2.2928,-2.2928,-2.2928,-2.2928,-2.2928,-2.2928,-2.2928,-2.2928,-2.2928,-2.2928,-2.2928,-2.2928,-2.2928,-2.2928,-2.2928,-2.3013,-2.3327,-2.3627,-2.3921,-2.4209,-2.4502,-2.4636,-1.9981,-1.8688,-1.7856,-1.8364,-1.8754,0.0,-1.5257,-1.4366,-1.3347,-1.0422,-0.9822,-0.9822,-0.9822,-0.9703,-0.9557,-0.9405,-0.9309,-0.9103,-0.8902,-0.8885,-0.8885,-0.8885,-0.8885,-0.8885,-0.8885,-0.8885,-0.8992,-0.9265,-1.0402,-1.186,-1.3588,-1.477,-1.6068,-1.7529,-1.7582,-1.7582,-1.7582,-1.7582,-1.7582,-1.7582,-1.7582,-1.7582,-1.7582,-1.7582,-1.7582,-1.7582,-1.7582,-1.7582,-1.7602,-1.7862,-1.7942,-1.8049,-1.8582,-1.8878,-1.8958,-1.9259,-1.9424,-1.9424,-1.9424,-1.9424,-1.9424,-1.9424,-1.9424,-1.9424,-1.9424,-1.9424,-1.9492,-2.0067,-2.0173,-2.0368,-2.0955,-2.1109,-2.1109,-2.1109,-2.1109,-2.1109,-2.1109,-2.1109,-2.1109,-2.1109,-2.1109,-2.1109,-2.1109,-2.1309,-2.159,-2.1937,-2.2191,-2.2465,-2.2819,-2.2928,-2.2928,-2.2928,-2.2928,-2.2928,-2.2928,-2.2928,-2.2928,-2.2928,-2.2928,-2.2928,-2.2928,-2.2928,-2.2928,-2.2928,-2.2928,-2.2986,-2.3247,-2.3601,-2.3895,-2.4142,-2.4476,-2.4636,-1.9981,0.0,-1.839,0.0,-1.7932,-1.685,0.0,0.0,-1.1976,0.0,-0.9822,-0.9822,-0.9822,-0.9703,-0.9557,-0.9405,-0.9309,-0.9103,-0.8902,-0.8885,-0.8885,-0.8885,-0.8885,-0.8885,-0.8885,-0.8885,-0.9427,-1.0731,-1.1,-1.2295,-1.4984,-1.531,-1.6068,-1.7529,-1.7582,-1.7582,-1.7582,-1.7582,-1.7582,-1.7582,-1.7582,-1.7582,-1.7582,-1.7582,-1.7582,-1.7582,-1.7582,-1.7582,-1.7589,-1.7629,-1.7802,-1.8029,-1.8417,-1.8704,-1.8958,-1.9259,-1.9424,-1.9424,-1.9424,-1.9424,-1.9424,-1.9424,-1.9424,-1.9424,-1.9424,-1.9424,-1.9492,-2.0067,-2.0173,-2.0368,-2.0955,-2.1109,-2.1109,-2.1109,-2.1109,-2.1109,-2.1109,-2.1109,-2.1109,-2.1109,-2.1109,-2.1109,-2.1109,-2.1142,-2.1356,-2.1904,-2.2017,-2.2238,-2.2861,-2.2928,-2.2928,-2.2928,-2.2928,-2.2928,-2.2928,-2.2928,-2.2928,-2.2928,-2.2928,-2.2928,-2.2928,-2.2928,-2.2928,-2.2928,-2.2928,-2.2954,-2.2926,-2.3494,-2.3794,-2.3841,-2.4382,-2.4636,-2.0133,-1.8936,-1.827,0.0,-1.8277,-1.7679,-1.6287,-1.4718,-1.3112,-1.1499,-1.0418,-0.9822,-0.9822,-0.9635,-0.9459,-0.9391,-0.9184,-0.9011,-0.8892,-0.8885,-0.8885,-0.8885,-0.8885,-0.8885,-0.8885,-0.9644,-1.0402,-1.1051,-1.2615,-1.4067,-1.531,-1.6174,-1.6929,-1.7582,-1.7582,-1.7582,-1.7582,-1.7582,-1.7582,-1.7582,-1.7582,-1.7582,-1.7582,-1.7582,-1.7582,-1.7582,-1.7582,-1.7582,-1.7582,-1.7582,-1.7662,-1.7836,-1.831,-1.8571,-1.8738,-1.9199,-1.9424,-1.9424,-1.9424,-1.9424,-1.9424,-1.9424,-1.9424,-1.9424,-1.9424,-1.9424,-1.9492,-2.0067,-2.0173,-2.0368,-2.0955,-2.1109,-2.1109,-2.1109,-2.1109,-2.1109,-2.1109,-2.1109,-2.1109,-2.1109,-2.1109,-2.1109,-2.1109,-2.1109,-2.1309,-2.1897,-2.1984,-2.2198,-2.2854,-2.2928,-2.2928,-2.2928,-2.2928,-2.2928,-2.2928,-2.2928,-2.2928,-2.2928,-2.2928,-2.2928,-2.2928,-2.2928,-2.2928,-2.2928,-2.2928,-2.2928,-2.2928,-2.3544,-2.3774,-2.3788,-2.4369,-2.4636,0.0,0.0,-1.8366,-1.85,-1.8704,-1.8592,0.0,0.0,-1.4658,0.0,-1.1257,-1.0301,-0.9879,-0.9581,-0.9381,-0.9381,-0.913,-0.8885,-0.8885,-0.8885,-0.8885,-0.8885,-0.8885,-0.9047,-0.9427,-1.0457,-1.1378,-1.2132,-1.418,-1.5577,-1.5956,-1.6982,-1.7582,-1.7582,-1.7582,-1.7582,-1.7582,-1.7582,-1.7582,-1.7582,-1.7582,-1.7582,-1.7582,-1.7582,-1.7582,-1.7582,-1.7582,-1.7582,-1.7582,-1.7582,-1.7582,-1.7642,-1.8257,-1.849,-1.8557,-1.9152,-1.9424,-1.9424,-1.9424,-1.9424,-1.9424,-1.9424,-1.9424,-1.9424,-1.9424,-1.9424,-1.9492,-2.0067,-2.0173,-2.0368,-2.0955,-2.1109,-2.1109,-2.1109,-2.1109,-2.1109,-2.1109,-2.1109,-2.1109,-2.1109,-2.1109,-2.1109,-2.1109,-2.1109,-2.1309,-2.1897,-2.1984,-2.2198,-2.2854,-2.2928,-2.2928,-2.2928,-2.2928,-2.2928,-2.2928,-2.2928,-2.2928,-2.2928,-2.2928,-2.2928,-2.2928,-2.2928,-2.2928,-2.2928,-2.2928,-2.2928,-2.2928,-2.34,-2.3694,-2.3781,-2.4289,-2.4563,0.0,-1.9162,0.0,-1.8666,-1.8704,-1.8592,0.0,0.0,-1.6015,-1.2868,-1.2157,-1.1619,-1.0061,-0.9581,-0.9381,-0.9381,-0.913,-0.8885,-0.8885,-0.8885,-0.8885,-0.8885,-0.8885,-0.9427,-1.0836,-1.1051,-1.224,-1.4984,-1.531,-1.6009,-1.7417,-1.7582,-1.7582,-1.7582,-1.7582,-1.7582,-1.7582,-1.7582,-1.7582,-1.7582,-1.7582,-1.7582,-1.7582,-1.7582,-1.7582,-1.7582,-1.7582,-1.7582,-1.7582,-1.7582,-1.7582,-1.7642,-1.8257,-1.849,-1.8557,-1.9152,-1.9424,-1.9424,-1.9424,-1.9424,-1.9424,-1.9424,-1.9424,-1.9424,-1.9424,-1.9424,-1.9492,-2.0067,-2.0173,-2.0368,-2.0955,-2.1109,-2.1109,-2.1109,-2.1109,-2.1109,-2.1109,-2.1109,-2.1109,-2.1109,-2.1109,-2.1109,-2.1109,-2.1109,-2.1309,-2.1897,-2.1984,-2.2198,-2.2854,-2.2928,-2.2928,-2.2928,-2.2928,-2.2928,-2.2928,-2.2928,-2.2928,-2.2928,-2.2928,-2.2928,-2.2928,-2.2928,-2.2928,-2.2928,-2.2928,-2.2928,-2.2928,-2.3193,-2.3494,-2.3781,-2.4082,-2.4376,0.0,0.0,0.0,-1.8163,-1.8277,-1.8549,-1.8307,-1.7618,-1.6374,-1.4183,-1.2933,-1.1736,-1.0122,-0.9581,-0.9381,-0.9381,-0.913,-0.8885,-0.8885,-0.8885,-0.8885,-0.8885,-0.8885,-0.9482,-1.0945,-1.1973,-1.3318,-1.5257,-1.628,-1.7041,-1.7582,-1.7582,-1.7582,-1.7582,-1.7582,-1.7582,-1.7582,-1.7582,-1.7582,-1.7582,-1.7582,-1.7582,-1.7582,-1.7582,-1.7582,-1.7582,-1.7582,-1.7582,-1.7582,-1.7582,-1.7582,-1.7642,-1.8257,-1.849,-1.8557,-1.9152,-1.9424,-1.9424,-1.9424,-1.9424,-1.9424,-1.9424,-1.9424,-1.9591,-2.0537,-2.028,-1.9963,-2.13,-2.1145,-2.0608,-2.1009,-2.1109,-2.1109,-2.1109,-2.1109,-2.1418,-2.2466,-2.2709,-2.2404,-2.1292,-2.1971,-2.2405,-2.1548,-2.1396,-2.159,-2.2178,-2.2265,-2.2405,-2.2812,-2.2928,-2.2928,-2.2928,-2.2928,-2.2928,-2.2928,-2.2928,-2.2928,-2.2928,-2.2928,-2.2928,-2.2928,-2.2928,-2.2928,-2.2928,-2.2928,-2.2928,-2.2928,-2.3173,-2.348,-2.3781,-2.4068,-2.4356,-2.138,0.0,0.0,0.0,-1.8197,-1.829,-1.8691,-1.818,-1.7193,-1.5547,-1.4484,-1.3163,-1.102,-1.0439,-1.0069,-0.9504,-0.913,-0.8885,-0.8885,-0.8885,-0.8885,-0.8885,-0.9316,-1.0241,-1.1701,-1.3156,-1.4609,-1.6015,-1.7041,0.0,-1.7582,-1.7582,-1.7582,-1.7582,-1.7582,-1.7582,-1.7582,-1.7582,-1.7582,-1.7582,-1.7582,-1.7582,-1.7582,-1.7582,-1.7582,-1.7582,-1.7582,-1.7582,-1.7582,-1.7582,-1.7582,-1.7642,-1.8257,-1.849,-1.8557,-1.9152,-1.9424,-1.9424,-1.9424,-1.9424,-1.9424,-1.9424,-1.9424,-1.9611,-2.0657,-2.044,-2.0111,-2.1516,-2.1305,-2.0742,-2.1036,-2.1109,-2.1235,-2.179,-2.1908,-2.2306,-2.3521,-2.3711,-2.3479,-2.3027,-2.3848,-2.4384,-2.3662,-2.3021,-2.2751,-2.3259,-2.2814,-2.2525,-2.2894,-2.2928,-2.2928,-2.2928,-2.2928,-2.2928,-2.2928,-2.2928,-2.2928,-2.2928,-2.2928,-2.2928,-2.2928,-2.2928,-2.2928,-2.2928,-2.2928,-2.2928,-2.2928,-2.3073,-2.338,-2.3774,-2.3968,-2.4262,0.0,0.0,0.0,0.0,0.0,0.0,-1.833,0.0,-1.8431,-1.6809,-1.678,-1.6004,-1.2868,-1.2179,-1.1524,-0.9812,-0.9193,-0.8944,-0.894,-0.8992,-0.8992,-0.9047,-1.0296,-1.1755,-1.321,-1.4609,-1.6009,-1.7477,-1.7582,-1.7582,-1.7582,-1.7582,-1.7582,-1.7582,-1.7582,-1.7582,-1.7582,-1.7582,-1.7582,-1.7582,-1.7582,-1.7582,-1.7582,-1.7582,-1.7582,-1.7582,-1.7582,-1.7582,-1.7582,-1.7582,-1.7589,-1.7655,-1.8257,-1.8497,-1.8577,-1.9158,-1.9424,-1.9424,-1.9424,-1.9424,-1.9424,-1.9424,-1.943,-1.9491,-1.9772,-1.9872,-1.9947,-2.0576,-2.0743,-2.0755,-2.1099,-2.1235,-2.1664,-2.3263,-2.3705,-2.3796,-2.423,-2.4064,-2.437,-2.6248,-2.6661,-2.6832,-2.7231,-2.5824,-2.4787,-2.506,-2.3609,-2.2599,-2.2894,-2.2928,-2.2928,-2.2928,-2.2928,-2.2928,-2.2928,-2.2928,-2.2928,-2.2928,-2.2928,-2.2928,-2.2928,-2.2928,-2.2928,-2.2928,-2.2928,-2.2928,-2.2928,-2.2941,-2.3187,-2.3774,-2.3788,-2.4102,-2.1842,0.0,0.0,0.0,0.0,0.0,0.0,0.0,-1.79,-1.6738,-1.6575,-1.61,-1.4272,-1.3829,-1.3606,-1.3084,-1.0813,-0.9444,-1.0366,-1.0511,-1.0891,-1.1973,-1.2457,-1.3264,-1.4663,-1.515,-1.6009,0.0,-1.7582,-1.7582,-1.7582,-1.7582,-1.7582,-1.7582,-1.7582,-1.7582,-1.7582,-1.7582,-1.7582,-1.7582,-1.7582,-1.7582,-1.7582,-1.7582,-1.7582,-1.7582,-1.7582,-1.7582,-1.7582,-1.7582,-1.7716,-1.7956,-1.8343,-1.8617,-1.8851,-1.9225,-1.9424,-1.9424,-1.9424,-1.9424,-1.9424,-1.9424,-1.9506,-1.9922,-2.1021,-2.0959,-2.0706,-2.1954,-2.1679,-2.1317,-2.257,-2.3799,-2.4763,-2.5253,-2.5585,-2.6112,-2.7448,-2.7911,-2.7809,-2.7232,-2.8054,-2.8612,-2.7733,-2.7148,-2.6492,-2.553,-2.4981,-2.4224,-2.3051,-2.2928,-2.2928,-2.2928,-2.2928,-2.2928,-2.2928,-2.2928,-2.2928,-2.2928,-2.2928,-2.2928,-2.2928,-2.2928,-2.2928,-2.2928,-2.2928,-2.2928,-2.2928,-2.3086,-2.3394,-2.3781,-2.4202,-2.4482,-2.2328,0.0,0.0,0.0,0.0,0.0,-1.7612,-1.7635,-1.7746,0.0,-1.7439,-1.7129,-1.5858,-1.5552,-1.5247,-1.4513,-1.2728,-1.1576,-1.2133,-1.2202,-1.2443,-1.3226,-1.3804,-1.4502,-1.531,-1.5956,-1.6658,-1.7529,-1.7582,-1.7582,-1.7582,-1.7582,-1.7582,-1.7582,-1.7582,-1.7582,-1.7582,-1.7582,-1.7582,-1.7582,-1.7582,-1.7582,-1.7582,-1.7582,-1.7582,-1.7582,-1.7582,-1.7582,-1.7595,-1.7722,-1.7883,-1.8009,-1.837,-1.8664,-1.8958,-1.9259,-1.9424,-1.9424,-1.9424,-1.9424,-1.9424,-1.9424,-1.9559,-1.9991,-2.097,-2.1008,-2.0881,-2.1851,-2.1652,-2.1481,-2.3139,-2.4294,-2.52,-2.5855,-2.6817,-2.7947,-2.9097,-3.0208,-3.0751,-2.9798,-3.0369,-3.0551,-2.9206,-2.837,-2.7327,-2.5748,-2.4851,-2.406,-2.3065,-2.2928,-2.2928,-2.2928,-2.2928,-2.2928,-2.2928,-2.2928,-2.2928,-2.2928,-2.2928,-2.2928,-2.2928,-2.2928,-2.2928,-2.2928,-2.2928,-2.2986,-2.331,-2.33,-2.3541,-2.3961,-2.4422,-2.4636,-2.3091,-2.2344,0.0,0.0,-1.9335,0.0,-1.7679,-1.7753,-1.8105,0.0,-1.884,-1.8665,-1.7426,-1.7177,-1.6634,-1.5129,-1.4887,-1.4693,-1.4079,-1.3961,-1.3944,-1.3909,-1.4968,-1.5714,-1.5684,-1.6868,-1.7615,-1.7589,-1.7582,-1.7582,-1.7582,-1.7582,-1.7582,-1.7582,-1.7582,-1.7582,-1.7582,-1.7582,-1.7582,-1.7582,-1.7582,-1.7582,-1.7582,-1.7582,-1.7582,-1.7582,-1.7582,-1.7582,-1.7609,-1.7862,-1.8002,-1.8096,-1.8417,-1.8718,-1.9005,-1.9272,-1.9424,-1.9424,-1.9424,-1.9424,-1.943,-1.9406,-1.9613,-1.99,-2.0194,-2.0488,-2.0775,-2.1036,-2.1229,-2.1727,-2.3201,-2.3876,-2.4479,-2.5924,-2.7895,-2.955,-2.9906,-3.1494,-3.2799,-3.2603,-3.2603,-3.2199,-3.1038,-2.9344,-2.7569,-2.5778,-2.4188,-2.3133,-2.2928,-2.2928,-2.2928,-2.2928,-2.2928,-2.2928,-2.2928,-2.2928,-2.2928,-2.2928,-2.2928,-2.2928,-2.2928,-2.2928,-2.2928,-2.2928,-2.2928,-2.3229,-2.3774,-2.3507,-2.3681,-2.4255,-2.4516,-2.4636,-2.3091,-2.3212,-2.2938,-2.1428,0.0,0.0,-1.9749,-1.9963,-2.0233,0.0,-1.9568,-1.9516,-1.8417,-1.8196,-1.8121,-1.7783,-1.7899,-1.7522,-1.5983,-1.577,-1.621,-1.7361,-1.7747,-1.7766,-1.7538,-1.7734,-1.7856,-1.7602,-1.7582,-1.7582,-1.7582,-1.7582,-1.7582,-1.7582,-1.7582,-1.7582,-1.7582,-1.7582,-1.7582,-1.7582,-1.7582,-1.7582,-1.7582,-1.7582,-1.7582,-1.7582,-1.7582,-1.7582,-1.7609,-1.7862,-1.8183,-1.843,-1.8724,-1.9018,-1.9285,-1.9403,-1.9424,-1.9424,-1.9424,-1.9424,-1.9464,-1.9639,-1.9913,-2.0207,-2.0501,-2.0795,-2.1036,-2.1096,-2.2097,-2.3201,-2.3512,-2.5513,-2.7572,-2.7871,-2.9781,-3.1616,-3.1693,-3.2568,-3.284,-3.145,-3.1185,-3.1084,-3.0827,-2.9344,-2.7569,-2.5778,-2.5181,-2.452,-2.3065,-2.2928,-2.2928,-2.2928,-2.2928,-2.2928,-2.2928,-2.2928,-2.2928,-2.2928,-2.2928,-2.2928,-2.2928,-2.2928,-2.2928,-2.2928,-2.2928,-2.3229,-2.3774,-2.3714,-2.3981,-2.4556,-2.4609,-2.4636,-2.3149,-2.3257,-2.3146,-2.1934,0.0,0.0,0.0,-2.039,-2.0524,-2.0448,-2.0436,-2.0193,-1.9449,-1.909,-1.8772,-1.8353,-1.8517,-1.8417,-1.771,-1.7597,-1.7834,-1.8448,-1.849,-1.843,-1.8283,-1.827,-1.8143,-1.7836,-1.7669,-1.7582,-1.7582,-1.7582,-1.7582,-1.7582,-1.7582,-1.7582,-1.7582,-1.7582,-1.7582,-1.7582,-1.7582,-1.7582,-1.7582,-1.7582,-1.7582,-1.7582,-1.7582,-1.7582,-1.7615,-1.8076,-1.8357,-1.8517,-1.8811,-1.9105,-1.9424,-1.9424,-1.9424,-1.9424,-1.9424,-1.9424,-1.9412,-1.9706,-1.9993,-2.0287,-2.0588,-2.0882,-2.1109,-2.1109,-2.1727,-2.2341,-2.2341,-2.417,-2.6001,-2.6001,-2.8534,-3.094,-3.094,-3.158,-3.1835,-3.0973,-2.9392,-2.8147,-2.8147,-2.7429,-2.6247,-2.446,-2.4188,-2.3856,-2.2996,-2.2928,-2.2928,-2.2928,-2.2928,-2.2928,-2.2928,-2.2928,-2.2928,-2.2928,-2.2928,-2.2928,-2.2928,-2.2928,-2.2928,-2.2928,-2.3013,-2.332,-2.3774,-2.3915,-2.4209,-2.4636,-2.4636,-2.4636,0.0,0.0,0.0,0.0,0.0,-2.1844,0.0,0.0,0.0,0.0,0.0,0.0,0.0,0.0,0.0,0.0,0.0,0.0,0.0,-1.9185,0.0,-1.8727,-1.8657,-1.8637,-1.8577,-1.847,-1.8303,-1.8009,-1.7756,-1.7582,-1.7582,-1.7582,-1.7582,-1.7582,-1.7582,-1.7582,-1.7582,-1.7582,-1.7582,-1.7582,-1.7582,-1.7582,-1.7582,-1.7582,-1.7582,-1.7582,-1.7582,-1.7615,-1.7716,-1.8263,-1.8524,-1.8604,-1.8898,-1.9158,-1.9424,-1.9424,-1.9424,-1.9424,-1.9424,-1.9424,-1.9426,-1.9773,-2.012,-2.0448,-2.0688,-2.0922,-2.1109,-2.1109,-2.1109,-2.1109,-2.1109,-2.2341,-2.3574,-2.3574,-2.6492,-2.9217,-2.9217,-2.9768,-3.0189,-2.9856,-2.7487,-2.551,-2.551,-2.5248,-2.452,-2.3126,-2.2928,-2.2928,-2.2928,-2.2928,-2.2928,-2.2928,-2.2928,-2.2928,-2.2928,-2.2928,-2.2928,-2.2928,-2.2928,-2.2928,-2.2928,-2.2928,-2.2893,-2.2953,-2.32,-2.35,-2.3855,-2.4088,-2.4349,-2.4636,-2.4636,-2.4636,0.0,0.0,0.0,0.0,-2.4132,0.0,0.0,0.0,0.0,-2.2075,0.0,0.0,0.0,0.0,0.0,0.0,0.0,0.0,-2.0089,-2.0163,-2.0063,-1.9378,-1.933,-1.9165,-1.8898,-1.8348,-1.8029,-1.7995,-1.7756,-1.7582,-1.7582,-1.7582,-1.7582,-1.7582,-1.7582,-1.7582,-1.7582,-1.7582,-1.7582,-1.7582,-1.7582,-1.7582,-1.7582,-1.7582,-1.7582,-1.7582,-1.7582,-1.7736,-1.7962,-1.8357,-1.8644,-1.8905,-1.9199,-1.9397,-1.9424,-1.9424,-1.9424,-1.9424,-1.9424,-1.9424,-1.9459,-2.0007,-2.0561,-2.1015,-2.1049,-2.1082,-2.1109,-2.1109,-2.1109,-2.1109,-2.1109,-2.2341,-2.3574,-2.3574,-2.5572,-2.7407,-2.7407,-2.7975,-2.8032,-2.6439,-2.5778,-2.551,-2.551,-2.4188,-2.3126,-2.2934,-2.2928,-2.2928,-2.2928,-2.2928,-2.2928,-2.2928,-2.2928,-2.2928,-2.2928,-2.2928,-2.2928,-2.2928,-2.2928,-2.2928,-2.2928,-2.2928,-2.2993,-2.3267,-2.3307,-2.3601,-2.4155,-2.4189,-2.4349,-2.4636,-2.4636,-2.4636,0.0,0.0,0.0,0.0,0.0,0.0,-2.3643,0.0,-2.3512,0.0,0.0,0.0,0.0,0.0,0.0,0.0,-2.123,0.0,0.0,0.0,-2.0991,0.0,0.0,0.0,-1.8918,-1.8551,-1.8303,-1.8303,-1.7856,-1.7582,-1.7582,-1.7582,-1.7582,-1.7582,-1.7582,-1.7582,-1.7582,-1.7582,-1.7582,-1.7582,-1.7582,-1.7582,-1.7582,-1.7582,-1.7582,-1.7582,-1.7582,-1.7756,-1.8015,-1.837,-1.8657,-1.8951,-1.9252,-1.9424,-1.9424,-1.9424,-1.9424,-1.9424,-1.9424,-1.9424,-1.9466,-2.0047,-2.0628,-2.1109,-2.1109,-2.1109,-2.1109,-2.1109,-2.1109,-2.1109,-2.1109,-2.1601,-2.2202,-2.2384,-2.4082,-2.5679,-2.5882,-2.6304,-2.638,-2.5644,-2.4655,-2.3992,-2.3992,-2.3393,-2.2928,-2.2928,-2.2928,-2.2928,-2.2928,-2.2928,-2.2928,-2.2928,-2.2928,-2.2928,-2.2928,-2.2928,-2.2928,-2.2928,-2.2928,-2.2928,-2.2928,-2.304,-2.3193,-2.3327,-2.3661,-2.3961,-2.4202,-2.4376,-2.4516,-2.4636,-2.4636,-2.4636,-2.4863,0.0,0.0,0.0,0.0,0.0,0.0,0.0,0.0,0.0,0.0,0.0,0.0,0.0,0.0,0.0,0.0,-2.2591,0.0,-2.2703,0.0,0.0,0.0,0.0,0.0,-1.8827,-1.8457,-1.8377,-1.7883,-1.7582,-1.7582,-1.7582,-1.7582,-1.7582,-1.7582,-1.7582,-1.7582,-1.7582,-1.7582,-1.7582,-1.7582,-1.7582,-1.7582,-1.7582,-1.7582,-1.7582,-1.7582,-1.7802,-1.8183,-1.8404,-1.8711,-1.9065,-1.9279,-1.9424,-1.9424,-1.9424,-1.9424,-1.9424,-1.9424,-1.9472,-1.9686,-2.0194,-2.0695,-2.1109,-2.1109,-2.1109,-2.1109,-2.1109,-2.1109,-2.1109,-2.1109,-2.1169,-2.1289,-2.1568,-2.2853,-2.4094,-2.4327,-2.4566,-2.4783,-2.4783,-2.3795,-2.2928,-2.2928,-2.2928,-2.2928,-2.2928,-2.2928,-2.2928,-2.2928,-2.2928,-2.2928,-2.2928,-2.2928,-2.2928,-2.2928,-2.2928,-2.2928,-2.2928,-2.2928,-2.2899,-2.2986,-2.3207,-2.3407,-2.3561,-2.3988,-2.4242,-2.4322,-2.4536,-2.4636,-2.4636,-2.4636,-2.4636,0.0,0.0,0.0,-2.4629,0.0,0.0,0.0,0.0,-2.3769,0.0,0.0,0.0,0.0,0.0,0.0,0.0,0.0,0.0,0.0,0.0,0.0,0.0,0.0,0.0,0.0,-1.9291,-1.837,0.0,-1.7762,-1.7582,-1.7582,-1.7582,-1.7582,-1.7582,-1.7582,-1.7582,-1.7582,-1.7582,-1.7582,-1.7582,-1.7582,-1.7582,-1.7582,-1.7582,-1.7582,-1.7582,-1.7582,-1.7923,-1.8477,-1.849,-1.8831,-1.941,-1.9424,-1.9424,-1.9424,-1.9424,-1.9424,-1.9424,-1.9424,-1.9733,-2.0254,-2.0561,-2.0862,-2.1109,-2.1109,-2.1109,-2.1109,-2.1109,-2.1109,-2.1109,-2.1109,-2.1323,-2.1608,-2.1614,-2.2057,-2.2472,-2.2479,-2.2713,-2.2996,-2.2996,-2.2928,-2.2928,-2.2928,-2.2928,-2.2928,-2.2928,-2.2928,-2.2928,-2.2928,-2.2928,-2.2928,-2.2928,-2.2928,-2.2928,-2.2928,-2.2928,-2.2928,-2.2928,-2.2928,-2.2999,-2.33,-2.3327,-2.3594,-2.4162,-2.4195,-2.4342,-2.4623,-2.4636,-2.4636,-2.4636,-2.4636,-2.4636,0.0,0.0,-2.5547,-2.5,0.0,0.0,0.0,0.0,0.0,0.0,0.0,0.0,0.0,0.0,0.0,0.0,0.0,0.0,0.0,0.0,0.0,0.0,0.0,0.0,0.0,0.0,0.0,-1.8104,-1.7756,0.0,-1.7582,-1.7582,-1.7582,-1.7582,-1.7582,-1.7582,-1.7582,-1.7582,-1.7582,-1.7582,-1.7582,-1.7582,-1.7582,-1.7582,-1.7582,-1.7595,-1.7802,-1.8116,-1.8504,-1.8698,-1.9011,-1.9424,-1.9424,-1.9424,-1.9424,-1.9424,-1.9424,-1.9457,-1.9586,-1.9907,-2.0281,-2.0581,-2.0869,-2.1109,-2.1109,-2.1109,-2.1109,-2.1109,-2.1109,-2.1156,-2.1349,-2.1541,-2.1715,-2.2038,-2.2271,-2.2472,-2.2672,-2.2792,-2.2928,-2.2928,-2.2928,-2.2928,-2.2928,-2.2928,-2.2928,-2.2928,-2.2928,-2.2928,-2.2928,-2.2928,-2.2928,-2.2928,-2.2928,-2.2928,-2.2928,-2.2928,-2.2928,-2.2928,-2.2928,-2.2999,-2.3313,-2.3514,-2.3801,-2.4195,-2.4389,-2.4536,-2.4636,-2.4636,-2.4636,-2.4636,-2.4636,-2.4636,-2.5693,-2.5693,0.0,-2.5176,-2.4853,0.0,-2.4111,0.0,0.0,0.0,0.0,0.0,0.0,0.0,0.0,0.0,0.0,0.0,0.0,-2.4961,0.0,0.0,0.0,0.0,0.0,0.0,-2.0182,-1.867,-1.8422,-1.8094,0.0,-1.7689,-1.7749,-1.7749,-1.7849,-1.7856,-1.7749,-1.7749,-1.7695,-1.7582,-1.7582,-1.7582,-1.7582,-1.7582,-1.7582,-1.7602,-1.7856,-1.8217,-1.851,-1.8804,-1.9098,-1.9424,-1.9424,-1.9424,-1.9424,-1.9424,-1.9432,-1.9559,-1.9853,-2.0147,-2.0441,-2.0735,-2.0955,-2.1109,-2.1109,-2.1109,-2.1109,-2.1109,-2.1189,-2.1309,-2.1568,-2.1769,-2.1951,-2.2331,-2.2498,-2.2632,-2.2819,-2.2928,-2.2928,-2.2928,-2.2928,-2.2928,-2.2928,-2.2928,-2.2928,-2.2928,-2.2928,-2.2928,-2.2928,-2.2928,-2.2928,-2.2928,-2.2928,-2.2928,-2.2928,-2.2928,-2.2928,-2.2928,-2.2928,-2.3046,-2.3467,-2.3667,-2.3955,-2.4349,-2.4543,-2.4636,-2.4636,-2.4636,-2.4636,-2.4636,-2.4636,-2.4636]},{"header":{"parameterUnit":"m.s-1","parameterCategory":1,"la1":30.6,"la2":29.2853,"lo1":-89.7004,"lo2":-87.6739,"dy":0.0162,"dx":0.0183,"nx":112,"ny":82,"refTime":"2026-02-28T00:00:00:Z","depth":0,"parameterNumber":3,"parameterNumberName":"V-component_of_WINDS"},"data":[0.0,0.0,0.0,0.0,0.0,0.0,0.0,0.0,0.0,0.0,0.0,0.0,0.0,0.0,0.0,0.0,0.0,0.0,0.0,0.0,0.0,0.0,0.0,0.0,0.0,0.0,0.0,0.0,0.0,0.0,0.0,0.0,0.0,0.0,0.0,0.0,0.0,0.0,0.0,0.0,0.0,0.0,0.0,0.0,0.0,0.0,0.0,0.0,0.0,0.0,0.0,0.0,0.0,0.0,0.0,0.0,0.0,0.0,0.0,0.0,0.0,0.0,0.0,0.0,0.0,0.0,0.0,0.0,0.0,0.0,0.0,0.0,0.0,0.0,0.0,0.0,0.0,0.0,0.0,0.0,0.0,0.0,0.0,0.0,0.0,0.0,0.0,0.0,0.0,0.0,2.8877,2.7523,2.75,2.7921,2.873,2.9456,2.9518,2.8661,0.0,0.0,0.0,0.0,0.0,0.0,0.0,0.0,0.0,0.0,0.0,0.0,0.0,0.0,0.0,0.0,0.0,0.0,0.0,0.0,0.0,0.0,0.0,0.0,0.0,0.0,0.0,0.0,0.0,0.0,0.0,0.0,0.0,0.0,0.0,0.0,0.0,0.0,0.0,0.0,0.0,0.0,0.0,0.0,0.0,0.0,0.0,0.0,0.0,0.0,0.0,0.0,0.0,0.0,0.0,0.0,0.0,0.0,0.0,0.0,0.0,0.0,0.0,0.0,0.0,0.0,0.0,0.0,0.0,0.0,0.0,0.0,0.0,0.0,0.0,0.0,0.0,0.0,0.0,0.0,0.0,0.0,0.0,0.0,0.0,0.0,0.0,0.0,0.0,0.0,0.0,0.0,0.0,0.0,0.0,0.0,0.0,0.0,0.0,0.0,0.0,0.0,0.0,0.0,2.9584,2.9544,3.0017,3.0477,3.0975,3.1213,3.1134,3.0519,0.0,0.0,0.0,0.0,0.0,0.0,0.0,0.0,0.0,0.0,0.0,0.0,0.0,0.0,0.0,0.0,0.0,0.0,0.0,0.0,0.0,0.0,0.0,0.0,0.0,0.0,0.0,0.0,0.0,0.0,0.0,0.0,0.0,0.0,0.0,0.0,0.0,0.0,0.0,0.0,0.0,0.0,0.0,0.0,0.0,0.0,0.0,0.0,0.0,0.0,0.0,0.0,0.0,0.0,0.0,0.0,0.0,0.0,0.0,0.0,0.0,0.0,0.0,0.0,0.0,0.0,0.0,0.0,0.0,0.0,0.0,0.0,0.0,0.0,0.0,0.0,0.0,0.0,0.0,0.0,0.0,0.0,0.0,0.0,0.0,0.0,0.0,0.0,0.0,0.0,0.0,0.0,0.0,0.0,0.0,0.0,0.0,0.0,0.0,0.0,0.0,0.0,0.0,3.0477,3.0307,3.0986,3.0963,3.1076,3.1459,3.2202,3.2432,3.1923,3.1217,0.0,0.0,0.0,0.0,0.0,0.0,0.0,0.0,0.0,0.0,0.0,0.0,0.0,0.0,0.0,0.0,0.0,0.0,0.0,0.0,0.0,0.0,0.0,0.0,0.0,0.0,0.0,0.0,0.0,0.0,0.0,0.0,0.0,0.0,0.0,0.0,0.0,0.0,0.0,0.0,0.0,0.0,0.0,0.0,0.0,0.0,0.0,0.0,0.0,0.0,0.0,0.0,0.0,0.0,0.0,0.0,0.0,0.0,0.0,0.0,0.0,0.0,0.0,0.0,0.0,0.0,0.0,0.0,0.0,0.0,0.0,0.0,0.0,0.0,0.0,0.0,0.0,0.0,0.0,0.0,0.0,0.0,0.0,0.0,0.0,0.0,0.0,0.0,0.0,0.0,0.0,0.0,0.0,0.0,0.0,0.0,0.0,0.0,0.0,0.0,0.0,0.0,3.1565,3.1536,3.2298,3.2125,3.2128,3.2411,3.3374,3.3741,3.3212,3.2667,0.0,0.0,0.0,0.0,0.0,0.0,0.0,0.0,0.0,0.0,0.0,0.0,0.0,0.0,0.0,0.0,0.0,0.0,0.0,0.0,0.0,0.0,0.0,0.0,0.0,0.0,0.0,0.0,0.0,0.0,0.0,0.0,0.0,0.0,0.0,0.0,0.0,0.0,0.0,0.0,0.0,0.0,0.0,0.0,0.0,0.0,0.0,0.0,0.0,0.0,0.0,0.0,0.0,0.0,0.0,0.0,0.0,0.0,0.0,0.0,0.0,0.0,0.0,0.0,0.0,0.0,0.0,0.0,0.0,0.0,0.0,0.0,0.0,0.0,0.0,0.0,0.0,0.0,0.0,0.0,0.0,0.0,0.0,0.0,0.0,0.0,0.0,0.0,0.0,0.0,0.0,0.0,0.0,0.0,0.0,0.0,0.0,0.0,0.0,0.0,0.0,0.0,3.2719,3.3677,3.3752,3.4612,3.5214,3.5205,3.531,3.5119,3.4615,3.3602,0.0,0.0,0.0,0.0,0.0,0.0,0.0,0.0,0.0,0.0,0.0,0.0,0.0,0.0,0.0,0.0,0.0,0.0,0.0,0.0,0.0,0.0,0.0,0.0,0.0,0.0,0.0,0.0,0.0,0.0,0.0,0.0,0.0,0.0,0.0,0.0,0.0,0.0,0.0,0.0,0.0,0.0,0.0,0.0,0.0,0.0,0.0,0.0,0.0,0.0,0.0,0.0,0.0,0.0,0.0,0.0,0.0,0.0,0.0,0.0,0.0,0.0,0.0,0.0,0.0,0.0,0.0,0.0,0.0,0.0,0.0,0.0,0.0,0.0,0.0,0.0,0.0,0.0,0.0,0.0,0.0,0.0,0.0,0.0,0.0,0.0,0.0,0.0,0.0,0.0,0.0,0.0,0.0,0.0,0.0,0.0,0.0,0.0,0.0,0.0,0.0,0.0,3.2767,3.3658,0.0,3.5044,3.5495,3.5495,3.5495,3.5119,3.4274,0.0,0.0,0.0,0.0,0.0,0.0,0.0,0.0,0.0,0.0,0.0,0.0,0.0,0.0,0.0,0.0,0.0,0.0,0.0,0.0,0.0,0.0,0.0,0.0,0.0,0.0,0.0,0.0,0.0,0.0,0.0,0.0,0.0,0.0,0.0,0.0,0.0,0.0,0.0,0.0,0.0,0.0,0.0,0.0,0.0,0.0,0.0,0.0,0.0,0.0,0.0,0.0,0.0,0.0,0.0,0.0,0.0,0.0,0.0,0.0,0.0,0.0,0.0,0.0,0.0,0.0,0.0,0.0,0.0,0.0,0.0,0.0,0.0,0.0,0.0,0.0,0.0,0.0,0.0,0.0,0.0,0.0,0.0,0.0,0.0,0.0,0.0,0.0,0.0,0.0,0.0,0.0,0.0,0.0,0.0,0.0,0.0,0.0,0.0,0.0,0.0,0.0,3.2089,3.3018,3.396,0.0,3.527,3.5495,3.5495,3.5182,3.4625,3.3696,0.0,0.0,0.0,0.0,0.0,0.0,0.0,0.0,0.0,0.0,0.0,0.0,0.0,0.0,0.0,0.0,0.0,0.0,0.0,0.0,0.0,0.0,0.0,0.0,0.0,0.0,0.0,0.0,0.0,0.0,0.0,0.0,0.0,0.0,0.0,0.0,0.0,0.0,0.0,0.0,0.0,0.0,0.0,0.0,0.0,0.0,0.0,0.0,0.0,0.0,0.0,0.0,0.0,0.0,0.0,0.0,0.0,0.0,0.0,0.0,0.0,0.0,0.0,0.0,0.0,0.0,0.0,0.0,0.0,0.0,0.0,0.0,0.0,0.0,0.0,0.0,0.0,0.0,0.0,0.0,0.0,0.0,0.0,0.0,0.0,0.0,0.0,0.0,0.0,0.0,0.0,0.0,0.0,0.0,0.0,0.0,0.0,0.0,0.0,0.0,0.0,0.0,3.2194,3.3684,3.4939,3.5491,3.5542,3.5542,3.5542,3.4525,3.3702,0.0,0.0,0.0,0.0,0.0,0.0,0.0,0.0,0.0,0.0,0.0,0.0,0.0,0.0,0.0,0.0,0.0,0.0,0.0,0.0,0.0,0.0,0.0,0.0,0.0,0.0,0.0,0.0,0.0,0.0,0.0,0.0,0.0,0.0,0.0,0.0,0.0,0.0,0.0,0.0,0.0,0.0,0.0,0.0,0.0,0.0,0.0,0.0,0.0,0.0,0.0,0.0,0.0,0.0,0.0,0.0,0.0,0.0,0.0,0.0,0.0,0.0,0.0,0.0,0.0,0.0,0.0,0.0,0.0,0.0,0.0,0.0,0.0,0.0,0.0,0.0,0.0,0.0,0.0,0.0,0.0,0.0,0.0,0.0,0.0,0.0,0.0,0.0,0.0,0.0,0.0,0.0,0.0,0.0,0.0,0.0,0.0,0.0,0.0,0.0,0.0,0.0,0.0,3.4808,3.6247,3.7486,3.8464,3.8196,3.7883,3.7883,3.6809,3.5419,3.3701,0.0,0.0,0.0,0.0,0.0,0.0,0.0,0.0,0.0,0.0,0.0,0.0,0.0,0.0,0.0,0.0,0.0,0.0,0.0,0.0,0.0,0.0,0.0,0.0,0.0,0.0,0.0,0.0,0.0,0.0,0.0,0.0,0.0,0.0,0.0,0.0,0.0,0.0,0.0,0.0,0.0,0.0,0.0,0.0,0.0,0.0,0.0,0.0,0.0,0.0,0.0,0.0,0.0,0.0,0.0,0.0,0.0,0.0,0.0,0.0,0.0,0.0,0.0,0.0,0.0,0.0,0.0,0.0,0.0,0.0,0.0,0.0,0.0,0.0,0.0,0.0,0.0,0.0,0.0,0.0,0.0,0.0,0.0,0.0,0.0,0.0,0.0,0.0,0.0,0.0,0.0,0.0,0.0,0.0,0.0,0.0,0.0,0.0,0.0,0.0,0.0,0.0,3.5977,3.7289,3.8546,3.9775,3.9069,3.8545,3.8587,3.7468,3.5975,3.4134,0.0,0.0,0.0,0.0,0.0,0.0,0.0,0.0,0.0,0.0,0.0,0.0,0.0,0.0,0.0,0.0,0.0,0.0,0.0,0.0,0.0,0.0,0.0,0.0,0.0,0.0,0.0,0.0,0.0,0.0,0.0,0.0,0.0,0.0,0.0,0.0,0.0,0.0,0.0,0.0,0.0,0.0,0.0,0.0,0.0,0.0,0.0,0.0,0.0,0.0,0.0,0.0,0.0,0.0,0.0,0.0,0.0,0.0,0.0,0.0,0.0,0.0,0.0,0.0,0.0,0.0,0.0,0.0,0.0,0.0,0.0,0.0,0.0,0.0,0.0,0.0,0.0,0.0,0.0,0.0,0.0,0.0,0.0,0.0,0.0,0.0,0.0,0.0,0.0,0.0,0.0,0.0,0.0,0.0,0.0,0.0,0.0,0.0,0.0,0.0,0.0,0.0,3.625,3.76,3.8853,4.0077,3.9089,3.8338,3.8379,3.7237,3.5986,3.4705,0.0,0.0,0.0,0.0,0.0,0.0,0.0,0.0,0.0,0.0,0.0,0.0,0.0,0.0,0.0,0.0,0.0,0.0,0.0,0.0,0.0,0.0,0.0,0.0,0.0,0.0,0.0,0.0,0.0,0.0,0.0,0.0,0.0,0.0,0.0,0.0,0.0,0.0,0.0,0.0,0.0,0.0,0.0,0.0,0.0,0.0,0.0,0.0,0.0,0.0,0.0,0.0,0.0,0.0,0.0,0.0,0.0,0.0,0.0,0.0,3.7166,0.0,0.0,0.0,0.0,0.0,0.0,0.0,0.0,0.0,0.0,0.0,0.0,0.0,0.0,0.0,0.0,0.0,0.0,0.0,0.0,0.0,0.0,0.0,0.0,0.0,0.0,0.0,0.0,0.0,0.0,0.0,0.0,0.0,0.0,0.0,0.0,0.0,0.0,0.0,0.0,0.0,3.848,3.9879,4.1175,4.2416,4.144,4.0674,4.0713,3.9481,3.8084,3.6536,3.5804,0.0,0.0,0.0,0.0,0.0,0.0,0.0,0.0,0.0,0.0,0.0,0.0,0.0,0.0,0.0,0.0,0.0,0.0,0.0,0.0,0.0,0.0,0.0,0.0,0.0,0.0,0.0,0.0,0.0,0.0,0.0,0.0,0.0,0.0,0.0,0.0,0.0,0.0,0.0,0.0,0.0,0.0,0.0,0.0,0.0,0.0,0.0,0.0,0.0,0.0,0.0,0.0,0.0,0.0,0.0,0.0,0.0,0.0,0.0,0.0,3.8395,0.0,0.0,0.0,0.0,0.0,0.0,0.0,0.0,0.0,0.0,0.0,0.0,0.0,0.0,0.0,0.0,0.0,0.0,0.0,0.0,0.0,0.0,0.0,0.0,0.0,0.0,0.0,0.0,0.0,0.0,0.0,0.0,0.0,0.0,0.0,0.0,0.0,0.0,0.0,0.0,3.917,4.0561,4.1773,4.2761,4.2267,4.1767,4.1452,4.0756,3.975,3.8267,3.7525,0.0,0.0,0.0,0.0,0.0,0.0,0.0,0.0,0.0,0.0,0.0,0.0,0.0,0.0,0.0,0.0,0.0,0.0,0.0,0.0,0.0,0.0,0.0,0.0,0.0,0.0,0.0,0.0,0.0,0.0,0.0,0.0,0.0,0.0,0.0,0.0,0.0,0.0,0.0,0.0,0.0,0.0,0.0,0.0,0.0,0.0,0.0,0.0,0.0,0.0,0.0,0.0,0.0,4.3296,4.3601,4.4178,4.4178,4.4242,4.4271,4.2278,4.1598,4.1841,4.1137,0.0,0.0,0.0,0.0,0.0,0.0,0.0,0.0,0.0,0.0,0.0,0.0,0.0,0.0,0.0,0.0,0.0,0.0,0.0,0.0,0.0,0.0,0.0,0.0,4.101,4.0816,3.8659,0.0,0.0,0.0,0.0,0.0,0.0,0.0,0.0,0.0,0.0,0.0,3.9369,4.0568,4.1459,4.2156,4.2231,4.2006,4.1467,4.1422,4.0876,3.9664,3.8945,3.7793,0.0,0.0,0.0,0.0,0.0,0.0,0.0,0.0,0.0,0.0,0.0,0.0,0.0,0.0,0.0,0.0,0.0,0.0,0.0,0.0,0.0,0.0,0.0,0.0,0.0,0.0,0.0,0.0,0.0,0.0,0.0,0.0,3.9862,3.9862,0.0,0.0,0.0,0.0,0.0,0.0,0.0,0.0,0.0,0.0,0.0,0.0,0.0,4.2983,4.3722,4.3738,4.3853,4.4034,4.4034,4.4098,4.4178,4.4178,4.4515,4.509,4.5375,0.0,4.3759,4.3043,0.0,0.0,0.0,0.0,0.0,0.0,0.0,0.0,0.0,0.0,0.0,0.0,0.0,0.0,0.0,0.0,0.0,0.0,0.0,0.0,0.0,0.0,4.2974,4.2876,4.2925,4.2715,0.0,4.0483,3.9447,3.8681,3.803,0.0,0.0,0.0,0.0,0.0,0.0,0.0,4.0247,4.0516,4.0786,4.1482,4.1504,4.1512,4.1384,4.1422,4.107,4.0322,3.9649,3.8901,3.8048,3.6851,0.0,0.0,0.0,0.0,0.0,0.0,0.0,0.0,0.0,0.0,0.0,0.0,0.0,0.0,0.0,0.0,0.0,0.0,0.0,0.0,0.0,0.0,0.0,0.0,0.0,0.0,0.0,0.0,0.0,4.0682,4.1131,4.098,4.1776,4.2038,0.0,0.0,0.0,0.0,0.0,0.0,0.0,0.0,0.0,4.3697,4.3713,4.4105,4.4902,4.4951,4.5389,4.6296,4.6296,4.6495,4.6892,4.6892,4.7273,4.7951,4.7852,4.7703,4.7389,4.5612,4.4659,4.4161,0.0,0.0,0.0,0.0,4.2606,4.2751,4.3636,4.399,4.3908,4.3563,0.0,0.0,0.0,0.0,0.0,0.0,0.0,0.0,0.0,0.0,4.4641,4.4641,4.4641,4.4536,4.4158,4.3284,4.2104,0.0,3.9865,3.928,3.8169,0.0,0.0,0.0,0.0,3.9903,4.1253,4.169,4.1961,4.2272,4.3003,4.3334,4.2945,4.365,4.3826,4.3141,4.2435,4.1563,4.0524,3.954,3.8543,0.0,0.0,0.0,0.0,0.0,0.0,0.0,0.0,0.0,0.0,0.0,0.0,0.0,0.0,0.0,0.0,0.0,0.0,0.0,0.0,0.0,0.0,0.0,0.0,0.0,0.0,0.0,0.0,4.2023,4.2603,4.2401,4.3431,4.3699,0.0,0.0,0.0,0.0,0.0,0.0,4.367,4.3703,4.414,4.5114,4.5131,4.5553,4.6371,4.6419,4.7015,4.8189,4.8189,4.8477,4.9001,4.9001,4.9306,4.9796,4.9441,4.9492,4.9651,4.7589,4.6383,4.5765,4.4545,4.4056,4.4056,4.4056,4.4056,4.4233,4.5438,4.5823,4.5787,4.5469,4.4753,4.3737,4.2395,0.0,0.0,0.0,0.0,4.3785,4.4412,4.5145,4.5652,4.5466,4.5568,4.5652,4.5466,4.4976,4.4056,0.0,4.1748,4.1216,3.9968,0.0,0.0,0.0,0.0,4.1323,4.2235,4.2591,4.2749,4.2749,4.4012,4.4635,4.4157,4.5373,4.5904,4.5234,4.4687,4.3839,4.2687,4.1949,4.0987,3.9826,0.0,0.0,0.0,0.0,0.0,0.0,0.0,0.0,0.0,0.0,0.0,0.0,0.0,0.0,0.0,0.0,0.0,0.0,0.0,0.0,0.0,0.0,0.0,0.0,0.0,0.0,0.0,0.0,0.0,4.5,4.6237,0.0,0.0,0.0,0.0,4.3087,4.3023,4.3735,4.5284,4.5397,4.6105,4.7666,4.7713,4.8051,4.8821,4.8821,4.8869,4.8951,4.8951,4.8968,4.9001,4.9001,4.9018,4.9086,4.9746,4.9661,4.9001,4.8166,4.7815,4.7696,4.6903,4.66,4.66,4.66,4.66,4.6646,4.671,4.6727,4.6828,4.7521,4.676,4.5443,4.4654,4.3883,0.0,0.0,4.3922,4.4542,4.4587,4.5145,4.5517,4.4835,4.5179,4.5517,4.4818,4.4632,4.457,0.0,4.3799,4.3021,4.2262,0.0,4.1358,4.2047,4.1478,4.1557,4.3056,4.2553,4.2045,4.2045,4.3309,4.4157,4.4109,4.5373,4.5904,4.5234,4.517,4.4818,4.4114,4.3392,4.2655,4.1949,4.0648,0.0,0.0,0.0,0.0,0.0,0.0,0.0,0.0,0.0,0.0,0.0,0.0,0.0,0.0,0.0,0.0,0.0,0.0,0.0,0.0,0.0,0.0,0.0,0.0,0.0,0.0,0.0,0.0,4.6522,4.7633,0.0,4.6486,4.6023,4.574,4.5504,4.5471,4.5943,4.6988,4.7052,4.7527,4.8565,4.8612,4.8731,4.9001,4.9001,4.9212,4.9652,4.9212,4.9243,4.9622,4.9212,4.9255,4.9695,4.9475,4.9509,4.9644,4.8917,4.8612,4.8545,4.7817,4.7513,4.7513,4.7513,4.7513,4.7581,4.8054,4.8223,4.8189,4.7986,4.7534,4.6904,4.5686,4.5111,4.479,4.4299,4.4395,4.4615,4.4615,4.5145,4.5635,4.5365,4.5517,4.5635,4.5365,4.4953,4.4615,4.4615,4.4378,4.3911,4.3138,4.3211,4.3295,4.306,4.3184,4.3515,4.4076,4.3873,4.3663,4.3663,4.453,4.5128,4.5128,4.6456,4.7186,4.6952,4.6935,4.6819,4.6601,4.5438,4.4673,4.4408,4.2945,4.1711,0.0,0.0,0.0,0.0,0.0,0.0,0.0,0.0,0.0,0.0,0.0,0.0,0.0,0.0,0.0,0.0,0.0,0.0,0.0,0.0,0.0,0.0,0.0,0.0,0.0,4.6614,4.7901,4.8204,4.9358,4.9575,4.8195,4.7765,4.7428,4.7192,4.7175,4.7496,4.824,4.8481,4.8835,4.9312,4.958,4.971,4.971,4.971,4.9936,5.038,4.9907,4.9936,5.0352,4.9907,4.9985,5.0415,4.9916,4.9985,5.0398,4.9916,4.971,4.96,4.8655,4.8291,4.8291,4.8291,4.8291,4.8359,4.8832,4.9001,4.8934,4.8443,4.8069,4.7646,4.6686,4.6172,4.5831,4.5343,4.5205,4.5205,4.5205,4.5772,4.6224,4.5736,4.6011,4.6206,4.5736,4.5265,4.4944,4.5169,4.4879,4.4418,4.391,4.4231,4.4429,4.3893,4.4248,4.4615,4.4615,4.4615,4.4615,4.4615,4.5263,4.5703,4.5703,4.6836,4.753,4.753,4.753,4.753,4.753,4.6363,4.5703,4.5703,4.4198,4.2811,4.1576,0.0,0.0,0.0,0.0,0.0,0.0,0.0,0.0,0.0,0.0,0.0,0.0,0.0,0.0,0.0,0.0,0.0,0.0,0.0,0.0,0.0,0.0,0.0,4.6752,4.8714,5.0132,5.0215,5.1452,5.1519,4.9399,4.9114,4.8792,4.8081,4.8013,4.8301,4.9012,4.9664,5.0016,5.0016,5.0716,5.1086,5.1086,5.1086,5.1112,5.1138,5.1112,5.1112,5.1138,5.1112,5.1086,5.1086,5.1086,5.1086,5.1086,5.1086,5.1086,5.0955,4.961,4.9063,4.9063,4.9063,4.9063,4.9063,4.9063,4.9063,4.9063,4.9063,4.847,4.7805,4.7754,4.7132,4.646,4.6407,4.6407,4.6407,4.6407,4.6991,4.7209,4.5847,4.656,4.7192,4.583,4.5537,4.5707,4.6288,4.5459,4.4654,4.4626,4.4598,4.4615,4.4615,4.4615,0.0,4.4615,4.4615,4.4615,4.4615,4.5229,4.5669,4.5669,4.6346,4.6752,4.6752,4.6786,4.6786,4.6786,4.6092,4.5703,4.5669,4.4153,4.3047,4.2286,0.0,0.0,0.0,0.0,0.0,0.0,0.0,0.0,0.0,0.0,0.0,0.0,0.0,0.0,0.0,0.0,0.0,0.0,0.0,0.0,0.0,4.7061,4.8157,4.8365,4.9373,5.0708,5.2389,5.2932,5.316,5.3054,5.2061,5.1297,5.1105,5.0562,5.0307,5.05,5.0689,5.0796,5.0796,5.0981,5.1086,5.1086,5.1086,5.1343,5.1832,5.1343,5.1343,5.1808,5.1317,5.1086,5.1086,5.1086,5.1086,5.1086,5.1086,5.1086,5.106,5.0662,5.0517,5.0517,5.0517,5.0517,5.0517,5.0517,5.0517,5.0517,5.0517,5.0355,4.9952,4.8843,4.8317,4.79,4.6725,4.6407,4.6407,4.6407,4.6566,4.6624,4.6244,4.6464,4.6624,4.6244,4.6143,4.6192,4.6383,4.6119,4.5757,4.532,4.4879,4.4615,4.4615,4.4615,0.0,4.4615,4.4615,4.4615,4.4615,4.4801,4.4919,4.4919,4.5585,4.6007,4.6007,4.6498,4.6786,4.6786,4.6092,4.5449,4.4891,4.391,4.3047,0.0,0.0,0.0,0.0,0.0,0.0,0.0,0.0,0.0,0.0,0.0,0.0,0.0,0.0,0.0,0.0,0.0,0.0,0.0,0.0,0.0,0.0,4.8886,5.026,5.1222,5.1716,5.2471,5.3783,5.4215,5.4472,5.4601,5.3467,5.2635,5.2316,5.1555,5.1086,5.1086,5.1368,5.1519,5.1519,5.1825,5.1988,5.1988,5.1988,5.2172,5.2554,5.2172,5.2196,5.2554,5.2172,5.1988,5.1988,5.1988,5.1988,5.1988,5.1988,5.1988,0.0,0.0,0.0,0.0,0.0,5.1086,5.1086,5.1086,5.1086,5.1086,5.1086,5.1053,5.078,4.9531,4.9172,4.8857,4.7557,4.7198,4.7198,4.7198,4.7198,4.7132,4.6887,4.7021,4.7132,4.6869,4.6819,4.6892,4.7154,4.6778,0.0,4.6305,4.5757,4.5267,4.5025,4.4971,4.4896,4.4626,4.4615,4.4615,4.4615,4.4615,4.4615,4.4615,4.4976,0.0,0.0,0.0,4.5872,4.5872,4.5466,0.0,0.0,0.0,0.0,0.0,0.0,0.0,0.0,4.287,4.2794,0.0,0.0,0.0,0.0,0.0,0.0,0.0,0.0,0.0,0.0,0.0,0.0,0.0,0.0,0.0,0.0,5.0991,5.2305,5.4446,5.4874,5.4954,5.4872,5.5439,5.5608,5.5052,5.4171,5.3389,5.2713,5.1841,5.1335,5.1335,0.0,0.0,0.0,0.0,5.3185,5.3185,5.3185,5.3185,5.3185,5.3185,5.3185,5.3185,5.3185,5.3185,5.3185,5.3185,5.3185,5.3185,5.3185,5.3185,5.3082,5.1825,5.1335,5.1335,5.1335,5.1335,5.1335,5.1335,0.0,0.0,5.1335,5.1244,5.1008,5.0195,4.9934,4.9702,4.8838,4.8581,4.8581,4.8581,4.8581,4.8446,4.7907,4.8117,4.8298,4.7759,4.7563,4.7656,4.8191,4.7388,4.6801,4.7406,4.6887,4.6216,4.5681,4.5597,4.5407,4.4852,4.4786,4.4786,4.4786,0.0,0.0,4.495,4.5018,4.5035,4.495,4.4865,4.4786,4.4786,4.4786,4.4848,4.495,4.495,4.4984,4.5097,4.6341,4.6952,4.69,4.4258,4.4104,0.0,0.0,0.0,0.0,0.0,0.0,0.0,0.0,0.0,0.0,0.0,0.0,0.0,0.0,0.0,5.0805,5.2666,5.433,5.5397,5.6606,5.7121,5.6531,5.6579,5.6866,5.7285,5.602,5.5108,5.4962,5.363,5.2787,5.2787,5.2915,5.2999,5.2999,5.3143,5.3185,5.3185,5.3185,5.3185,5.3185,0.0,0.0,5.3185,5.3185,5.3185,5.3185,5.3185,5.3185,5.3185,5.3185,5.3185,5.3164,5.2893,5.2787,5.2787,5.2787,5.2787,5.2787,5.2787,5.2787,5.2787,5.2787,5.2784,5.2615,5.1791,5.1545,0.0,5.0545,5.0325,5.0325,5.0325,5.0325,5.0305,5.0167,4.9751,4.9314,4.9197,4.8628,4.8172,4.8287,4.8094,4.7977,4.8094,4.7176,4.6359,4.624,4.6216,4.6192,4.6063,4.6046,4.6046,4.6046,4.6692,4.7103,4.7103,4.7691,4.7779,4.7139,4.6439,4.6046,4.6046,4.6046,4.6386,4.7103,4.7103,4.7427,4.8068,4.8335,4.848,4.8463,4.7897,4.7844,0.0,0.0,0.0,0.0,0.0,0.0,0.0,0.0,0.0,0.0,0.0,4.8131,4.9252,0.0,5.1681,5.325,5.4749,5.5986,5.6787,5.7536,5.7862,5.7474,5.7449,5.7589,5.7955,5.6914,5.6033,5.5633,5.4473,5.3628,5.3203,5.3185,5.3185,5.3185,5.3185,5.3185,5.3185,5.3185,5.3185,5.3185,5.3185,5.3185,5.3185,5.3185,5.3185,5.3185,5.3185,5.3185,5.3185,5.3185,5.3185,5.3185,5.3185,5.3185,5.3185,5.3185,5.3185,5.3185,5.3185,5.3185,5.3185,5.3185,5.3185,5.3059,5.2234,5.1995,5.183,5.1041,5.0802,5.0802,5.0802,5.0802,5.0802,5.0802,5.049,5.0196,5.0196,4.9536,4.8948,4.8948,4.86,4.8306,4.8306,4.7759,4.7259,4.6955,4.691,4.6778,4.6454,4.6407,4.6407,4.6407,4.718,4.77,4.77,4.844,4.8724,4.8334,4.7902,4.7647,4.7647,4.7647,4.7842,4.8274,4.8292,4.8511,4.8908,4.9615,4.9937,4.9996,5.1128,5.105,0.0,0.0,0.0,0.0,0.0,0.0,0.0,0.0,4.7761,4.8429,4.9221,5.0196,5.1562,5.2504,5.3746,5.568,5.6578,5.7262,5.7905,5.7997,5.7997,5.7997,5.7997,5.7997,5.7997,5.7281,5.6473,5.5647,5.484,5.4051,5.3243,5.3185,5.3185,5.3185,5.3185,5.3185,5.3185,5.3185,5.3185,5.3185,5.3185,5.3185,5.3185,5.3185,5.3185,5.3185,5.3185,5.3185,5.3185,5.3185,5.3185,5.3185,5.3185,5.3185,5.3185,5.3185,5.3185,5.3185,5.3185,5.3185,5.3185,5.3185,5.3185,5.3096,5.2435,5.2234,5.2087,5.1463,5.1279,5.1279,5.1279,5.1279,5.1279,5.1279,5.1151,5.1041,5.1041,5.0398,4.9794,4.9629,4.9022,4.8508,4.8343,4.8306,4.8114,4.7635,4.7572,4.7385,4.6847,4.6921,4.701,4.701,4.7931,4.8597,4.8758,4.921,4.9502,4.9502,4.9377,4.9264,4.9264,4.9264,4.9335,4.9502,4.9502,4.9591,4.9752,5.0872,5.1515,5.1697,5.3544,5.3431,4.799,4.7361,4.6904,4.6802,4.7695,4.8737,0.0,0.0,5.0876,5.1574,5.2347,5.3127,5.3898,5.5276,5.6383,5.6658,5.7345,5.7905,5.7997,5.7997,5.7997,5.7997,5.7997,5.7997,5.7997,5.7281,5.6473,5.5647,5.484,5.4051,5.3243,5.3185,5.3185,5.3185,5.3185,5.3185,5.3185,5.3185,5.3185,5.3185,5.3185,5.3185,5.3185,5.3185,5.3185,5.3185,5.3185,5.3185,5.3185,5.3185,5.3185,5.3185,5.3185,5.3185,5.3185,5.3185,5.3185,5.3185,5.3185,5.3185,5.3185,5.3185,5.3185,5.3167,5.3075,5.3078,5.3059,5.2947,5.2928,5.2928,5.2928,5.2928,5.2928,5.2928,5.2399,5.1867,5.1867,5.1224,5.0453,4.9739,4.9519,4.9225,4.8434,4.8306,4.8287,4.821,4.8191,4.8172,4.8094,4.8753,4.9248,4.9248,5.0602,5.181,5.252,5.2011,5.1645,5.1645,5.0986,5.0581,5.0581,5.0581,5.0931,5.1645,5.1645,5.2011,5.2703,5.2877,5.3323,5.4019,5.4286,5.4268,4.994,4.9166,4.8707,4.9169,4.9773,5.0541,5.1694,5.223,5.2678,5.3354,5.4105,5.4925,5.5658,5.6363,5.695,0.0,5.7776,5.7997,5.7997,5.7997,5.7831,5.7373,5.7703,5.7997,5.7997,5.7703,5.6969,5.5684,5.528,5.4546,5.328,5.3185,5.3185,5.3185,5.3185,5.3185,5.3185,5.3185,5.3185,5.3185,5.3185,5.3185,5.3185,5.3185,5.3185,5.3185,5.3185,5.3185,5.3185,5.3185,5.3185,5.3185,5.3185,5.3185,5.3185,5.3185,5.3185,5.3185,5.3185,5.3185,5.3185,5.3185,5.3185,5.3185,5.3185,5.3185,5.3185,5.3185,5.3185,5.3185,5.3185,5.3185,5.3185,5.3185,5.2949,5.2711,5.2711,5.2068,5.1389,5.1061,5.0618,5.0178,4.9829,4.9756,4.9756,4.9756,4.893,4.8489,4.8985,4.9372,4.9959,5.0914,5.1591,5.2325,5.3133,5.2894,5.2711,5.2711,5.238,5.2215,5.2215,5.2215,5.2362,5.2692,5.2711,5.2858,5.3185,5.3683,5.4069,5.4418,5.5372,5.5794,5.0665,5.0309,5.037,5.0988,5.163,5.2469,5.3724,5.4164,5.4555,5.5251,5.5849,5.6436,5.7024,5.7134,5.7317,5.7905,5.7997,5.7997,5.7997,5.7813,5.7446,5.6877,5.7116,5.7336,5.7336,5.7538,5.7079,5.5684,5.5372,5.4656,5.328,5.3185,5.3185,5.3185,5.3185,5.3185,5.3185,5.3185,5.3185,5.3185,5.3185,5.3185,5.3185,5.3185,5.3185,5.3185,5.3185,5.3185,5.3185,5.3185,5.3185,5.3185,5.3185,5.3185,5.3185,5.3185,5.3185,5.3185,5.3185,5.3185,5.3185,5.3185,5.3185,5.3185,5.3185,5.3185,5.3185,5.3185,5.3185,5.3185,5.3185,5.3185,5.3185,5.3185,5.3185,5.3185,5.3185,5.2747,5.227,5.2032,5.1518,5.1059,5.0839,5.0802,5.0802,5.0802,4.9774,4.9224,4.9867,5.0124,5.0804,5.2179,5.2325,5.2564,5.3148,5.3185,5.3185,5.3185,5.3185,5.3185,5.3185,5.3185,5.3185,5.3185,5.3185,5.3295,5.3537,5.4124,5.4638,5.5097,5.6271,5.6932,4.9263,4.9943,5.1094,5.1164,5.2867,5.4717,5.5544,5.6241,5.6928,5.774,5.7905,5.7923,5.796,5.796,5.796,5.7997,5.7997,5.7997,5.7997,5.7336,5.684,5.6804,5.6124,5.5666,0.0,5.6381,5.6492,5.5647,5.4876,5.4069,5.3243,5.3185,5.3185,5.3185,5.3185,5.3185,5.3185,5.3185,5.3185,5.3185,5.3185,5.3185,5.3185,5.3185,5.3185,5.3185,5.3185,5.3185,5.3185,5.3185,5.3185,5.3185,5.3185,5.3185,5.3185,5.3185,5.3185,5.3185,5.3185,5.3185,5.3185,5.3185,5.3185,5.3185,5.3185,5.3185,5.3185,5.3185,5.3185,5.3185,5.3185,5.3185,5.3185,5.3185,5.3185,5.3185,5.3185,5.3167,5.2931,5.2142,5.1977,5.172,5.093,5.0802,5.0802,5.0802,5.0765,5.0729,5.0765,5.1444,5.2234,5.3096,5.317,5.3167,5.3185,5.3185,5.3185,5.3185,5.3185,5.3185,5.3185,5.3185,5.3185,5.3185,5.3185,5.3592,5.4363,5.4399,5.5207,5.673,5.6785,5.7226,5.0911,5.1692,5.2758,5.3839,5.5111,5.6267,5.7076,5.7418,5.7666,5.7941,5.7574,5.7207,5.7207,5.7207,5.7207,5.7207,5.7648,5.7997,5.7997,5.7776,5.7207,5.6124,5.6235,0.0,0.0,0.0,0.0,5.4858,5.4546,5.4051,5.3243,5.3185,5.3185,5.3185,5.3185,5.3185,5.3185,5.3185,5.3185,5.3185,5.3185,5.3185,5.3185,5.3185,5.3185,5.3185,5.3185,5.3185,5.3185,5.3185,5.3185,5.3185,5.3185,5.3185,5.3185,5.3185,5.3185,5.3185,5.3185,5.3185,5.3185,5.3185,5.3185,5.3185,5.3185,5.3185,5.3185,5.3185,5.3185,5.3185,5.3185,5.3185,5.3185,5.3185,5.3185,5.3185,5.3185,5.3185,5.3112,5.2858,5.2803,5.2711,5.2454,5.2399,5.2399,5.2399,5.194,5.1591,5.1591,5.2307,5.2913,5.3167,5.3185,5.3185,5.3185,5.3185,5.3185,5.3185,5.3185,5.3185,5.3185,5.3185,5.3463,5.3995,5.4014,5.4399,5.5188,5.5739,5.6271,5.6822,5.7354,5.774,5.2123,5.3023,5.4032,5.5629,5.6638,5.7373,5.7886,5.7997,5.7923,5.7629,5.7171,5.6712,5.6418,5.6363,5.6473,5.6767,5.7226,5.7666,5.796,5.7501,5.6748,5.5702,5.5556,5.5115,0.0,0.0,0.0,5.4418,5.4124,5.3757,5.3222,5.3185,5.3185,5.3185,5.3185,5.3185,5.3185,5.3185,5.3185,5.3185,5.3185,5.3185,5.3185,5.3185,5.3185,5.3185,5.3185,5.3185,5.3185,5.3185,5.3185,5.3185,5.3185,5.3185,5.3185,5.3185,5.3185,5.3185,5.3185,5.3185,5.3185,5.3185,5.3185,5.3185,5.3185,5.3185,5.3185,5.3185,5.3185,5.3185,5.3185,5.3185,5.3185,5.3185,5.3185,5.3185,5.3185,5.3185,5.3185,5.3185,5.3185,5.3185,5.3185,5.3185,5.3185,5.3185,5.2766,5.2435,5.2435,5.2894,5.3185,5.3185,5.3185,5.3185,5.3185,5.3185,5.3185,5.3185,5.3185,5.3335,5.3628,5.3628,5.4014,5.4803,5.4821,5.5225,5.6033,5.6547,5.695,5.7244,5.7758,5.7997,5.2858,5.3885,5.4895,5.6473,5.7446,5.7997,5.7997,5.796,5.7721,5.6969,5.6748,5.6436,0.0,0.0,5.5849,5.662,5.6822,5.7134,5.7886,5.6675,5.5706,0.0,0.0,0.0,0.0,0.0,0.0,5.4289,0.0,5.3185,5.3185,5.3185,5.3185,5.3185,5.3185,5.3185,5.3185,5.3185,5.3185,5.3185,5.3185,5.3185,5.3185,5.3185,5.3185,5.3185,5.3185,5.3185,5.3185,5.3185,5.3185,5.3185,5.3185,5.3185,5.3185,5.3185,5.3185,5.3185,5.3185,5.3185,5.3185,5.3185,5.3185,5.3185,5.3185,5.3185,5.3185,5.3185,5.3185,5.3185,5.3185,5.3185,5.3185,5.3185,5.3185,5.3185,5.3185,5.3185,5.3185,5.3185,5.3185,5.3185,5.3185,5.3185,5.3185,5.3185,5.3185,5.3185,5.3185,5.3185,5.3185,5.3185,5.3185,5.3185,5.3185,5.3185,5.3185,5.3185,5.3243,5.361,5.4363,5.4436,5.484,5.5669,5.5647,5.6051,5.6877,5.6877,5.7262,5.7997,5.7997,5.7997,5.383,5.5133,5.6436,5.7446,5.785,5.7997,5.7997,5.7538,5.706,5.684,5.5849,5.495,0.0,0.0,0.0,5.5868,5.6914,0.0,5.796,5.7648,0.0,5.5743,0.0,5.4528,5.3314,5.3185,0.0,0.0,5.3314,5.3185,5.3185,5.3185,5.3185,5.3185,5.3185,5.3185,5.3185,5.3185,5.3185,5.3185,5.3185,5.3185,5.3185,5.3185,5.3185,5.3185,5.3185,5.3185,5.3185,5.3185,5.3185,5.3185,5.3185,5.3185,5.3185,5.3185,5.3185,5.3185,5.3185,5.3185,5.3185,5.3185,5.3185,5.3185,5.3185,5.3185,5.3185,5.3185,5.3185,5.3185,5.3185,5.3185,5.3185,5.3185,5.3185,5.3185,5.3185,5.3185,5.3185,5.3185,5.3185,5.3185,5.3185,5.3185,5.3185,5.3185,5.3185,5.3185,5.3185,5.3185,5.3185,5.3185,5.3185,5.3185,5.3185,5.3185,5.3185,5.3185,5.3775,5.4197,5.4399,5.4968,5.5666,5.6492,5.6492,5.6895,5.7685,5.7685,5.7795,5.7997,5.7997,5.7997,5.5042,5.6124,5.6987,5.7795,5.7721,5.7464,5.7464,5.684,5.618,5.5831,5.5042,5.4179,5.3482,5.4289,5.506,0.0,0.0,0.0,5.7941,5.7703,5.7134,0.0,5.55,0.0,5.3812,5.3427,5.3185,0.0,5.3185,5.3185,5.3185,5.3185,5.3185,5.3185,5.3185,5.3185,5.3185,5.3185,5.3185,5.3185,5.3185,5.3185,5.3185,5.3185,5.3185,5.3185,0.0,5.3185,5.3185,5.3185,5.3185,5.3185,5.3185,5.3185,5.3185,5.3185,5.3185,5.3185,5.3185,5.3185,5.3185,5.3185,5.3185,5.3185,5.3185,5.3185,5.3185,5.3185,5.3185,5.3185,5.3185,5.3185,5.3185,5.3185,5.3185,5.3185,5.3185,5.3185,5.3185,5.3185,5.3185,5.3185,5.3185,5.3185,5.3185,5.3185,5.3185,5.3185,5.3185,5.3185,5.3185,5.3185,5.3185,5.3185,5.3185,5.3537,5.3739,5.3739,5.4473,5.5078,5.5445,5.5886,5.651,5.7317,5.7336,5.7556,5.7997,5.7997,5.7997,5.7997,5.7997,5.7997,5.6235,5.6895,5.7134,5.7831,5.7409,5.6804,5.6804,5.6088,5.5207,5.4418,0.0,5.361,5.2105,5.3151,5.4289,5.4381,0.0,5.7079,5.7886,5.7459,5.6971,5.675,5.5499,5.4543,5.4341,5.3697,5.3251,5.3206,5.3251,5.3251,5.3206,5.3185,5.3185,5.3185,5.3185,5.3185,5.3185,5.3185,5.3148,5.3041,5.3148,5.313,5.3038,5.3148,5.3185,5.3185,5.3185,5.3185,5.3185,5.3185,5.3185,5.3185,5.3185,5.3185,5.3185,5.3185,5.3185,5.3185,5.3185,5.3185,5.3185,5.3185,5.3185,5.3185,5.3185,5.3185,5.3185,5.3185,5.3185,5.3185,5.3185,5.3185,5.3185,5.3185,5.3185,5.3185,5.3185,5.3185,5.3185,5.3185,5.3185,5.3185,5.3185,5.3185,5.3185,5.3185,5.3185,5.3185,5.3185,5.3185,5.3185,5.3185,5.3185,5.3243,5.3353,5.4014,5.4454,5.4546,5.5299,5.6069,5.6785,5.6914,5.7299,5.7997,5.7997,5.7997,5.7997,5.7997,5.7997,5.7997,5.7997,5.8052,5.6693,5.7299,5.7831,5.796,5.7409,5.6804,5.6804,5.5666,0.0,0.0,5.2876,5.2123,5.1187,5.2325,5.3628,5.4289,5.5757,5.7079,5.7886,5.82,5.7864,0.0,5.6099,5.5431,5.4055,5.3794,0.0,0.0,5.3505,5.3564,5.3227,5.3185,5.3185,5.3185,5.3185,5.3185,5.3185,5.3185,5.2876,5.2215,5.2894,5.2858,5.2234,5.2913,5.3185,5.3185,5.3185,0.0,5.3185,5.3185,5.3185,5.3185,5.3185,5.3185,5.3185,5.3185,5.3185,5.3185,5.3185,5.3185,5.3185,5.3185,5.3185,5.3185,5.3185,5.3185,5.3185,5.3185,5.3185,5.3185,5.3185,5.3185,5.3185,5.3185,5.3185,5.3185,5.3185,5.3185,5.3185,5.3185,5.3185,5.3185,5.3185,5.3185,5.3185,5.3185,5.3185,5.3185,5.3185,5.3185,5.3185,5.3185,5.3185,5.3482,5.4142,5.4326,5.4675,5.5335,5.6143,5.6657,5.6804,5.7446,5.785,5.7997,5.7997,5.7997,5.7997,5.7997,5.7997,5.7997,5.7997,5.8364,5.7207,5.7703,5.7997,5.7997,5.7079,5.618,5.618,0.0,0.0,0.0,5.194,5.1132,5.0306,5.183,0.0,5.3151,5.484,5.6455,5.7262,5.7767,5.77,5.6628,5.6554,5.605,0.0,5.4275,5.4085,5.3888,5.4049,5.3888,5.323,5.3185,5.3185,5.3185,5.3185,5.3185,5.3185,5.2784,5.238,5.1995,5.238,5.2362,5.2013,5.2839,5.3185,5.3185,5.3185,5.3185,5.3185,5.3185,5.3185,5.3185,5.3185,5.3185,5.3185,5.3185,5.3185,5.3185,5.3185,5.3185,5.3185,5.3185,5.3185,5.3185,5.3185,5.3185,5.3185,5.3185,5.3185,5.3185,5.3185,5.3185,5.3185,5.3185,5.3185,5.3185,5.3185,5.3185,5.3185,5.3185,5.3185,5.3335,5.3757,5.383,5.3977,5.4399,5.4454,5.4454,5.4454,5.4454,5.4289,5.3867,5.4197,5.4601,5.4987,5.5409,5.5812,5.6198,5.6987,5.7428,5.7428,5.7795,5.7997,5.7997,5.7997,5.7997,5.7997,5.8419,5.8621,5.8639,5.9061,5.9465,5.7648,5.7997,5.7997,5.7997,5.6785,5.5614,5.5614,5.372,0.0,0.0,5.1096,5.0288,4.9482,5.1022,5.2289,0.0,5.361,5.5427,5.6418,5.7101,5.7327,0.0,5.6874,0.0,5.5149,5.4778,0.0,5.4519,5.4503,5.4154,5.338,5.3336,5.3274,5.3206,5.3274,5.3201,5.2949,5.2307,5.183,5.1481,5.1646,5.1646,5.1518,5.2509,5.2949,5.2968,5.3133,5.3185,5.3185,5.3185,5.3185,5.3185,5.3185,5.3185,5.3185,5.3185,5.3185,5.3185,5.3185,5.3185,5.3185,5.3185,5.3185,5.3185,5.3185,5.3185,5.3185,5.3185,5.3185,5.3185,5.3185,5.3185,5.3185,5.3185,5.3185,5.3185,5.3185,5.3332,5.3463,5.3463,5.361,5.3922,5.4546,5.4656,5.4858,5.5482,5.5614,5.5614,5.5614,5.5739,5.5611,5.4987,5.5317,5.5666,5.5831,5.6436,5.6877,5.706,5.7648,5.7997,5.7997,5.7997,5.7997,5.7997,5.7997,5.8088,5.8253,5.8896,5.9276,5.9459,6.0126,6.0493,5.796,5.7997,5.7997,5.7997,5.6785,5.5614,5.5614,0.0,5.1775,5.1059,5.027,4.9463,4.8581,4.9242,0.0,0.0,0.0,5.3959,5.5482,5.6751,5.734,5.694,0.0,0.0,5.5199,5.5059,5.4876,5.4535,5.4503,5.4272,5.3758,5.374,5.3585,5.3206,5.3546,5.3213,5.2126,5.2032,5.1281,4.9831,5.0563,5.0527,4.9867,5.1408,5.2105,5.2142,5.2894,5.3185,0.0,5.3185,5.3185,5.3185,5.3185,5.3185,5.3185,5.3185,5.3185,5.3185,5.3185,5.3185,5.3185,5.3185,5.3185,5.3185,5.3185,5.3185,5.3185,5.3185,5.3185,5.3185,5.3185,5.3185,5.3185,5.3185,5.3185,5.3185,5.3185,5.3775,5.4289,5.4289,5.4876,5.539,5.5464,5.5504,5.55,5.5574,5.5614,5.5614,5.5614,5.6235,5.6657,5.6602,5.5996,5.5886,5.6638,5.6767,5.7116,5.7831,5.796,5.7997,5.7997,5.7997,5.7997,5.7997,5.7997,5.8364,5.9074,5.9148,5.957,6.0291,6.0382,6.0786,5.7152,5.7629,5.7997,5.7997,5.6785,5.5614,5.5614,0.0,5.1187,5.0875,4.9738,4.871,4.8361,4.9003,4.9702,5.0013,5.1426,0.0,5.3995,5.5251,5.5881,5.5466,5.6101,0.0,0.0,0.0,5.5399,5.5224,5.4993,5.4547,5.3838,5.4072,5.3893,5.3215,5.3105,5.2605,5.1583,5.0906,5.0235,4.961,4.9903,4.9922,4.9647,5.1281,5.1995,5.2032,5.2858,5.3185,0.0,5.3185,5.3185,5.3185,5.3185,5.3185,5.3185,5.3185,5.3185,5.3185,5.3185,5.3185,5.3185,5.3185,5.3185,5.3185,5.3185,5.3185,5.3185,5.3185,5.3185,5.3185,5.3185,5.3185,5.3185,5.3185,5.3573,5.3922,5.3922,5.4546,5.5115,5.5115,5.5372,5.5739,5.6235,5.6326,5.6492,5.6969,5.7042,5.7042,5.7042,5.7317,5.7519,5.7519,5.7244,5.7171,5.7501,5.7519,5.7666,5.7978,5.7997,5.7997,5.7997,5.7997,5.7997,5.7997,5.8492,5.8872,5.9184,6.0181,6.0805,6.1135,6.163,6.2034,5.6538,5.7391,5.7997,5.7997,5.6785,5.5614,0.0,5.3115,5.0802,5.0802,4.9481,4.8306,4.8306,4.8802,4.9225,4.9225,5.0381,5.1646,5.2711,5.3815,5.4589,0.0,0.0,5.5836,0.0,5.5375,5.5588,5.5357,5.509,5.4536,5.3682,5.3946,5.3712,5.2831,5.2672,5.208,5.0948,5.0158,4.9562,4.9225,4.9225,4.9225,4.928,5.0894,5.1646,5.1701,5.2747,5.3185,0.0,5.3185,5.3185,5.3185,5.3185,5.3185,5.3185,5.3185,5.3185,5.3185,5.3185,5.3185,5.3185,5.3185,5.3185,5.3185,5.3185,5.3185,5.3185,5.3185,5.3185,5.3185,5.3185,5.3185,5.3185,5.3185,5.3812,5.4399,5.4399,5.5225,5.5941,5.5941,5.6143,5.6492,5.706,5.7152,5.7354,5.7905,5.7997,5.7997,5.7997,5.7997,5.7997,5.7997,5.7997,5.7997,5.7997,5.7997,5.7997,5.7997,5.7997,5.7997,5.7997,5.8235,5.8345,5.8345,5.9153,5.9661,5.9924,6.1043,6.1722,6.1961,6.2548,6.278,5.6388,5.7391,5.7997,5.7997,5.6785,5.5614,5.5614,5.3115,5.0802,5.0802,4.9481,4.8306,4.8306,4.8324,4.8324,4.8324,4.904,0.0,5.1775,5.2711,5.3838,0.0,0.0,5.57,5.5695,5.5703,5.5376,5.4568,5.4511,0.0,5.325,5.3212,5.282,5.1941,5.2365,5.1793,5.0127,5.011,4.949,4.8324,4.8324,4.8324,4.8379,5.005,5.082,5.0912,5.2509,5.3185,0.0,5.3185,5.3185,5.3185,5.3185,5.3185,5.3185,5.3185,5.3185,5.3185,5.3185,5.3185,5.3185,5.3185,5.3185,5.3185,5.3185,5.3185,5.3185,5.3185,5.3185,5.3185,5.3185,5.3185,5.3185,5.3185,5.3812,5.4399,5.4399,5.5666,5.6804,5.6804,5.7428,5.7978,5.7997,5.7997,5.7997,5.7997,5.7997,5.7997,5.7997,5.7997,5.7997,5.7997,5.7997,5.7997,5.7997,5.7997,5.7997,5.7997,5.7997,5.7997,5.7997,5.8767,5.9184,5.9184,5.9997,6.0786,6.1575,6.1575,6.2016,6.2805,6.278,6.278,5.4759,5.5739,5.6345,5.6345,5.5556,5.4638,5.4087,5.2325,5.0637,5.0086,4.9077,4.8306,4.8306,4.8306,4.8508,4.9077,4.9866,5.0784,0.0,0.0,0.0,5.4332,5.4925,5.5407,0.0,0.0,5.5376,5.4549,5.4491,5.3857,5.2385,5.2308,5.2186,5.1909,5.1564,5.0841,4.969,4.9134,4.8678,4.8306,4.8306,4.8306,4.8343,4.9462,4.9996,5.0051,5.1096,5.1573,5.161,5.2142,5.238,5.2435,5.3004,5.3185,5.3185,5.3185,5.3185,5.3185,5.3185,5.3185,5.3185,5.3185,5.3185,5.3185,5.3185,5.3185,5.3185,5.3185,5.3185,5.3185,5.3185,5.3185,5.3332,5.3904,5.4638,5.5372,5.5923,5.6877,5.7611,5.7611,5.7831,5.7997,5.7997,5.7997,5.7997,5.7997,5.7997,5.7997,5.7997,5.7997,5.7997,5.7997,5.7997,5.7997,5.7997,5.7997,5.7997,5.7997,5.7997,5.8253,5.8804,5.9056,5.9459,6.0015,6.0805,6.1355,6.1594,6.2144,6.2567,6.278,6.278,6.278,5.294,5.4289,5.506,5.4766,5.4087,5.3353,5.2858,5.1499,5.0196,4.9702,4.8912,4.8306,4.8306,4.8306,4.86,4.9463,5.0013,5.0729,0.0,0.0,0.0,5.4232,0.0,0.0,0.0,5.5703,5.5222,5.4087,5.401,5.326,5.1548,5.1452,5.1452,5.1452,5.099,5.0364,4.9522,4.8996,4.8604,4.8306,4.8306,4.8306,4.8343,4.9187,4.961,4.9647,5.0453,5.0802,0.0,5.1665,5.1995,5.2068,5.2894,5.3185,5.3185,5.3185,5.3185,5.3185,5.3185,5.3185,5.3185,5.3185,5.3185,5.3185,5.3185,5.3185,5.3185,5.3185,5.3185,5.3185,5.3185,5.3185,5.3387,5.4216,5.5005,5.5812,5.6638,5.7428,5.7997,5.7997,5.7997,5.7997,5.7997,5.7997,5.7997,5.7997,5.7997,5.7997,5.7997,5.7997,5.7997,5.7997,5.7997,5.7997,5.7997,5.7997,5.7997,5.7997,5.829,5.8694,5.9166,5.9795,6.0346,6.0841,6.1649,6.2053,6.2053,6.2567,6.278,6.278,6.278,6.278,0.0,5.2873,5.3959,5.3225,5.2472,5.1885,5.183,5.0675,0.0,4.9519,4.8857,4.8306,4.8306,4.8306,4.86,4.9463,4.961,0.0,0.0,5.2475,0.0,0.0,5.5477,0.0,5.5703,5.5703,5.4991,5.3337,5.3203,5.2472,5.0789,5.0712,5.0712,5.0712,5.0712,5.0325,4.9504,4.9475,4.9078,4.8306,4.8306,4.8306,4.8343,4.9132,4.9519,0.0,5.0306,5.0618,5.0692,5.1499,5.1848,5.1977,5.2803,5.3148,5.3185,5.3185,5.3185,5.3185,5.3185,5.3185,5.3185,5.3185,5.3185,5.3185,5.3185,5.3185,5.3185,5.3185,5.3185,5.3185,5.3185,5.3185,5.3427,5.4289,5.506,5.5831,5.6712,5.7464,5.7997,5.7997,5.7997,5.7997,5.7997,5.7997,5.7997,5.7997,5.7997,5.7997,5.7997,5.7997,5.7997,5.7997,5.8052,5.8088,5.8088,5.8033,5.8015,5.807,5.8804,5.9239,5.9368,6.0805,6.163,6.1686,6.242,6.278,6.278,6.278,6.278,6.278,6.278,6.278,4.8349,0.0,5.161,5.1408,5.1224,5.0912,0.0,4.9867,4.9408,4.8746,4.8434,4.8306,4.8306,4.8306,4.86,4.9463,0.0,5.0262,5.2196,0.0,0.0,5.5481,5.5651,5.5703,5.5703,5.5703,5.4991,5.3337,5.3203,5.2472,5.0789,5.0712,5.0712,5.0712,5.0712,5.0325,4.9504,4.9187,4.8796,4.8306,4.8306,4.8306,4.8324,4.8508,4.8618,4.8618,4.882,4.8893,4.8948,4.9793,5.0547,5.1151,5.1977,5.2656,5.3185,5.3185,5.3185,5.3185,5.3185,5.3185,5.3185,5.3185,5.3185,5.3185,5.3185,5.3185,5.3185,5.3185,5.3185,5.3185,5.3185,5.3185,5.3573,5.4968,5.5467,5.5978,5.7409,5.7868,5.7997,5.7997,5.7997,5.7997,5.7997,5.7997,5.7997,5.7997,5.7997,5.7997,5.7997,5.7997,5.7997,5.7997,5.8547,5.8933,5.8933,5.8345,5.8253,5.8872,5.9093,5.9758,6.0988,6.1392,6.1887,6.2511,6.2688,6.278,6.278,6.278,6.278,6.278,6.278,6.278,4.7341,4.9058,5.071,5.0343,5.0527,5.0582,4.9794,4.961,4.9353,4.8489,0.0,4.8306,4.8306,4.8306,4.86,0.0,4.9729,0.0,0.0,0.0,5.5237,5.5651,5.5703,5.5703,0.0,5.5703,5.5164,5.3895,5.3433,5.2626,5.1318,5.0894,5.0712,5.0712,5.0712,5.0325,4.9504,4.928,4.8863,4.8306,4.8306,4.8306,4.8306,4.8306,4.8306,4.8306,4.8306,4.8306,4.8379,4.9243,4.9867,5.0362,5.1536,5.227,5.2692,5.3078,5.3185,5.3185,5.3185,5.3185,5.3185,5.3185,5.3185,5.3185,5.3185,5.3185,5.3185,5.3185,5.3185,5.3185,5.3185,5.3185,5.361,5.5207,5.5614,5.6033,5.7648,5.7997,5.7997,5.7997,5.7997,5.7997,5.7997,5.7997,5.7997,5.7997,5.7997,5.7997,5.7997,5.7997,5.8143,5.851,5.8927,5.9349,5.9722,5.9355,5.93,5.9722,6.0107,6.0694,6.1557,6.1942,6.2365,6.278,6.278,6.278,6.278,6.278,6.278,6.278,6.278,6.3025,4.7359,4.9149,5.0618,4.9812,5.0105,5.0435,4.9757,0.0,0.0,0.0,0.0,0.0,0.0,4.8416,0.0,0.0,0.0,0.0,5.3509,5.4613,5.5319,5.5662,5.5703,0.0,5.5703,5.5703,5.5376,5.4549,5.3683,5.2818,5.1942,5.1144,5.0712,5.0712,5.0634,5.0249,4.9504,4.9489,4.9094,4.8306,4.8306,4.8306,4.8306,4.8306,4.8306,4.8306,0.0,0.0,4.8379,4.9243,4.9665,4.9941,5.1428,5.2068,5.227,5.2968,5.3185,5.3185,5.3185,5.3185,5.3185,5.3185,5.3185,5.3185,5.3185,5.3185,5.3185,5.3185,5.3185,5.3185,5.3185,5.3277,5.3775,5.5244,5.5684,5.618,5.7685,5.7997,5.7997,5.7997,5.7997,5.7997,5.7997,5.7997,5.7997,5.7997,5.7997,5.8033,5.8162,5.818,5.8492,5.9294,5.9478,5.985,6.0529,6.0713,6.0768,6.0768,6.1282,6.1649,6.1777,6.2456,6.278,6.278,6.278,6.278,6.278,6.278,6.2879,6.3007,6.3007,6.3466,4.8043,4.9586,5.0618,4.9812,4.9702,4.9757,4.9629,4.9022,0.0,0.0,0.0,0.0,0.0,4.8893,4.9544,0.0,0.0,5.3451,0.0,0.0,5.564,5.5684,0.0,5.5703,5.5703,5.5703,5.5376,5.4549,5.3683,5.2818,5.1942,5.1144,5.0712,5.0712,5.0358,4.9962,4.9504,4.9489,4.9094,4.8306,4.8306,4.8306,4.8306,4.8306,4.8306,4.8306,0.0,4.8306,4.8379,4.9243,4.9994,5.071,5.1628,5.2417,5.3041,5.3148,5.3185,5.3185,5.3185,5.3185,5.3185,5.3185,5.3185,5.3185,5.3185,5.3185,5.3185,5.3185,5.3185,5.3185,5.3185,5.372,5.4454,5.5372,5.6124,5.6877,5.7795,5.7997,5.7997,5.7997,5.7997,5.7997,5.7997,5.7997,5.7997,5.7997,5.7997,5.8253,5.8927,5.9001,5.9313,6.0144,6.0823,6.1282,6.141,6.2053,6.2438,6.2438,6.1906,6.1906,6.2603,6.275,6.278,6.278,6.278,6.278,6.278,6.278,6.3191,6.3888,6.3888,6.4328,4.78,4.9445,5.082,5.0875,5.0914,5.0785,5.0343,4.9591,4.8875,0.0,0.0,0.0,0.0,0.0,4.9953,5.0993,0.0,5.3976,5.4185,5.5069,5.5703,0.0,0.0,5.5703,5.5703,5.5703,5.5549,5.5184,5.3933,5.3029,5.2615,5.1395,5.0712,5.0712,5.0313,4.9911,4.9504,4.928,4.8863,4.8306,4.8306,4.8306,4.8306,4.8306,4.8306,4.8306,0.0,4.8306,4.8379,4.9243,4.9831,5.027,5.1518,5.2215,5.2601,5.3041,5.3185,5.3185,5.3185,5.3185,5.3185,5.3185,5.3185,5.3185,5.3185,5.3185,5.3185,5.3185,5.3185,5.3316,5.3739,5.4124,5.4711,5.5941,5.6528,5.7024,5.7831,5.7997,5.7997,5.7997,5.7997,5.7997,5.7997,5.7997,5.7997,5.7997,5.8364,5.8786,5.9148,5.957,6.0162,6.097,6.1374,6.1777,6.2218,6.2603,6.278,6.278,6.2456,6.242,6.2762,6.278,6.278,6.278,6.278,6.278,6.278,6.278,6.3264,6.409,6.409,6.4751,4.7841,4.93,5.071,5.1518,5.172,5.161,5.1187,5.0306,4.9463,0.0,0.0,0.0,0.0,4.9584,0.0,5.247,5.3617,5.4437,5.4739,5.5299,5.5703,5.5703,5.5703,5.5703,5.5703,5.5703,5.5607,5.5434,5.4049,5.3106,5.2914,5.1491,5.0663,5.0554,5.0171,4.9773,4.9356,4.8963,4.8586,4.8306,4.8306,4.8306,4.8306,4.8306,4.8306,4.8306,4.8306,4.8306,4.8379,4.9426,4.9886,5.0051,5.1646,5.227,5.2362,5.2986,5.3185,5.3185,5.3185,5.3185,5.3185,5.3185,5.3185,5.3185,5.3185,5.3185,5.3185,5.3185,5.3332,5.3628,5.4234,5.4675,5.528,5.651,5.695,5.7262,5.7868,5.7997,5.7997,5.7997,5.7997,5.7997,5.7997,5.7997,5.8052,5.8253,5.8822,5.9331,5.9698,6.0309,6.0988,6.1796,6.1887,6.2126,6.2743,6.278,6.278,6.278,6.278,6.278,6.278,6.278,6.278,6.278,6.278,6.278,6.278,6.3007,6.3539,6.4383,6.4567,6.5411,4.8917,4.957,4.9886,5.0692,5.0894,5.1077,5.1756,5.0712,4.9794,5.049,0.0,0.0,0.0,5.1281,5.2926,5.461,5.5265,5.5585,5.5607,0.0,5.5703,5.5703,5.5703,5.5703,5.5703,5.5703,5.5395,5.4645,5.3722,5.2856,5.2038,5.1164,5.0534,5.0159,4.976,4.9356,4.8947,4.8532,4.8344,4.8306,4.8306,4.8306,4.8306,4.8306,4.8306,4.8306,4.8306,4.8306,4.8434,5.005,5.071,5.0875,5.2491,5.3115,5.3112,5.3167,5.3185,5.3185,5.3185,5.3185,5.3185,5.3185,5.3185,5.3185,5.3185,5.3185,5.3185,5.3185,5.3739,5.4326,5.4381,5.5519,5.6675,5.6785,5.7373,5.7923,5.7997,5.7997,5.7997,5.7997,5.7997,5.7997,5.7997,5.7997,5.8253,5.8982,5.9148,5.9758,6.1245,6.1465,6.1814,6.264,6.2713,6.275,6.278,6.278,6.278,6.278,6.278,6.278,6.278,6.278,6.278,6.278,6.278,6.278,6.278,6.3613,6.442,6.5246,6.598,6.6788,4.8507,4.9277,4.9794,5.06,5.0417,5.0251,5.1059,5.04,4.9831,5.0637,5.0563,0.0,0.0,0.0,5.3262,5.4152,5.509,5.5703,5.5703,5.5703,5.5703,5.5703,5.5703,5.5703,5.5703,5.5241,5.4818,5.4511,5.3203,5.225,5.1923,5.1144,5.0523,5.0104,4.9719,4.9311,4.8897,4.8495,4.8306,4.8306,4.8306,4.8306,4.8306,4.8306,4.8306,4.8306,4.8306,4.8306,4.8434,5.0105,5.0802,5.0967,5.2582,5.3185,5.3185,5.3185,5.3185,5.3185,5.3185,5.3185,5.3185,5.3185,5.3185,5.3185,5.3185,5.3185,5.3316,5.3812,5.4528,5.5133,5.5133,5.5978,5.6932,5.7428,5.7776,5.7997,5.7997,5.7997,5.7997,5.7997,5.7997,5.7997,5.7997,5.7997,5.8272,5.9074,5.9648,6.0346,6.1447,6.2034,6.2475,6.2762,6.278,6.278,6.278,6.278,6.278,6.278,6.278,6.278,6.278,6.278,6.278,6.278,6.278,6.308,6.3613,6.3925,6.4769,6.6054,6.6366,6.6916,4.8117,4.8835,4.9315,4.9866,4.9591,4.9462,5.0545,5.0362,5.027,5.1353,5.1557,5.1602,5.1696,0.0,0.0,0.0,5.4975,5.5703,5.5703,5.5703,5.5703,5.5703,5.5703,5.5588,5.5338,5.4818,5.426,5.3722,5.2558,5.1788,5.1529,5.0872,5.0325,4.9924,4.9518,4.9108,4.8709,4.8439,4.8306,4.8306,4.8306,4.8306,4.8306,4.8306,4.8306,4.8306,4.8306,4.8306,4.8416,4.9829,5.071,5.1316,5.2674,5.3185,5.3185,5.3185,5.3185,5.3185,5.3185,5.3185,5.3185,5.3185,5.3185,5.3185,5.3185,5.3185,5.3369,5.4179,5.4968,5.5669,5.5904,5.6583,5.7317,5.7868,5.7997,5.7997,5.7997,5.7997,5.7997,5.7997,5.7997,5.7997,5.7997,5.7997,5.8364,5.9428,6.0052,6.0786,6.1832,6.2475,6.278,6.278,6.278,6.278,6.278,6.278,6.278,6.278,6.278,6.278,6.278,6.278,6.278,6.278,6.278,6.3227,6.409,6.4347,6.5173,6.6512,6.6751,6.7155,4.7957,4.8306,4.8306,4.8306,4.8324,4.8746,5.0417,5.0802,5.1261,5.2876,5.3218,5.3101,5.2685,5.3652,0.0,5.4491,5.5184,5.5703,5.5703,5.5703,5.5703,5.5703,5.5684,5.5376,5.4587,5.4472,5.376,5.2019,5.1885,5.1548,5.075,5.0325,4.9924,4.9504,4.9108,4.871,4.8306,4.8306,4.8306,4.8306,4.8306,4.8306,4.8306,4.8306,4.8306,4.8306,4.8306,4.8306,4.8379,4.9262,5.0565,5.2068,5.2894,5.3185,5.3185,5.3185,5.3185,5.3185,5.3185,5.3185,5.3185,5.3185,5.3185,5.3185,5.3185,5.3185,5.3369,5.4179,5.4987,5.5776,5.6602,5.7409,5.7997,5.7997,5.7997,5.7997,5.7997,5.7997,5.7997,5.7997,5.7997,5.7997,5.7997,5.7997,5.8547,6.0162,6.0401,6.0988,6.2578,6.278,6.278,6.278,6.278,6.278,6.278,6.278,6.278,6.278,6.278,6.278,6.278,6.278,6.278,6.278,6.278,6.3227,6.4108,6.4916,6.5723,6.6531,6.732,6.7687,4.7957,4.8306,0.0,4.8306,0.0,0.0,0.0,5.0802,0.0,0.0,5.3879,5.3985,5.3535,5.4263,0.0,5.4556,5.5184,5.5703,5.5703,5.5703,5.5703,5.5703,5.5203,5.4761,5.4511,5.3395,5.2462,5.1942,5.1375,5.0952,5.0712,5.0325,4.9924,4.9504,4.9108,4.871,4.8306,4.8306,4.8306,4.8306,4.8306,4.8306,4.8306,4.8306,4.8306,4.8306,4.8306,4.8306,4.8416,4.9848,5.1059,5.2068,5.2894,5.3185,5.3185,5.3185,5.3185,5.3185,5.3185,5.3185,5.3185,5.3185,5.3185,5.3185,5.3185,5.3185,5.35,5.4858,5.5409,5.5904,5.7281,5.7813,5.7997,5.7997,5.7997,5.7997,5.7997,5.7997,5.7997,5.7997,5.7997,5.7997,5.7997,5.7997,5.8547,6.0162,6.0401,6.0988,6.2578,6.278,6.278,6.278,6.278,6.278,6.278,6.278,6.278,6.278,6.278,6.278,6.278,6.278,6.278,6.278,6.278,6.3521,6.4952,6.5191,6.5999,6.7338,6.7577,6.7687,4.7957,4.8306,0.0,4.8728,4.9225,4.9945,5.1208,0.0,0.0,0.0,5.4544,5.4601,5.4148,5.4776,0.0,5.4133,5.4684,5.5107,5.4761,5.4703,5.4703,5.4703,5.428,5.3857,5.351,5.2519,5.1769,5.1452,5.0971,5.0624,5.0472,5.008,4.9692,4.928,4.8863,4.855,4.8306,4.8306,4.8306,4.8306,4.8306,4.8306,4.8306,4.8306,4.8306,4.8306,4.8306,4.8306,4.8434,5.0105,5.1096,5.1628,5.2766,5.3185,5.3185,5.3185,5.3185,5.3185,5.3185,5.3185,5.3185,5.3185,5.3185,5.3185,5.3185,5.3185,5.3555,5.5133,5.5614,5.5959,5.7574,5.7997,5.7997,5.7997,5.7997,5.7997,5.7997,5.7997,5.7997,5.7997,5.7997,5.7997,5.7997,5.7997,5.8547,6.0162,6.0951,6.1704,6.2695,6.278,6.278,6.278,6.278,6.278,6.278,6.278,6.278,6.278,6.278,6.278,6.278,6.278,6.278,6.278,6.278,6.3606,6.5319,6.5319,6.6127,6.7687,6.7687,6.7687,4.7957,4.8306,4.8508,4.939,4.9741,0.0,5.2325,5.3364,5.4151,5.4933,0.0,5.504,5.4679,5.5203,5.5184,5.3587,5.3972,5.4203,5.3318,5.3203,5.3203,5.3203,5.3126,5.2779,5.1981,5.1827,5.1491,5.077,5.0712,5.0514,5.0116,4.9719,4.9311,4.8913,4.8513,4.8306,4.8306,4.8306,4.8306,4.8306,4.8306,4.8306,4.8306,4.8306,4.8306,4.8306,4.8306,4.8306,4.8416,5.0031,5.0729,5.0949,5.2491,5.3151,5.3185,5.3185,5.3185,5.3185,5.3185,5.3185,5.3185,5.3185,5.3185,5.3185,5.3185,5.3185,5.3555,5.5133,5.5614,5.5959,5.7574,5.7997,5.7997,5.7997,5.7997,5.7997,5.7997,5.7997,5.7997,5.7997,5.7997,5.7997,5.7997,5.7997,5.8547,6.0162,6.1722,6.2707,6.278,6.278,6.278,6.278,6.278,6.278,6.278,6.278,6.278,6.278,6.278,6.278,6.278,6.278,6.278,6.278,6.278,6.3594,6.5191,6.5264,6.609,6.7577,6.765,6.7687,4.7957,4.8306,0.0,4.939,5.0785,5.2324,5.3766,5.4477,5.4876,5.5061,5.5343,5.553,5.5462,5.5568,5.5376,5.4376,5.4376,5.4203,5.3318,5.3203,5.3203,5.3203,5.2596,5.2115,5.1923,5.1337,5.0894,5.0712,5.0712,5.0514,5.0116,4.9719,4.9311,4.8913,4.8513,4.8306,4.8306,4.8306,4.8306,4.8306,4.8306,4.8306,4.8306,4.8306,4.8306,4.8306,4.8306,4.8306,4.8379,4.9426,5.0215,5.0894,5.1885,5.2637,5.3185,5.3185,5.3185,5.3185,5.3185,5.3185,5.3185,5.3185,5.3185,5.3185,5.3185,5.3185,5.3555,5.5133,5.5614,5.5959,5.7574,5.7997,5.7997,5.7997,5.7997,5.7997,5.7997,5.7997,5.7997,5.7997,5.7997,5.7997,5.7997,5.7997,5.8547,6.0162,6.1227,6.2089,6.2707,6.278,6.278,6.278,6.278,6.278,6.278,6.278,6.278,6.278,6.278,6.278,6.278,6.278,6.278,6.278,6.278,6.3319,6.4347,6.4989,6.5815,6.6769,6.7393,6.7687,4.7614,4.8075,0.0,4.9848,0.0,5.3162,5.4244,5.4655,5.4924,5.5306,5.5546,5.5703,5.5703,5.5395,5.4857,5.401,5.353,5.2953,5.2125,5.1991,5.1991,5.1991,5.1606,5.1337,5.1337,5.0952,5.0712,5.0712,5.0514,5.0237,4.9827,4.9431,4.9029,4.864,4.8402,4.8306,4.8306,4.8306,4.8306,4.8306,4.8306,4.8306,4.8306,4.8306,4.8306,4.8306,4.8306,4.8306,4.8379,4.9243,4.9849,5.0325,5.1536,5.2252,5.2674,5.3078,5.3185,5.3185,5.3185,5.3185,5.3185,5.3185,5.3185,5.3185,5.3185,5.3185,5.3555,5.5133,5.5614,5.5959,5.7574,5.7997,5.7997,5.7997,5.7997,5.7997,5.7997,5.7997,5.7997,5.7997,5.7997,5.7997,5.7997,5.8327,5.8988,6.0217,6.108,6.1887,6.2688,6.278,6.278,6.278,6.278,6.278,6.278,6.278,6.278,6.278,6.278,6.278,6.278,6.278,6.278,6.278,6.278,6.3227,6.409,6.4916,6.5723,6.6512,6.732,6.7687,4.7216,4.8057,4.9058,5.0453,5.2057,0.0,5.4324,5.4566,5.4804,5.5554,5.5703,5.5703,5.5703,5.503,5.4203,5.3337,5.2462,5.1625,5.0808,5.0712,5.0712,5.0712,5.0712,5.0712,5.0712,5.0712,5.0673,5.0604,5.0283,4.9879,4.9416,4.9075,4.8728,4.8325,4.8306,4.8306,4.8306,4.8306,4.8306,4.8306,4.8306,4.8306,4.8306,4.8306,4.8306,4.8306,4.8306,4.8306,4.8361,4.9077,4.9463,4.9757,5.1226,5.1867,5.2087,5.2913,5.3185,5.3185,5.3185,5.3185,5.3185,5.3185,5.3185,5.3185,5.3185,5.3185,5.3555,5.5133,5.5614,5.5959,5.7574,5.7997,5.7997,5.7997,5.7997,5.7997,5.7997,5.7997,5.7997,5.7997,5.7997,5.7997,5.7997,5.8547,5.9318,6.0272,6.097,6.1722,6.2695,6.278,6.278,6.278,6.278,6.278,6.278,6.278,6.278,6.278,6.278,6.278,6.278,6.278,6.278,6.278,6.278,6.3154,6.387,6.4842,6.565,6.6329,6.7247,6.7687,4.7216,0.0,5.0527,0.0,5.2263,5.3851,0.0,0.0,5.516,0.0,5.5703,5.5703,5.5703,5.503,5.4203,5.3337,5.2462,5.1625,5.0808,5.0712,5.0712,5.0712,5.0712,5.0712,5.0712,5.0712,5.0554,5.0214,5.0135,4.9773,4.9011,4.893,4.8728,4.8325,4.8306,4.8306,4.8306,4.8306,4.8306,4.8306,4.8306,4.8306,4.8306,4.8306,4.8306,4.8306,4.8306,4.8306,4.8324,4.8434,4.8912,4.9702,5.06,5.1389,5.2087,5.2913,5.3185,5.3185,5.3185,5.3185,5.3185,5.3185,5.3185,5.3185,5.3185,5.3185,5.3555,5.5133,5.5614,5.5959,5.7574,5.7997,5.7997,5.7997,5.7997,5.7997,5.7997,5.7997,5.7997,5.7997,5.7997,5.7997,5.7997,5.8088,5.8676,6.0181,6.0493,6.1098,6.2597,6.278,6.278,6.278,6.278,6.278,6.278,6.278,6.278,6.278,6.278,6.278,6.278,6.278,6.278,6.278,6.278,6.2853,6.2989,6.4549,6.5375,6.5503,6.699,6.7687,4.7002,4.8694,5.0196,0.0,5.1791,5.3029,5.3902,5.4452,5.4881,5.5282,5.5535,5.5703,5.5703,5.4645,5.3645,5.326,5.2087,5.1106,5.075,5.0712,5.0712,5.0712,5.0712,5.0712,5.0712,5.0493,5.0283,5.0104,4.9673,4.9261,4.893,4.8692,4.8477,4.8306,4.8306,4.8306,4.8306,4.8306,4.8306,4.8306,4.8306,4.8306,4.8306,4.8306,4.8306,4.8306,4.8306,4.8306,4.8306,4.8306,4.8526,4.9003,5.0306,5.1022,5.1481,5.2747,5.3185,5.3185,5.3185,5.3185,5.3185,5.3185,5.3185,5.3185,5.3185,5.3185,5.3555,5.5133,5.5614,5.5959,5.7574,5.7997,5.7997,5.7997,5.7997,5.7997,5.7997,5.7997,5.7997,5.7997,5.7997,5.7997,5.7997,5.7997,5.8547,6.0162,6.0401,6.0988,6.2578,6.278,6.278,6.278,6.278,6.278,6.278,6.278,6.278,6.278,6.278,6.278,6.278,6.278,6.278,6.278,6.278,6.278,6.278,6.4468,6.5319,6.5356,6.6953,6.7687,0.0,0.0,4.9287,5.0486,5.1389,5.2322,0.0,0.0,5.4468,0.0,5.5331,5.5577,5.5673,5.4337,5.3203,5.3203,5.1779,5.0712,5.0712,5.0712,5.0712,5.0712,5.0712,5.0663,5.0554,5.0272,5.0031,4.9813,4.9249,4.8846,4.8744,4.8458,4.8306,4.8306,4.8306,4.8306,4.8306,4.8306,4.8306,4.8306,4.8306,4.8306,4.8306,4.8306,4.8306,4.8306,4.8306,4.8306,4.8306,4.8306,4.8306,4.8471,5.016,5.0802,5.0986,5.2619,5.3185,5.3185,5.3185,5.3185,5.3185,5.3185,5.3185,5.3185,5.3185,5.3185,5.3555,5.5133,5.5614,5.5959,5.7574,5.7997,5.7997,5.7997,5.7997,5.7997,5.7997,5.7997,5.7997,5.7997,5.7997,5.7997,5.7997,5.7997,5.8547,6.0162,6.0401,6.0988,6.2578,6.278,6.278,6.278,6.278,6.278,6.278,6.278,6.278,6.278,6.278,6.278,6.278,6.278,6.278,6.278,6.278,6.278,6.278,6.4292,6.5099,6.5338,6.6733,6.7485,0.0,4.6985,0.0,5.0259,5.1389,5.2322,0.0,0.0,5.4065,5.4919,5.5121,5.5256,5.564,5.4337,5.3203,5.3203,5.1779,5.0712,5.0712,5.0712,5.0712,5.0712,5.0712,5.0554,5.0171,5.0104,4.9787,4.9011,4.893,4.8727,4.8345,4.8306,4.8306,4.8306,4.8306,4.8306,4.8306,4.8306,4.8306,4.8306,4.8306,4.8306,4.8306,4.8306,4.8306,4.8306,4.8306,4.8306,4.8306,4.8306,4.8306,4.8471,5.016,5.0802,5.0986,5.2619,5.3185,5.3185,5.3185,5.3185,5.3185,5.3185,5.3185,5.3185,5.3185,5.3185,5.3555,5.5133,5.5614,5.5959,5.7574,5.7997,5.7997,5.7997,5.7997,5.7997,5.7997,5.7997,5.7997,5.7997,5.7997,5.7997,5.7997,5.7997,5.8547,6.0162,6.0401,6.0988,6.2578,6.278,6.278,6.278,6.278,6.278,6.278,6.278,6.278,6.278,6.278,6.278,6.278,6.278,6.278,6.278,6.278,6.278,6.278,6.3723,6.4549,6.5338,6.6164,6.6971,0.0,0.0,0.0,4.8904,5.0215,5.1487,5.2423,5.3234,5.3977,5.4594,5.4924,5.5212,5.5629,5.4337,5.3203,5.3203,5.1779,5.0712,5.0712,5.0712,5.0712,5.0712,5.0712,5.0544,5.0147,4.9872,4.9489,4.8947,4.8657,4.8458,4.8306,4.8306,4.8306,4.8306,4.8306,4.8306,4.8306,4.8306,4.8306,4.8306,4.8306,4.8306,4.8306,4.8306,4.8306,4.8306,4.8306,4.8306,4.8306,4.8306,4.8306,4.8471,5.016,5.0802,5.0986,5.2619,5.3185,5.3185,5.3185,5.3185,5.3185,5.3185,5.3185,5.3103,5.264,5.3178,5.4111,5.4774,5.5628,5.662,5.7721,5.7997,5.7997,5.7997,5.7997,5.7862,5.7401,5.7284,5.7425,5.7909,5.7613,5.7613,5.8605,5.8786,5.9318,6.0933,6.1172,6.1557,6.2677,6.278,6.278,6.278,6.278,6.278,6.278,6.278,6.278,6.278,6.278,6.278,6.278,6.278,6.278,6.278,6.278,6.278,6.278,6.3668,6.4512,6.5338,6.6127,6.6916,4.3355,0.0,0.0,0.0,4.8995,5.0251,5.1353,5.2426,5.3312,5.3774,5.4292,5.4829,5.5399,5.4338,5.3355,5.322,5.1779,5.0712,5.0712,5.0712,5.0712,5.0712,5.0575,5.0336,4.9936,4.9532,4.9123,4.8745,4.8458,0.0,4.8306,4.8306,4.8306,4.8306,4.8306,4.8306,4.8306,4.8306,4.8306,4.8306,4.8306,4.8306,4.8306,4.8306,4.8306,4.8306,4.8306,4.8306,4.8306,4.8306,4.8306,4.8471,5.016,5.0802,5.0986,5.2619,5.3185,5.3185,5.3185,5.3185,5.3185,5.3185,5.3185,5.3158,5.2949,5.3598,5.4514,5.5151,5.6048,5.6987,5.7795,5.7997,5.795,5.7703,5.7637,5.7547,5.7314,5.7067,5.7036,5.7536,5.7221,5.7271,5.8565,5.9008,5.9657,6.0989,6.1427,6.1887,6.2688,6.278,6.278,6.278,6.278,6.278,6.278,6.278,6.278,6.278,6.278,6.278,6.278,6.278,6.278,6.278,6.278,6.278,6.278,6.3392,6.4237,6.5319,6.5852,6.6659,0.0,0.0,0.0,0.0,0.0,0.0,5.0362,0.0,5.2048,5.2512,5.3218,5.4027,5.4919,5.4375,5.3639,5.3264,5.1808,5.0721,5.0702,5.0673,5.0673,5.0663,5.0325,4.9924,4.9518,4.9123,4.8727,4.8344,4.8306,4.8306,4.8306,4.8306,4.8306,4.8306,4.8306,4.8306,4.8306,4.8306,4.8306,4.8306,4.8306,4.8306,4.8306,4.8306,4.8306,4.8306,4.8306,4.8306,4.8306,4.8306,4.8324,4.8508,5.016,5.082,5.1041,5.2637,5.3185,5.3185,5.3185,5.3185,5.3185,5.3185,5.3203,5.3369,5.4139,5.4414,5.4803,5.6341,5.6799,5.7024,5.7772,5.795,5.775,5.704,5.6879,5.7095,5.7782,5.7385,5.6895,5.6936,5.6852,5.7052,5.7901,5.8691,5.9475,6.0313,6.1105,6.1881,6.2688,6.278,6.278,6.278,6.278,6.278,6.278,6.278,6.278,6.278,6.278,6.278,6.278,6.278,6.278,6.278,6.278,6.278,6.278,6.2817,6.3704,6.5319,6.5356,6.6219,4.1188,0.0,0.0,0.0,0.0,0.0,0.0,0.0,5.0723,5.2289,5.277,5.3285,5.445,5.3959,5.3331,5.322,5.2272,5.1266,5.039,5.026,5.0159,4.9872,4.9733,4.9504,4.9108,4.898,4.8727,0.0,4.8306,4.8306,4.8306,4.8306,4.8306,4.8306,4.8306,4.8306,4.8306,4.8306,4.8306,4.8306,4.8306,4.8306,4.8306,4.8306,4.8306,4.8306,4.8306,4.8306,4.8306,4.8306,4.8673,4.9334,5.0398,5.1151,5.1793,5.2821,5.3185,5.3185,5.3185,5.3185,5.3185,5.3185,5.3592,5.4001,5.3708,5.4779,5.6126,5.6091,5.6846,5.7587,5.7297,5.6755,5.6277,5.6059,5.6466,5.6805,5.6433,5.6597,5.7017,5.7576,5.7202,5.7231,5.8636,5.9059,5.9677,6.107,6.1444,6.1893,6.2693,6.278,6.278,6.278,6.278,6.278,6.278,6.278,6.278,6.278,6.278,6.278,6.278,6.278,6.278,6.278,6.278,6.278,6.278,6.3429,6.4273,6.5338,6.6494,6.7265,4.0593,0.0,0.0,0.0,0.0,0.0,4.7421,4.8453,4.9596,0.0,5.2121,5.2717,5.3968,5.3793,5.3393,5.3233,5.2764,5.1948,5.0537,5.0339,5.0139,4.9575,4.9356,4.9155,4.893,4.8744,4.855,4.8325,4.8306,4.8306,4.8306,4.8306,4.8306,4.8306,4.8306,4.8306,4.8306,4.8306,4.8306,4.8306,4.8306,4.8306,4.8306,4.8306,4.8306,4.8306,4.8306,4.8306,4.8343,4.8691,4.9132,4.9647,5.0472,5.1279,5.2087,5.2913,5.3185,5.3185,5.3185,5.3185,5.3185,5.3185,5.3739,5.4371,5.4273,5.545,5.6791,5.6738,5.7337,5.7839,5.7091,5.6545,5.6104,5.5762,5.6065,5.6361,5.6195,5.6515,5.6933,5.7394,5.7116,5.7306,5.8899,5.9479,6.0137,6.1402,6.1897,6.2271,6.273,6.278,6.278,6.278,6.278,6.278,6.278,6.278,6.278,6.278,6.278,6.278,6.278,6.278,6.278,6.278,6.278,6.3154,6.3826,6.4016,6.4677,6.5833,6.71,6.7687,4.0096,4.0517,0.0,0.0,4.3301,0.0,4.6206,4.7326,4.8425,0.0,5.1069,5.1985,5.3236,5.346,5.3366,5.298,5.3008,5.2535,5.0982,5.0772,5.0493,4.9732,4.9342,4.9089,4.8996,4.8643,4.8398,4.8324,4.8306,4.8306,4.8306,4.8306,4.8306,4.8306,4.8306,4.8306,4.8306,4.8306,4.8306,4.8306,4.8306,4.8306,4.8306,4.8306,4.8306,4.8306,4.8306,4.8306,4.8379,4.9243,4.9629,4.9719,5.06,5.1426,5.2215,5.2949,5.3185,5.3185,5.3185,5.3185,5.3203,5.3316,5.3885,5.4675,5.5482,5.629,5.7079,5.7795,5.7932,5.7726,5.7065,5.6765,5.6465,5.5752,5.5645,5.587,5.6543,5.6816,5.6953,5.7043,5.7043,5.7496,5.8838,5.9832,6.067,6.1474,6.22,6.2705,6.278,6.278,6.278,6.278,6.278,6.278,6.278,6.278,6.278,6.278,6.278,6.278,6.278,6.278,6.278,6.278,6.278,6.3606,6.5319,6.4585,6.5063,6.6641,6.7357,6.7687,4.0096,4.0612,4.117,4.1273,0.0,0.0,4.3714,4.4839,4.6257,0.0,4.8738,4.9704,5.112,5.1385,5.1349,5.1281,5.1799,5.199,5.1277,5.118,5.1022,5.06,5.0466,5.017,4.9525,4.9393,4.9058,4.8361,4.8306,4.8306,4.8306,4.8306,4.8306,4.8306,4.8306,4.8306,4.8306,4.8306,4.8306,4.8306,4.8306,4.8306,4.8306,4.8306,4.8306,4.8306,4.8306,4.8306,4.8379,4.9243,4.9958,5.0637,5.1444,5.2252,5.2986,5.313,5.3185,5.3185,5.3185,5.3185,5.3295,5.3959,5.4711,5.5519,5.6326,5.7134,5.7795,5.796,5.7565,5.7065,5.6938,5.5984,5.4999,5.4848,5.5281,5.574,5.5875,5.6838,5.7897,5.8531,5.865,5.877,5.906,5.9832,6.067,6.1474,6.1742,6.2049,6.273,6.278,6.278,6.278,6.278,6.278,6.278,6.278,6.278,6.278,6.278,6.278,6.278,6.278,6.278,6.278,6.278,6.3606,6.5319,6.5154,6.5888,6.7467,6.7614,6.7687,4.0197,4.0383,4.0807,4.136,0.0,0.0,0.0,4.3851,4.4649,4.661,4.6999,4.7571,4.9374,4.9409,4.9385,5.0083,5.0875,5.1472,5.1616,5.1655,5.1429,5.0859,5.0802,5.0637,5.0233,5.0196,4.9848,4.9003,4.8545,4.8306,4.8306,4.8306,4.8306,4.8306,4.8306,4.8306,4.8306,4.8306,4.8306,4.8306,4.8306,4.8306,4.8306,4.8306,4.8306,4.8306,4.8306,4.8306,4.8398,4.9664,5.0435,5.0875,5.1683,5.2491,5.3185,5.3185,5.3185,5.3185,5.3185,5.3185,5.3335,5.4142,5.4932,5.5739,5.6565,5.7373,5.7997,5.7997,5.7726,5.7449,5.7449,5.6598,5.5759,5.5759,5.6001,5.6251,5.6251,5.7415,5.8633,5.9027,5.9765,6.0361,6.0361,6.0713,6.1275,6.2094,6.22,6.235,6.2755,6.278,6.278,6.278,6.278,6.278,6.278,6.278,6.278,6.278,6.278,6.278,6.278,6.278,6.278,6.278,6.3227,6.4071,6.5319,6.5705,6.6512,6.7687,6.7687,6.7687,0.0,0.0,0.0,0.0,0.0,4.1739,0.0,0.0,0.0,0.0,0.0,0.0,0.0,0.0,0.0,0.0,0.0,0.0,0.0,5.1483,0.0,5.1277,5.1261,5.1206,5.1041,5.0747,5.0288,4.9647,4.8783,4.8306,4.8306,4.8306,4.8306,4.8306,4.8306,4.8306,4.8306,4.8306,4.8306,4.8306,4.8306,4.8306,4.8306,4.8306,4.8306,4.8306,4.8306,4.8398,4.8673,5.0178,5.0894,5.1114,5.1922,5.2637,5.3185,5.3185,5.3185,5.3185,5.3185,5.3185,5.3371,5.4326,5.528,5.618,5.684,5.7483,5.7997,5.7997,5.7997,5.7997,5.7997,5.7449,5.6912,5.6912,5.6974,5.7034,5.7034,5.8266,5.941,5.9556,6.0665,6.1586,6.1586,6.1715,6.2049,6.2686,6.278,6.278,6.278,6.278,6.278,6.278,6.278,6.278,6.278,6.278,6.278,6.278,6.278,6.278,6.278,6.278,6.2897,6.3062,6.3741,6.4567,6.554,6.6182,6.6898,6.7687,6.7687,6.7687,0.0,0.0,0.0,0.0,4.2223,0.0,0.0,0.0,0.0,4.2632,0.0,0.0,0.0,0.0,0.0,0.0,0.0,0.0,4.88,4.9593,5.0769,5.2703,5.2928,5.2656,5.1922,5.0583,4.9702,4.961,4.8783,4.8306,4.8306,4.8306,4.8306,4.8306,4.8306,4.8306,4.8306,4.8306,4.8306,4.8306,4.8306,4.8306,4.8306,4.8306,4.8306,4.8306,4.8306,4.8728,4.9519,5.0435,5.1224,5.194,5.2747,5.3112,5.3185,5.3185,5.3185,5.3185,5.3185,5.3185,5.3463,5.4968,5.6492,5.774,5.7831,5.7923,5.7997,5.7997,5.7997,5.7997,5.7997,5.7449,5.6912,5.6912,5.7435,5.7947,5.7947,5.9148,6.0458,6.1171,6.1474,6.1586,6.1586,6.22,6.2686,6.2798,6.278,6.278,6.278,6.278,6.278,6.278,6.278,6.278,6.278,6.278,6.278,6.278,6.278,6.278,6.278,6.278,6.3172,6.3925,6.4035,6.4842,6.6366,6.6457,6.6898,6.7687,6.7687,6.7687,0.0,0.0,0.0,0.0,0.0,0.0,4.095,0.0,4.1138,0.0,0.0,0.0,0.0,0.0,0.0,0.0,4.5657,0.0,0.0,0.0,4.9906,0.0,0.0,0.0,5.1977,5.0967,5.0288,5.0288,4.9058,4.8306,4.8306,4.8306,4.8306,4.8306,4.8306,4.8306,4.8306,4.8306,4.8306,4.8306,4.8306,4.8306,4.8306,4.8306,4.8306,4.8306,4.8306,4.8783,4.9665,5.0472,5.1261,5.2068,5.2894,5.3185,5.3185,5.3185,5.3185,5.3185,5.3185,5.3185,5.3482,5.5078,5.6675,5.7997,5.7997,5.7997,5.7997,5.7997,5.7997,5.7997,5.7997,5.7774,5.765,5.8124,5.8499,5.8882,5.9348,6.0314,6.1218,6.153,6.1996,6.2298,6.2298,6.2567,6.278,6.278,6.278,6.278,6.278,6.278,6.278,6.278,6.278,6.278,6.278,6.278,6.278,6.278,6.278,6.278,6.278,6.3301,6.3723,6.409,6.5007,6.5833,6.6494,6.6971,6.7357,6.7687,6.7687,6.7687,4.3064,0.0,0.0,0.0,0.0,0.0,0.0,0.0,0.0,0.0,0.0,0.0,0.0,0.0,0.0,0.0,0.0,4.5937,0.0,4.7597,0.0,0.0,0.0,0.0,0.0,5.1032,5.071,5.049,4.9132,4.8306,4.8306,4.8306,4.8306,4.8306,4.8306,4.8306,4.8306,4.8306,4.8306,4.8306,4.8306,4.8306,4.8306,4.8306,4.8306,4.8306,4.8306,4.8912,4.9958,5.0563,5.1408,5.238,5.2968,5.3185,5.3185,5.3185,5.3185,5.3185,5.3185,5.35,5.4087,5.5482,5.6859,5.7997,5.7997,5.7997,5.7997,5.7997,5.7997,5.7997,5.7997,5.8162,5.8492,5.9056,5.9534,6.0012,6.0592,6.138,6.1924,6.1924,6.2394,6.278,6.278,6.278,6.278,6.278,6.278,6.278,6.278,6.278,6.278,6.278,6.278,6.278,6.278,6.278,6.278,6.278,6.278,6.2915,6.3154,6.3759,6.431,6.4732,6.5907,6.6604,6.6824,6.7412,6.7687,6.7687,6.7687,6.7687,0.0,0.0,0.0,4.2658,0.0,0.0,0.0,0.0,4.117,0.0,0.0,0.0,0.0,0.0,0.0,0.0,0.0,0.0,0.0,0.0,0.0,0.0,0.0,0.0,0.0,5.042,5.0472,0.0,4.8802,4.8306,4.8306,4.8306,4.8306,4.8306,4.8306,4.8306,4.8306,4.8306,4.8306,4.8306,4.8306,4.8306,4.8306,4.8306,4.8306,4.8306,4.8306,4.9242,5.0765,5.0802,5.1738,5.3148,5.3185,5.3185,5.3185,5.3185,5.3185,5.3185,5.3185,5.4216,5.5647,5.6492,5.7317,5.7997,5.7997,5.7997,5.7997,5.7997,5.7997,5.7997,5.7997,5.8584,5.9166,5.9184,6.0395,6.1533,6.1551,6.2193,6.2755,6.2755,6.278,6.278,6.278,6.278,6.278,6.278,6.278,6.278,6.278,6.278,6.278,6.278,6.278,6.278,6.278,6.278,6.278,6.278,6.278,6.3191,6.4016,6.409,6.4824,6.6384,6.6476,6.688,6.765,6.7687,6.7687,6.7687,6.7687,6.7687,0.0,0.0,4.4361,4.3301,0.0,0.0,0.0,0.0,0.0,0.0,0.0,0.0,0.0,0.0,0.0,0.0,0.0,0.0,0.0,0.0,0.0,0.0,0.0,0.0,0.0,0.0,0.0,4.9571,4.8783,0.0,4.8306,4.8306,4.8306,4.8306,4.8306,4.8306,4.8306,4.8306,4.8306,4.8306,4.8306,4.8306,4.8306,4.8306,4.8306,4.8343,4.8912,4.9774,5.0839,5.1371,5.2234,5.3185,5.3185,5.3185,5.3185,5.3185,5.3185,5.3277,5.3812,5.4693,5.5721,5.6547,5.7336,5.7997,5.7997,5.7997,5.7997,5.7997,5.7997,5.8125,5.8657,5.8982,5.9459,6.0548,6.119,6.1741,6.2291,6.2622,6.278,6.278,6.278,6.278,6.278,6.278,6.278,6.278,6.278,6.278,6.278,6.278,6.278,6.278,6.278,6.278,6.278,6.278,6.278,6.278,6.278,6.3191,6.4053,6.4604,6.5393,6.6476,6.7008,6.7412,6.7687,6.7687,6.7687,6.7687,6.7687,6.7687,4.4615,4.4615,0.0,4.3606,4.3047,0.0,4.1762,0.0,0.0,0.0,0.0,0.0,0.0,0.0,0.0,0.0,0.0,0.0,0.0,4.3234,0.0,0.0,0.0,0.0,0.0,0.0,4.8424,4.8796,4.8306,4.8075,0.0,4.86,4.8765,4.8765,4.904,4.9058,4.8765,4.8765,4.8618,4.8306,4.8306,4.8306,4.8306,4.8306,4.8306,4.8361,4.9225,5.005,5.0857,5.1665,5.2472,5.3185,5.3185,5.3185,5.3185,5.3185,5.339,5.3739,5.4546,5.5354,5.6161,5.6969,5.7574,5.7997,5.7997,5.7997,5.7997,5.7997,5.8217,5.8547,5.9056,5.9606,6.0309,6.1355,6.1814,6.2181,6.2695,6.278,6.278,6.278,6.278,6.278,6.278,6.278,6.278,6.278,6.278,6.278,6.278,6.278,6.278,6.278,6.278,6.278,6.278,6.278,6.278,6.278,6.278,6.3319,6.4475,6.5026,6.5815,6.6898,6.743,6.7687,6.7687,6.7687,6.7687,6.7687,6.7687,6.7687]}]]